[[{"header":{"parameterUnit":"m.s-1","parameterCategory":1,"la1":31.0,"la2":29.5877,"lo1":-88.7671,"lo2":-86.6584,"dx":0.0162,"dy":0.0185,"nx":115,"ny":88,"refTime":"2023-01-31T06:00:00:Z","depth":0,"parameterNumber":2,"parameterNumberName":"U-component_of_WINDS"},"data":[0.0,0.0,0.0,0.0,0.0,0.0,0.0,0.0,0.0,0.0,0.0,0.0,0.0,0.0,0.0,0.0,0.0,0.0,0.0,0.0,0.0,0.0,0.0,0.0,0.0,0.0,0.0,0.0,0.0,0.0,0.0,0.0,0.0,0.0,0.0,0.0,0.0,0.0,0.0,0.0,0.0,0.0,0.0,0.0,0.0,0.0,0.0,0.0,0.0,0.0,0.0,0.0,0.0,0.0,0.0,0.0,0.0,0.0,0.0,0.0,0.0,0.0,0.0,0.0,0.0,0.0,0.0,0.0,0.0,0.0,0.0,0.0,0.0,0.0,0.0,0.0,0.0,0.0,0.0,0.0,0.0,0.0,0.0,0.0,0.0,0.0,0.0,0.0,0.0,0.0,0.0,0.0,0.0,0.0,0.0,0.0,0.0,0.0,0.0,0.0,0.0,0.0,0.0,0.0,0.0,0.0,0.0,0.0,0.0,0.0,0.0,0.0,0.0,0.0,0.0,0.0,0.0,0.0,0.0,0.0,0.0,0.0,0.0,0.0,0.0,0.0,0.0,0.0,0.0,0.0,0.0,0.0,0.0,0.0,0.0,0.0,0.0,0.0,0.0,0.0,0.0,0.0,0.0,0.0,0.0,0.0,0.0,0.0,0.0,0.0,0.0,0.0,0.0,0.0,0.0,0.0,0.0,0.0,0.0,0.0,0.0,0.0,0.0,0.0,0.0,0.0,0.0,0.0,0.0,0.0,0.0,0.0,0.0,0.0,0.0,0.0,0.0,0.0,0.0,0.0,0.0,0.0,0.0,0.0,0.0,0.0,0.0,0.0,0.0,0.0,0.0,0.0,0.0,0.0,0.0,0.0,0.0,0.0,0.0,0.0,0.0,0.0,0.0,0.0,0.0,0.0,0.0,0.0,0.0,0.0,0.0,0.0,0.0,0.0,0.0,0.0,0.0,0.0,0.0,0.0,0.0,0.0,0.0,0.0,0.0,0.0,0.0,0.0,0.0,0.0,0.0,0.0,0.0,0.0,0.0,0.0,0.0,0.0,0.0,0.0,0.0,0.0,0.0,0.0,0.0,0.0,0.0,0.0,0.0,0.0,0.0,0.0,0.0,0.0,0.0,0.0,0.0,0.0,0.0,0.0,0.0,0.0,0.0,0.0,0.0,0.0,0.0,0.0,0.0,0.0,0.0,0.0,0.0,0.0,0.0,0.0,0.0,0.0,0.0,0.0,0.0,0.0,0.0,0.0,0.0,0.0,0.0,0.0,0.0,0.0,0.0,0.0,0.0,0.0,0.0,0.0,0.0,0.0,0.0,0.0,0.0,0.0,0.0,0.0,0.0,0.0,0.0,0.0,0.0,0.0,0.0,0.0,0.0,0.0,0.0,0.0,0.0,0.0,0.0,0.0,0.0,0.0,0.0,0.0,0.0,0.0,0.0,0.0,0.0,0.0,0.0,0.0,0.0,0.0,0.0,0.0,0.0,0.0,0.0,0.0,0.0,0.0,0.0,0.0,0.0,0.0,0.0,0.0,0.0,0.0,0.0,0.0,0.0,0.0,0.0,0.0,0.0,0.0,0.0,0.0,0.0,0.0,0.0,0.0,0.0,0.0,0.0,0.0,0.0,0.0,0.0,0.0,0.0,0.0,0.0,0.0,0.0,0.0,0.0,0.0,0.0,0.0,0.0,0.0,0.0,0.0,0.0,0.0,0.0,0.0,0.0,0.0,0.0,0.0,0.0,0.0,0.0,0.0,0.0,0.0,0.0,0.0,0.0,0.0,0.0,0.0,0.0,0.0,0.0,0.0,0.0,0.0,0.0,0.0,0.0,0.0,0.0,0.0,0.0,0.0,0.0,0.0,0.0,0.0,0.0,0.0,0.0,0.0,0.0,0.0,0.0,0.0,0.0,0.0,0.0,0.0,0.0,0.0,0.0,0.0,0.0,0.0,0.0,0.0,0.0,0.0,0.0,0.0,0.0,0.0,0.0,0.0,0.0,0.0,0.0,0.0,0.0,0.0,0.0,0.0,0.0,0.0,0.0,0.0,0.0,0.0,0.0,0.0,0.0,0.0,0.0,0.0,0.0,0.0,0.0,0.0,0.0,0.0,0.0,0.0,0.0,0.0,0.0,0.0,0.0,0.0,0.0,0.0,0.0,0.0,0.0,0.0,0.0,0.0,0.0,0.0,0.0,0.0,0.0,0.0,0.0,0.0,0.0,0.0,0.0,0.0,0.0,0.0,0.0,0.0,0.0,0.0,0.0,0.0,0.0,0.0,0.0,0.0,0.0,0.0,0.0,0.0,0.0,0.0,0.0,0.0,0.0,0.0,0.0,0.0,0.0,0.0,0.0,0.0,0.0,0.0,0.0,0.0,0.0,0.0,0.0,0.0,0.0,0.0,0.0,0.0,0.0,0.0,0.0,0.0,0.0,0.0,0.0,0.0,0.0,0.0,0.0,0.0,0.0,0.0,0.0,0.0,0.0,0.0,0.0,0.0,0.0,0.0,0.0,0.0,0.0,0.0,0.0,0.0,0.0,0.0,0.0,0.0,0.0,0.0,0.0,0.0,0.0,0.0,0.0,0.0,0.0,0.0,0.0,0.0,0.0,0.0,0.0,0.0,0.0,0.0,0.0,0.0,0.0,0.0,0.0,0.0,0.0,0.0,0.0,0.0,0.0,0.0,0.0,0.0,0.0,0.0,0.0,0.0,0.0,0.0,0.0,0.0,0.0,0.0,0.0,0.0,0.0,0.0,0.0,0.0,0.0,0.0,0.0,0.0,0.0,0.0,0.0,0.0,0.0,0.0,0.0,0.0,0.0,0.0,0.0,0.0,0.0,0.0,0.0,0.0,0.0,0.0,0.0,0.0,0.0,0.0,0.0,0.0,0.0,0.0,0.0,0.0,0.0,0.0,0.0,0.0,0.0,0.0,0.0,0.0,0.0,0.0,0.0,0.0,0.0,0.0,0.0,0.0,0.0,0.0,0.0,0.0,0.0,0.0,0.0,0.0,0.0,0.0,0.0,0.0,0.0,0.0,0.0,0.0,0.0,0.0,0.0,0.0,0.0,0.0,0.0,0.0,0.0,0.0,0.0,0.0,0.0,0.0,0.0,0.0,0.0,0.0,0.0,0.0,0.0,0.0,0.0,0.0,0.0,0.0,0.0,0.0,0.0,0.0,0.0,0.0,0.0,0.0,0.0,0.0,0.0,0.0,0.0,0.0,0.0,0.0,0.0,0.0,0.0,0.0,0.0,0.0,0.0,0.0,0.0,0.0,0.0,0.0,0.0,0.0,0.0,0.0,0.0,0.0,0.0,0.0,0.0,0.0,0.0,0.0,0.0,0.0,0.0,0.0,0.0,0.0,0.0,0.0,0.0,0.0,0.0,0.0,0.0,0.0,0.0,0.0,0.0,0.0,0.0,0.0,0.0,0.0,0.0,0.0,0.0,0.0,0.0,0.0,0.0,0.0,0.0,0.0,0.0,0.0,0.0,0.0,0.0,0.0,0.0,0.0,0.0,0.0,0.0,0.0,0.0,0.0,0.0,0.0,0.0,0.0,0.0,0.0,0.0,0.0,0.0,0.0,0.0,0.0,0.0,0.0,0.0,0.0,0.0,0.0,0.0,0.0,0.0,0.0,0.0,0.0,0.0,0.0,0.0,0.0,0.0,0.0,0.0,0.0,0.0,0.0,0.0,0.0,0.0,0.0,0.0,0.0,0.0,0.0,0.0,0.0,0.0,0.0,0.0,0.0,0.0,0.0,0.0,0.0,0.0,0.0,0.0,0.0,0.0,0.0,0.0,0.0,0.0,0.0,0.0,0.0,0.0,0.0,0.0,0.0,0.0,0.0,0.0,0.0,0.0,0.0,0.0,0.0,0.0,0.0,0.0,0.0,0.0,0.0,0.0,0.0,0.0,0.0,0.0,0.0,0.0,0.0,0.0,0.0,0.0,0.0,0.0,0.0,0.0,0.0,0.0,0.0,0.0,0.0,0.0,0.0,0.0,0.0,0.0,0.0,0.0,0.0,0.0,0.0,0.0,0.0,0.0,0.0,0.0,0.0,0.0,0.0,0.0,0.0,0.0,0.0,0.0,0.0,0.0,0.0,0.0,0.0,0.0,0.0,0.0,0.0,0.0,0.0,0.0,0.0,0.0,0.0,0.0,0.0,0.0,0.0,0.0,0.0,0.0,0.0,0.0,0.0,0.0,0.0,0.0,0.0,0.0,0.0,0.0,0.0,0.0,0.0,0.0,0.0,0.0,0.0,2.8144,0.0,0.0,0.0,0.0,0.0,0.0,0.0,0.0,0.0,0.0,0.0,0.0,0.0,0.0,0.0,0.0,0.0,0.0,0.0,0.0,0.0,0.0,0.0,0.0,0.0,0.0,0.0,0.0,0.0,0.0,0.0,0.0,0.0,0.0,0.0,0.0,0.0,0.0,0.0,0.0,0.0,0.0,0.0,0.0,0.0,0.0,0.0,0.0,0.0,0.0,0.0,0.0,0.0,0.0,0.0,0.0,0.0,0.0,0.0,0.0,0.0,0.0,0.0,0.0,0.0,0.0,0.0,0.0,0.0,0.0,0.0,0.0,0.0,0.0,0.0,0.0,0.0,0.0,0.0,0.0,0.0,0.0,0.0,0.0,0.0,0.0,0.0,0.0,0.0,0.0,0.0,0.0,0.0,0.0,0.0,0.0,0.0,0.0,0.0,0.0,0.0,0.0,0.0,0.0,0.0,0.0,0.0,0.0,0.0,0.0,2.9679,3.0581,2.9455,2.8633,2.8301,0.0,0.0,0.0,0.0,0.0,0.0,0.0,0.0,0.0,0.0,0.0,0.0,0.0,0.0,0.0,0.0,0.0,0.0,0.0,0.0,0.0,0.0,0.0,0.0,0.0,0.0,0.0,0.0,0.0,0.0,0.0,0.0,0.0,0.0,0.0,0.0,0.0,0.0,0.0,0.0,0.0,0.0,0.0,0.0,0.0,0.0,0.0,0.0,0.0,0.0,0.0,0.0,0.0,0.0,0.0,0.0,0.0,0.0,0.0,0.0,0.0,0.0,0.0,0.0,0.0,0.0,0.0,0.0,0.0,0.0,0.0,0.0,0.0,0.0,0.0,0.0,0.0,0.0,0.0,0.0,0.0,0.0,0.0,0.0,0.0,0.0,0.0,0.0,0.0,0.0,0.0,0.0,0.0,0.0,0.0,0.0,0.0,0.0,0.0,0.0,0.0,0.0,0.0,0.0,0.0,0.0,0.0,0.0,0.0,0.0,0.0,0.0,3.0263,2.947,2.9141,0.0,0.0,0.0,0.0,0.0,0.0,0.0,0.0,0.0,0.0,0.0,0.0,0.0,0.0,0.0,0.0,0.0,0.0,0.0,0.0,0.0,0.0,0.0,0.0,0.0,0.0,0.0,0.0,0.0,0.0,0.0,0.0,0.0,0.0,0.0,0.0,0.0,0.0,0.0,0.0,0.0,0.0,0.0,0.0,0.0,0.0,0.0,0.0,0.0,0.0,0.0,0.0,0.0,0.0,0.0,0.0,0.0,0.0,0.0,0.0,0.0,0.0,0.0,0.0,0.0,0.0,0.0,0.0,0.0,0.0,0.0,0.0,0.0,0.0,0.0,0.0,0.0,0.0,0.0,0.0,0.0,0.0,0.0,0.0,0.0,0.0,0.0,0.0,0.0,0.0,0.0,0.0,0.0,0.0,0.0,0.0,0.0,0.0,0.0,0.0,0.0,0.0,0.0,0.0,0.0,0.0,0.0,0.0,0.0,0.0,3.1492,3.3952,3.3942,0.0,3.1797,0.0,0.0,0.0,0.0,0.0,0.0,0.0,0.0,0.0,0.0,0.0,0.0,0.0,0.0,0.0,0.0,0.0,0.0,0.0,0.0,0.0,0.0,0.0,0.0,0.0,0.0,0.0,0.0,0.0,0.0,0.0,0.0,0.0,0.0,0.0,0.0,0.0,0.0,0.0,0.0,0.0,0.0,0.0,0.0,0.0,0.0,0.0,0.0,0.0,0.0,0.0,0.0,0.0,0.0,0.0,0.0,0.0,0.0,0.0,0.0,0.0,0.0,0.0,0.0,0.0,0.0,0.0,0.0,0.0,0.0,0.0,0.0,0.0,0.0,0.0,0.0,0.0,0.0,0.0,0.0,0.0,0.0,0.0,0.0,0.0,0.0,0.0,0.0,0.0,0.0,0.0,0.0,0.0,0.0,0.0,0.0,0.0,0.0,0.0,0.0,0.0,0.0,0.0,0.0,0.0,0.0,0.0,0.0,0.0,0.0,3.1715,3.4407,3.3587,3.21,0.0,0.0,0.0,0.0,0.0,0.0,0.0,0.0,0.0,0.0,0.0,0.0,0.0,0.0,0.0,0.0,0.0,0.0,0.0,0.0,0.0,0.0,0.0,0.0,0.0,0.0,0.0,0.0,0.0,0.0,0.0,0.0,0.0,0.0,0.0,0.0,0.0,0.0,0.0,0.0,0.0,0.0,0.0,0.0,0.0,0.0,0.0,0.0,0.0,0.0,0.0,0.0,0.0,0.0,0.0,0.0,0.0,0.0,0.0,0.0,0.0,0.0,0.0,0.0,0.0,0.0,0.0,0.0,0.0,0.0,0.0,0.0,0.0,0.0,0.0,0.0,0.0,0.0,0.0,0.0,0.0,0.0,0.0,0.0,0.0,0.0,0.0,0.0,0.0,0.0,0.0,0.0,0.0,0.0,0.0,0.0,0.0,0.0,0.0,0.0,0.0,0.0,0.0,0.0,0.0,0.0,0.0,0.0,0.0,0.0,3.146,3.2405,3.4904,3.3005,3.1055,2.9414,0.0,0.0,0.0,0.0,0.0,0.0,0.0,0.0,0.0,0.0,0.0,0.0,0.0,0.0,0.0,0.0,0.0,0.0,0.0,0.0,0.0,0.0,0.0,0.0,0.0,0.0,0.0,0.0,0.0,0.0,0.0,0.0,0.0,0.0,0.0,0.0,0.0,0.0,0.0,0.0,0.0,0.0,0.0,0.0,0.0,0.0,0.0,0.0,0.0,0.0,0.0,0.0,0.0,0.0,0.0,0.0,0.0,0.0,0.0,0.0,0.0,0.0,0.0,0.0,0.0,0.0,0.0,0.0,0.0,0.0,0.0,0.0,0.0,0.0,0.0,0.0,0.0,0.0,0.0,0.0,0.0,0.0,0.0,0.0,0.0,0.0,0.0,0.0,0.0,0.0,0.0,0.0,0.0,0.0,0.0,0.0,0.0,0.0,0.0,0.0,0.0,0.0,0.0,0.0,0.0,0.0,0.0,0.0,3.6006,3.3981,3.4088,3.6625,3.3031,3.1289,0.0,0.0,0.0,0.0,0.0,0.0,0.0,0.0,0.0,0.0,0.0,0.0,0.0,0.0,0.0,0.0,0.0,0.0,0.0,0.0,0.0,0.0,0.0,0.0,0.0,0.0,0.0,0.0,0.0,0.0,0.0,0.0,0.0,0.0,0.0,0.0,0.0,0.0,0.0,0.0,0.0,0.0,0.0,0.0,0.0,0.0,0.0,0.0,0.0,0.0,0.0,0.0,0.0,0.0,0.0,0.0,0.0,0.0,0.0,0.0,0.0,0.0,0.0,0.0,0.0,0.0,0.0,0.0,0.0,0.0,0.0,0.0,0.0,0.0,0.0,0.0,0.0,0.0,0.0,0.0,0.0,0.0,0.0,0.0,0.0,0.0,0.0,0.0,0.0,0.0,0.0,0.0,0.0,0.0,0.0,0.0,0.0,0.0,0.0,0.0,0.0,0.0,0.0,0.0,0.0,0.0,0.0,0.0,0.0,3.2594,3.353,3.4426,3.5281,3.3502,3.2148,0.0,0.0,0.0,0.0,0.0,0.0,0.0,0.0,0.0,0.0,0.0,0.0,0.0,0.0,0.0,0.0,0.0,0.0,0.0,0.0,0.0,0.0,0.0,0.0,0.0,0.0,0.0,0.0,0.0,0.0,0.0,0.0,0.0,0.0,0.0,0.0,0.0,0.0,0.0,0.0,0.0,0.0,0.0,0.0,0.0,0.0,0.0,0.0,0.0,0.0,0.0,0.0,0.0,0.0,0.0,0.0,0.0,0.0,0.0,0.0,0.0,0.0,0.0,0.0,0.0,0.0,0.0,0.0,0.0,0.0,0.0,0.0,0.0,0.0,0.0,0.0,0.0,0.0,0.0,0.0,0.0,0.0,0.0,0.0,0.0,0.0,0.0,0.0,0.0,0.0,0.0,0.0,0.0,0.0,0.0,0.0,0.0,0.0,0.0,0.0,0.0,0.0,0.0,0.0,0.0,0.0,0.0,0.0,0.0,3.1758,0.0,3.5098,3.4484,3.3481,3.2005,0.0,0.0,0.0,0.0,0.0,0.0,0.0,0.0,0.0,0.0,0.0,0.0,0.0,0.0,0.0,0.0,0.0,0.0,0.0,0.0,0.0,0.0,0.0,0.0,0.0,0.0,0.0,0.0,0.0,0.0,0.0,0.0,0.0,0.0,0.0,0.0,0.0,0.0,0.0,0.0,0.0,0.0,0.0,0.0,0.0,0.0,0.0,0.0,0.0,0.0,0.0,0.0,0.0,0.0,0.0,0.0,0.0,0.0,0.0,0.0,0.0,0.0,0.0,0.0,0.0,0.0,0.0,0.0,0.0,0.0,0.0,0.0,0.0,0.0,0.0,0.0,0.0,0.0,0.0,0.0,0.0,0.0,0.0,0.0,0.0,0.0,0.0,0.0,0.0,0.0,0.0,0.0,0.0,0.0,0.0,0.0,0.0,0.0,0.0,0.0,0.0,0.0,0.0,0.0,0.0,0.0,0.0,0.0,3.0113,3.4257,3.5927,3.5984,3.4576,3.2809,3.0763,0.0,0.0,0.0,0.0,0.0,0.0,0.0,0.0,0.0,0.0,0.0,0.0,0.0,0.0,0.0,0.0,0.0,0.0,0.0,0.0,0.0,0.0,0.0,0.0,0.0,0.0,0.0,0.0,0.0,0.0,0.0,0.0,0.0,0.0,0.0,0.0,0.0,0.0,0.0,0.0,0.0,0.0,0.0,0.0,0.0,0.0,0.0,0.0,0.0,0.0,0.0,0.0,0.0,0.0,0.0,0.0,0.0,0.0,0.0,0.0,0.0,0.0,0.0,0.0,0.0,0.0,0.0,0.0,0.0,0.0,0.0,0.0,0.0,0.0,0.0,0.0,0.0,0.0,0.0,0.0,0.0,0.0,0.0,0.0,0.0,0.0,0.0,0.0,0.0,0.0,0.0,0.0,0.0,0.0,0.0,0.0,0.0,0.0,0.0,0.0,0.0,0.0,0.0,0.0,0.0,0.0,0.0,0.0,0.0,3.2702,3.2775,3.4194,3.6786,3.2093,3.0424,0.0,0.0,0.0,0.0,0.0,0.0,0.0,0.0,0.0,0.0,0.0,0.0,0.0,0.0,0.0,0.0,0.0,0.0,0.0,0.0,0.0,0.0,0.0,0.0,0.0,0.0,0.0,0.0,0.0,0.0,0.0,0.0,0.0,0.0,0.0,0.0,0.0,0.0,0.0,0.0,0.0,0.0,0.0,0.0,0.0,0.0,0.0,0.0,0.0,0.0,0.0,0.0,0.0,0.0,0.0,0.0,0.0,0.0,0.0,0.0,0.0,0.0,0.0,0.0,0.0,0.0,0.0,0.0,0.0,0.0,0.0,0.0,0.0,0.0,0.0,0.0,0.0,0.0,0.0,0.0,0.0,0.0,0.0,0.0,0.0,0.0,0.0,0.0,0.0,0.0,0.0,0.0,0.0,0.0,0.0,0.0,0.0,0.0,0.0,0.0,0.0,0.0,0.0,0.0,0.0,0.0,0.0,0.0,0.0,3.1561,3.203,3.3285,3.5408,3.1988,3.0609,3.1523,0.0,0.0,0.0,0.0,0.0,0.0,0.0,0.0,0.0,0.0,0.0,0.0,0.0,0.0,0.0,0.0,0.0,0.0,0.0,0.0,0.0,0.0,0.0,0.0,0.0,0.0,0.0,0.0,0.0,0.0,0.0,0.0,0.0,0.0,0.0,0.0,0.0,0.0,0.0,0.0,0.0,0.0,0.0,0.0,0.0,0.0,0.0,0.0,0.0,0.0,0.0,0.0,0.0,0.0,0.0,0.0,0.0,0.0,0.0,0.0,0.0,0.0,0.0,0.0,0.0,0.0,0.0,0.0,0.0,0.0,0.0,0.0,0.0,0.0,0.0,0.0,0.0,0.0,0.0,0.0,0.0,0.0,0.0,0.0,0.0,0.0,0.0,0.0,0.0,0.0,0.0,0.0,0.0,0.0,0.0,0.0,0.0,0.0,0.0,0.0,0.0,0.0,0.0,0.0,0.0,0.0,0.0,0.0,3.0813,3.3333,3.3549,3.1325,3.2266,3.1158,0.0,0.0,0.0,0.0,0.0,0.0,0.0,0.0,0.0,0.0,0.0,0.0,0.0,0.0,0.0,0.0,0.0,0.0,0.0,0.0,0.0,0.0,0.0,0.0,0.0,0.0,0.0,0.0,0.0,0.0,0.0,0.0,0.0,0.0,0.0,0.0,0.0,0.0,0.0,0.0,0.0,0.0,0.0,0.0,0.0,0.0,0.0,0.0,0.0,0.0,0.0,0.0,0.0,0.0,0.0,0.0,0.0,0.0,0.0,0.0,0.0,0.0,0.0,0.0,0.0,0.0,0.0,0.0,0.0,0.0,0.0,0.0,0.0,0.0,0.0,0.0,0.0,0.0,0.0,0.0,0.0,0.0,0.0,0.0,0.0,0.0,0.0,0.0,0.0,0.0,0.0,0.0,0.0,0.0,0.0,0.0,0.0,0.0,0.0,0.0,0.0,0.0,0.0,0.0,0.0,0.0,0.0,0.0,0.0,3.096,3.3961,3.5576,3.5339,3.164,3.051,0.0,0.0,0.0,0.0,0.0,0.0,0.0,0.0,0.0,0.0,0.0,0.0,0.0,0.0,0.0,0.0,0.0,0.0,0.0,0.0,0.0,0.0,0.0,0.0,0.0,0.0,0.0,0.0,0.0,0.0,0.0,0.0,0.0,0.0,0.0,0.0,0.0,0.0,0.0,0.0,0.0,0.0,0.0,0.0,0.0,0.0,0.0,0.0,0.0,0.0,0.0,0.0,0.0,0.0,0.0,0.0,0.0,0.0,0.0,0.0,0.0,0.0,0.0,0.0,0.0,0.0,0.0,0.0,0.0,0.0,0.0,0.0,0.0,0.0,0.0,0.0,0.0,0.0,0.0,0.0,0.0,0.0,0.0,0.0,0.0,0.0,0.0,0.0,0.0,0.0,0.0,0.0,0.0,0.0,0.0,0.0,0.0,0.0,0.0,0.0,0.0,0.0,0.0,0.0,0.0,0.0,0.0,0.0,3.2046,3.2366,3.4722,3.6516,3.7683,3.4426,3.2354,0.0,0.0,0.0,0.0,0.0,0.0,0.0,0.0,0.0,0.0,0.0,0.0,0.0,0.0,0.0,0.0,0.0,0.0,0.0,0.0,0.0,0.0,0.0,0.0,0.0,0.0,0.0,0.0,0.0,0.0,0.0,0.0,0.0,0.0,0.0,0.0,0.0,0.0,0.0,0.0,0.0,0.0,0.0,0.0,0.0,0.0,0.0,0.0,0.0,0.0,0.0,0.0,0.0,0.0,0.0,0.0,0.0,0.0,0.0,0.0,0.0,0.0,0.0,0.0,0.0,0.0,0.0,0.0,0.0,0.0,0.0,0.0,0.0,0.0,0.0,0.0,0.0,0.0,0.0,0.0,0.0,0.0,0.0,0.0,0.0,0.0,0.0,0.0,0.0,0.0,0.0,0.0,0.0,0.0,0.0,0.0,0.0,0.0,0.0,0.0,0.0,0.0,0.0,0.0,0.0,0.0,0.0,0.0,3.2822,3.4462,3.568,3.7033,3.8508,3.8346,3.5265,0.0,0.0,0.0,0.0,0.0,0.0,0.0,0.0,0.0,0.0,0.0,0.0,0.0,0.0,0.0,0.0,0.0,0.0,0.0,0.0,0.0,0.0,0.0,0.0,0.0,0.0,0.0,0.0,0.0,0.0,0.0,0.0,0.0,0.0,0.0,0.0,0.0,0.0,0.0,0.0,0.0,0.0,0.0,0.0,0.0,0.0,0.0,0.0,0.0,0.0,0.0,0.0,0.0,0.0,0.0,0.0,0.0,0.0,0.0,0.0,0.0,0.0,0.0,0.0,0.0,0.0,0.0,0.0,0.0,0.0,0.0,0.0,0.0,0.0,0.0,0.0,0.0,0.0,0.0,0.0,0.0,0.0,0.0,0.0,0.0,0.0,0.0,0.0,0.0,0.0,0.0,0.0,0.0,0.0,0.0,0.0,0.0,0.0,0.0,0.0,0.0,0.0,0.0,0.0,0.0,0.0,0.0,0.0,3.3392,3.451,3.7429,3.8866,3.8595,3.6597,3.453,0.0,0.0,0.0,0.0,0.0,0.0,0.0,0.0,0.0,0.0,0.0,0.0,0.0,0.0,0.0,0.0,0.0,0.0,0.0,0.0,0.0,0.0,0.0,0.0,0.0,0.0,0.0,0.0,0.0,0.0,0.0,0.0,0.0,0.0,0.0,0.0,0.0,0.0,0.0,0.0,0.0,0.0,0.0,0.0,0.0,0.0,0.0,0.0,2.5351,0.0,0.0,0.0,0.0,0.0,0.0,0.0,0.0,0.0,0.0,0.0,0.0,0.0,0.0,0.0,0.0,0.0,0.0,0.0,0.0,0.0,0.0,0.0,0.0,0.0,0.0,0.0,0.0,0.0,0.0,0.0,0.0,0.0,0.0,0.0,0.0,0.0,0.0,0.0,0.0,0.0,0.0,0.0,0.0,0.0,0.0,0.0,0.0,0.0,0.0,0.0,0.0,0.0,0.0,0.0,0.0,0.0,0.0,0.0,3.4962,3.6333,3.8595,3.9793,3.9686,3.726,3.4941,0.0,0.0,0.0,0.0,0.0,0.0,0.0,0.0,0.0,0.0,0.0,0.0,0.0,0.0,0.0,0.0,0.0,0.0,0.0,0.0,0.0,0.0,0.0,0.0,0.0,0.0,0.0,0.0,0.0,0.0,0.0,0.0,0.0,0.0,0.0,0.0,0.0,0.0,0.0,0.0,0.0,0.0,0.0,0.0,0.0,0.0,0.0,0.0,0.0,0.0,0.0,0.0,0.0,0.0,0.0,0.0,0.0,0.0,0.0,0.0,0.0,0.0,0.0,0.0,0.0,0.0,0.0,0.0,0.0,0.0,0.0,0.0,0.0,0.0,0.0,0.0,0.0,0.0,0.0,0.0,0.0,0.0,0.0,0.0,0.0,0.0,0.0,0.0,0.0,0.0,0.0,0.0,0.0,0.0,0.0,0.0,0.0,0.0,0.0,0.0,0.0,0.0,0.0,0.0,0.0,0.0,0.0,3.4391,3.647,3.8344,3.9443,4.0294,4.0854,3.8563,3.57,3.2344,0.0,0.0,0.0,0.0,0.0,0.0,0.0,0.0,0.0,0.0,0.0,0.0,0.0,0.0,0.0,0.0,0.0,0.0,0.0,0.0,0.0,0.0,0.0,0.0,0.0,0.0,0.0,0.0,0.0,0.0,0.0,0.0,0.0,0.0,0.0,0.0,0.0,0.0,2.5332,2.5522,0.0,0.0,0.0,0.0,0.0,0.0,0.0,0.0,2.5919,0.0,0.0,0.0,0.0,0.0,0.0,0.0,0.0,0.0,0.0,0.0,0.0,0.0,0.0,0.0,0.0,0.0,0.0,0.0,0.0,0.0,0.0,0.0,0.0,0.0,0.0,0.0,0.0,0.0,0.0,0.0,0.0,0.0,0.0,0.0,0.0,0.0,0.0,0.0,0.0,0.0,0.0,0.0,0.0,0.0,0.0,0.0,0.0,0.0,0.0,0.0,0.0,0.0,0.0,0.0,0.0,3.3823,3.4468,3.5939,3.8364,4.0033,4.0625,4.0073,3.829,3.57,3.2383,0.0,0.0,0.0,0.0,0.0,0.0,0.0,0.0,0.0,0.0,0.0,0.0,0.0,0.0,0.0,0.0,0.0,0.0,0.0,0.0,0.0,0.0,0.0,0.0,0.0,0.0,0.0,0.0,0.0,0.0,0.0,0.0,0.0,0.0,0.0,0.0,0.0,0.0,0.0,2.6071,2.6321,0.0,0.0,0.0,0.0,0.0,0.0,0.0,0.0,2.5543,0.0,0.0,0.0,0.0,0.0,0.0,0.0,0.0,0.0,0.0,0.0,0.0,0.0,0.0,0.0,0.0,0.0,0.0,0.0,0.0,0.0,0.0,0.0,0.0,0.0,0.0,0.0,0.0,0.0,0.0,0.0,0.0,0.0,0.0,0.0,0.0,0.0,0.0,0.0,0.0,0.0,0.0,0.0,0.0,0.0,0.0,0.0,0.0,0.0,0.0,0.0,0.0,0.0,0.0,0.0,3.4243,3.5795,3.7366,3.9098,4.0423,4.0719,3.9878,3.7331,3.4958,0.0,0.0,0.0,0.0,0.0,0.0,0.0,0.0,0.0,0.0,0.0,0.0,0.0,0.0,0.0,0.0,0.0,0.0,0.0,0.0,0.0,0.0,0.0,0.0,0.0,0.0,0.0,0.0,0.0,0.0,0.0,0.0,0.0,0.0,0.0,0.0,0.0,0.0,0.0,0.0,2.5794,2.5975,2.5684,0.0,0.0,0.0,0.0,0.0,0.0,2.538,2.537,0.0,0.0,0.0,0.0,0.0,0.0,0.0,0.0,0.0,0.0,0.0,0.0,0.0,0.0,0.0,0.0,0.0,0.0,0.0,0.0,0.0,0.0,0.0,0.0,0.0,0.0,0.0,0.0,0.0,0.0,0.0,0.0,0.0,0.0,0.0,0.0,0.0,0.0,0.0,0.0,0.0,0.0,0.0,0.0,0.0,0.0,0.0,0.0,0.0,0.0,0.0,0.0,0.0,0.0,0.0,3.4389,3.6823,3.8602,3.974,4.0647,4.0617,3.9624,3.694,3.4763,0.0,0.0,0.0,0.0,0.0,0.0,0.0,0.0,0.0,0.0,0.0,0.0,0.0,0.0,0.0,0.0,0.0,0.0,0.0,0.0,0.0,0.0,0.0,0.0,0.0,0.0,0.0,0.0,0.0,0.0,0.0,0.0,0.0,0.0,0.0,0.0,0.0,0.0,0.0,0.0,0.0,2.5696,2.5599,2.5582,0.0,0.0,0.0,0.0,2.5415,2.5418,0.0,0.0,0.0,0.0,0.0,0.0,0.0,0.0,0.0,0.0,0.0,0.0,0.0,0.0,0.0,0.0,0.0,0.0,0.0,0.0,0.0,0.0,0.0,0.0,0.0,0.0,0.0,0.0,0.0,0.0,0.0,0.0,0.0,0.0,0.0,0.0,0.0,0.0,0.0,0.0,0.0,0.0,0.0,0.0,0.0,0.0,0.0,0.0,0.0,0.0,0.0,0.0,0.0,0.0,0.0,0.0,3.4341,3.628,3.803,3.9643,4.0635,4.0355,3.8801,3.8348,3.6305,0.0,0.0,0.0,0.0,0.0,0.0,0.0,0.0,0.0,0.0,0.0,0.0,0.0,0.0,0.0,0.0,0.0,0.0,0.0,0.0,0.0,0.0,0.0,0.0,0.0,0.0,0.0,0.0,0.0,0.0,0.0,0.0,0.0,0.0,0.0,0.0,0.0,0.0,0.0,0.0,0.0,2.6227,2.5596,2.557,2.5614,0.0,0.0,0.0,2.5499,2.5483,0.0,0.0,0.0,0.0,0.0,0.0,0.0,0.0,0.0,0.0,0.0,0.0,0.0,0.0,0.0,0.0,0.0,0.0,0.0,0.0,0.0,0.0,0.0,0.0,0.0,0.0,0.0,0.0,0.0,0.0,0.0,0.0,0.0,0.0,0.0,0.0,0.0,0.0,0.0,0.0,0.0,0.0,0.0,0.0,0.0,0.0,0.0,0.0,0.0,0.0,0.0,0.0,0.0,0.0,0.0,3.2982,3.5074,3.6871,3.8624,4.0381,4.0857,4.0316,3.8626,3.7175,3.529,0.0,0.0,0.0,0.0,0.0,0.0,0.0,0.0,0.0,0.0,0.0,0.0,0.0,0.0,0.0,0.0,0.0,0.0,0.0,0.0,0.0,0.0,0.0,0.0,0.0,0.0,0.0,0.0,0.0,0.0,0.0,0.0,0.0,0.0,0.0,0.0,0.0,0.0,0.0,0.0,0.0,0.0,2.5471,2.551,0.0,0.0,0.0,2.6496,2.6972,0.0,0.0,0.0,0.0,0.0,0.0,0.0,0.0,0.0,0.0,0.0,0.0,0.0,0.0,0.0,0.0,0.0,0.0,0.0,0.0,0.0,0.0,0.0,0.0,0.0,0.0,0.0,0.0,0.0,0.0,0.0,0.0,0.0,0.0,0.0,0.0,0.0,0.0,0.0,0.0,0.0,0.0,0.0,0.0,0.0,0.0,0.0,0.0,0.0,0.0,0.0,0.0,0.0,0.0,0.0,0.0,0.0,3.5593,3.7355,3.915,4.0898,4.1046,4.0287,3.86,3.6684,0.0,0.0,0.0,0.0,0.0,0.0,0.0,0.0,0.0,0.0,0.0,0.0,0.0,0.0,0.0,0.0,0.0,0.0,0.0,0.0,0.0,0.0,0.0,0.0,0.0,0.0,0.0,2.5566,0.0,0.0,0.0,0.0,0.0,0.0,0.0,0.0,0.0,0.0,0.0,0.0,0.0,0.0,2.5779,2.5994,2.6091,2.6384,0.0,0.0,2.7437,2.8104,2.742,2.7045,0.0,0.0,0.0,0.0,0.0,0.0,0.0,0.0,0.0,0.0,0.0,0.0,0.0,0.0,0.0,0.0,0.0,0.0,0.0,0.0,0.0,0.0,0.0,0.0,0.0,0.0,0.0,0.0,0.0,0.0,0.0,0.0,0.0,0.0,0.0,0.0,0.0,0.0,0.0,0.0,0.0,0.0,0.0,0.0,0.0,0.0,0.0,0.0,0.0,0.0,0.0,0.0,0.0,0.0,0.0,3.5593,3.7323,3.9073,4.0832,4.0974,4.0207,3.8575,3.8397,3.6755,0.0,0.0,0.0,0.0,0.0,0.0,0.0,0.0,0.0,0.0,0.0,0.0,0.0,0.0,0.0,0.0,0.0,0.0,0.0,0.0,0.0,0.0,0.0,0.0,0.0,0.0,0.0,0.0,0.0,0.0,0.0,0.0,0.0,0.0,0.0,0.0,0.0,0.0,0.0,0.0,0.0,2.6795,2.7615,2.7798,2.7862,0.0,0.0,2.8062,2.8188,2.7469,2.6898,2.6909,0.0,0.0,0.0,0.0,0.0,0.0,0.0,0.0,0.0,0.0,0.0,0.0,0.0,0.0,0.0,0.0,0.0,0.0,0.0,0.0,0.0,0.0,0.0,0.0,0.0,0.0,0.0,0.0,0.0,0.0,0.0,0.0,0.0,0.0,0.0,0.0,0.0,0.0,0.0,0.0,0.0,0.0,0.0,0.0,0.0,0.0,0.0,0.0,0.0,0.0,0.0,0.0,0.0,3.3853,3.5604,3.734,3.9073,4.0793,4.0974,4.046,3.934,3.8322,3.6423,0.0,0.0,0.0,0.0,0.0,0.0,0.0,0.0,0.0,0.0,0.0,0.0,0.0,0.0,0.0,0.0,0.0,0.0,0.0,0.0,0.0,0.0,0.0,0.0,0.0,0.0,0.0,0.0,2.5522,2.5505,2.5546,0.0,0.0,0.0,0.0,0.0,0.0,0.0,0.0,0.0,0.0,2.7508,2.7846,2.7933,0.0,0.0,2.889,2.9124,2.9716,2.8606,2.7881,2.8372,2.7312,0.0,0.0,0.0,0.0,0.0,0.0,0.0,0.0,0.0,0.0,0.0,0.0,0.0,0.0,0.0,0.0,0.0,0.0,0.0,0.0,0.0,0.0,0.0,0.0,0.0,0.0,0.0,0.0,0.0,0.0,0.0,0.0,0.0,0.0,0.0,0.0,0.0,0.0,0.0,0.0,0.0,0.0,0.0,0.0,0.0,0.0,0.0,0.0,0.0,0.0,0.0,0.0,3.3936,3.5926,3.7433,3.9199,4.1241,4.1103,4.0733,4.0188,3.8553,3.6459,0.0,0.0,0.0,0.0,0.0,0.0,0.0,0.0,0.0,0.0,0.0,0.0,0.0,0.0,0.0,0.0,0.0,0.0,0.0,0.0,0.0,0.0,0.0,0.0,0.0,0.0,0.0,0.0,2.5522,2.5511,2.5504,0.0,0.0,0.0,0.0,0.0,0.0,0.0,0.0,0.0,0.0,2.8364,2.8604,2.8645,2.8887,2.9622,2.9736,2.999,3.0659,2.9542,2.8781,2.9374,0.0,0.0,0.0,0.0,0.0,0.0,0.0,0.0,0.0,0.0,0.0,0.0,0.0,0.0,0.0,0.0,0.0,0.0,0.0,0.0,0.0,0.0,0.0,0.0,0.0,0.0,0.0,0.0,0.0,0.0,0.0,0.0,0.0,0.0,0.0,0.0,0.0,0.0,0.0,0.0,0.0,0.0,0.0,0.0,0.0,0.0,0.0,0.0,0.0,0.0,0.0,0.0,0.0,0.0,3.673,3.773,3.9489,4.203,4.14,4.1058,4.1027,3.9442,3.7331,3.4687,0.0,0.0,0.0,0.0,0.0,0.0,0.0,0.0,0.0,0.0,0.0,0.0,0.0,0.0,0.0,0.0,0.0,0.0,0.0,0.0,0.0,0.0,0.0,0.0,0.0,0.0,2.5505,2.5517,2.5509,0.0,0.0,0.0,0.0,0.0,0.0,0.0,0.0,0.0,0.0,2.9044,2.9371,3.0198,3.0333,3.0317,3.0441,3.0511,3.0595,3.071,3.0007,2.9469,0.0,0.0,0.0,0.0,0.0,0.0,0.0,0.0,0.0,0.0,0.0,0.0,0.0,0.0,0.0,0.0,0.0,0.0,0.0,0.0,0.0,0.0,0.0,0.0,0.0,0.0,0.0,0.0,0.0,0.0,0.0,0.0,0.0,0.0,0.0,0.0,0.0,0.0,0.0,0.0,3.0095,3.0344,0.0,0.0,0.0,0.0,0.0,0.0,0.0,0.0,0.0,0.0,0.0,0.0,3.4199,3.673,3.8266,4.0037,4.212,4.1941,4.1831,4.1871,3.977,3.6843,3.3144,0.0,0.0,0.0,0.0,0.0,0.0,0.0,0.0,0.0,0.0,0.0,0.0,0.0,0.0,0.0,0.0,0.0,0.0,0.0,0.0,0.0,0.0,0.0,0.0,0.0,2.5597,0.0,0.0,0.0,0.0,0.0,0.0,0.0,0.0,0.0,0.0,0.0,2.786,2.8948,2.9602,3.0083,3.034,3.0398,3.0425,0.0,0.0,0.0,0.0,0.0,0.0,0.0,0.0,0.0,0.0,0.0,0.0,0.0,0.0,3.2715,3.1219,3.0935,3.0317,2.8338,0.0,0.0,0.0,0.0,0.0,0.0,0.0,0.0,0.0,0.0,0.0,0.0,0.0,0.0,0.0,0.0,3.2182,0.0,0.0,0.0,0.0,0.0,0.0,0.0,0.0,3.132,3.1378,3.1014,3.1244,3.1347,0.0,3.1291,3.1133,0.0,0.0,0.0,0.0,0.0,0.0,0.0,0.0,3.4807,3.6787,3.8814,4.075,4.2519,4.2354,4.2381,4.2685,3.9754,3.6261,3.2285,3.0254,2.9062,0.0,0.0,0.0,0.0,0.0,0.0,0.0,0.0,0.0,0.0,0.0,0.0,0.0,0.0,0.0,0.0,0.0,0.0,0.0,0.0,0.0,0.0,0.0,2.6081,0.0,0.0,0.0,0.0,0.0,0.0,0.0,0.0,0.0,2.7046,2.7785,2.861,2.9448,3.0063,3.0398,3.0398,0.0,0.0,0.0,0.0,0.0,0.0,0.0,2.9864,2.9834,2.9313,2.8767,2.8379,2.9501,3.04,3.0151,0.0,0.0,3.1138,3.0975,3.0355,2.838,2.8244,2.786,2.5912,2.5774,2.5867,0.0,0.0,0.0,0.0,0.0,0.0,0.0,0.0,3.2987,3.3499,0.0,0.0,0.0,0.0,0.0,0.0,0.0,0.0,0.0,0.0,3.2454,3.2742,3.2009,3.2656,3.299,0.0,3.2894,3.2447,3.166,3.0871,0.0,0.0,0.0,0.0,0.0,0.0,3.5912,3.6897,3.9411,4.1596,4.328,4.2675,4.2677,4.3343,3.9468,3.572,3.2402,3.1387,3.0527,2.9668,2.8848,0.0,0.0,0.0,0.0,0.0,0.0,0.0,0.0,0.0,0.0,0.0,0.0,0.0,0.0,0.0,0.0,0.0,0.0,0.0,0.0,2.7395,0.0,0.0,0.0,0.0,0.0,0.0,0.0,0.0,0.0,0.0,2.7933,2.8582,2.9433,3.0321,0.0,0.0,0.0,0.0,3.0429,3.0498,3.0559,3.0606,3.0601,3.0698,3.0739,3.0623,0.0,0.0,2.9286,2.9848,3.0171,2.9404,3.0028,3.0789,3.1603,3.1673,3.0914,2.8558,2.8572,2.8313,2.6295,2.612,2.6429,3.4199,0.0,0.0,0.0,0.0,3.2557,3.3058,3.3868,3.4501,3.4899,3.5155,3.493,0.0,0.0,0.0,0.0,0.0,0.0,3.2881,3.259,3.3061,3.3083,3.2764,3.2967,3.3051,3.2979,3.2923,3.2487,3.1698,3.1405,3.0963,3.0398,0.0,0.0,0.0,0.0,3.5392,3.7666,4.0236,4.2121,4.3285,4.3765,4.3294,4.1847,3.8876,3.6241,3.4023,3.2535,3.1378,3.0575,3.0292,0.0,0.0,0.0,0.0,0.0,0.0,0.0,0.0,0.0,0.0,0.0,0.0,0.0,0.0,0.0,0.0,0.0,0.0,0.0,2.7382,2.7022,2.709,0.0,0.0,0.0,0.0,0.0,0.0,0.0,0.0,0.0,2.8837,2.8981,2.966,0.0,0.0,3.0641,3.1237,3.0841,3.049,3.0559,0.0,0.0,0.0,3.0732,3.0706,3.0625,3.0513,3.034,3.0071,3.0229,3.0329,3.0141,3.0366,3.049,3.0168,3.0125,2.9634,2.8446,2.7857,2.7185,2.598,2.5795,2.5896,3.7123,3.5353,3.4353,3.4122,3.4391,3.4417,3.4903,3.5744,3.6257,3.6683,3.6966,3.6639,3.608,3.5284,3.3768,0.0,0.0,0.0,3.4335,3.4331,3.4953,3.5194,3.5106,3.4738,3.4549,3.4481,3.3763,3.3173,3.2679,3.1949,3.152,3.1333,0.0,0.0,3.3261,3.469,3.638,3.8447,4.1043,4.2834,4.3772,4.4075,4.3216,4.1148,3.8967,3.6981,3.5273,3.3532,3.2237,3.1407,3.1067,3.1112,0.0,0.0,0.0,0.0,0.0,0.0,0.0,0.0,0.0,0.0,0.0,2.6914,0.0,0.0,0.0,0.0,2.7988,2.7949,2.707,2.785,0.0,0.0,0.0,0.0,0.0,0.0,0.0,2.8887,2.9389,2.9715,2.977,2.9717,3.0085,3.1087,3.0764,3.0621,3.1137,0.0,3.0511,3.0595,3.0668,3.0717,3.0742,3.0734,3.0675,3.0565,3.0483,3.041,3.0398,3.0394,3.0409,3.0451,3.0269,2.9945,2.9484,2.889,2.8279,2.7799,2.7288,2.6641,2.58,2.5629,2.5629,4.0258,3.9392,3.7103,3.6394,3.6794,3.6862,3.7392,3.818,3.82,3.8695,3.9418,3.8513,3.7668,3.6755,3.4522,0.0,0.0,3.5297,3.5988,3.6035,3.7497,3.8202,3.8148,3.729,3.6895,3.6837,3.5205,3.4364,3.4199,3.2603,3.2161,3.2891,3.2877,3.3255,3.415,3.6594,3.832,3.9287,4.1879,4.3651,4.4568,4.3945,4.2872,4.1338,3.9598,3.7897,3.6152,3.4355,3.2985,3.2131,3.1328,3.0907,3.0996,0.0,0.0,0.0,0.0,0.0,0.0,0.0,0.0,0.0,0.0,0.0,0.0,0.0,0.0,0.0,2.8281,0.0,2.7285,2.9375,0.0,0.0,0.0,3.0763,3.0715,2.994,2.9689,3.0433,0.0,0.0,0.0,0.0,3.0585,3.053,3.0511,3.055,3.0597,3.0579,3.0519,3.0593,3.0668,3.0707,3.0704,3.07,3.066,3.0516,3.0448,3.0398,3.039,3.0394,3.0419,3.0491,2.9833,2.928,2.9305,2.8026,2.688,2.6848,2.6798,2.6552,2.5876,2.5704,2.5687,4.2374,4.2143,4.1527,3.9927,3.7767,3.8407,3.9146,3.9887,3.9915,4.0389,4.1112,3.9653,3.8546,3.7752,3.7235,3.7019,3.7061,3.7443,3.7589,3.7583,3.7939,3.8086,3.8028,3.7823,3.772,3.7637,3.6617,3.579,3.5161,3.4054,3.3599,3.3799,3.4136,3.471,3.5522,3.7432,3.9166,4.0691,4.2887,4.453,4.5498,4.4812,4.3969,4.302,4.0735,3.8726,3.7031,3.4682,3.3014,3.2129,3.1328,3.1175,3.1766,3.1229,0.0,0.0,0.0,0.0,0.0,0.0,0.0,0.0,0.0,2.8516,2.7402,0.0,2.666,0.0,2.8281,2.8495,2.8935,2.949,0.0,0.0,3.0618,3.0916,3.1573,3.0855,3.035,3.054,3.0618,3.0661,3.0675,3.0676,3.0678,3.0661,3.062,3.0787,3.1352,3.0961,3.0599,3.0614,3.0697,3.0743,3.069,3.0661,3.0613,3.0511,3.0428,3.0398,3.0398,3.0455,3.0479,3.0452,2.989,2.9206,2.8618,2.7618,2.6729,2.6146,2.598,2.5924,2.572,2.5689,2.5694,4.3624,4.3605,4.3258,4.2008,4.0315,4.0796,4.1245,4.1654,4.1646,4.1925,4.2283,4.0616,3.9422,3.8632,3.8318,3.8138,3.8189,3.8543,3.8717,3.8717,3.9061,3.9187,3.9143,3.8763,3.8594,3.8546,3.7685,3.7051,3.6603,3.6055,3.5752,3.572,3.6255,3.7072,3.8126,3.8836,4.0208,4.2319,4.402,4.5224,4.5808,4.5084,4.4545,4.4121,4.1343,3.9384,3.8457,3.5192,3.333,3.3183,3.1738,3.125,3.1992,3.1325,3.1289,0.0,0.0,0.0,0.0,0.0,0.0,0.0,0.0,0.0,0.0,0.0,2.7676,0.0,0.0,0.0,2.9552,3.0245,3.0717,3.0847,3.1116,3.1324,3.1451,3.1001,3.0685,3.0685,3.0716,3.0736,3.0743,3.0736,3.074,3.0739,3.0716,3.0847,3.1165,3.0901,3.0644,3.0625,3.071,3.0742,3.0711,3.068,3.0623,3.0559,3.0499,3.0452,3.0444,3.0477,3.0519,3.0472,2.9594,2.8702,2.824,2.7177,2.6209,2.5863,2.5705,2.5691,2.5689,2.5691,2.5698,4.447,4.4393,4.372,4.3412,4.3412,4.3412,4.3357,4.3248,4.3261,4.3195,4.2996,4.1559,4.0485,3.9745,3.9042,3.8728,3.8786,3.9527,3.9868,3.9926,4.0611,4.0866,4.0737,3.9985,3.955,3.9411,3.8577,3.8155,3.8127,3.7974,3.7843,3.7736,3.8462,3.9509,4.075,4.0506,4.1556,4.39,4.5093,4.5709,4.5766,4.5179,4.4811,4.4606,4.1617,3.9887,3.9647,3.5762,3.3885,3.4478,3.2443,3.1465,3.1953,3.1384,3.1348,0.0,3.2031,0.0,0.0,0.0,0.0,0.0,0.0,0.0,0.0,3.0156,2.9414,2.8535,2.9258,2.9764,2.9745,3.1075,3.1638,3.0905,3.1474,3.1624,3.0903,3.0782,3.0802,3.0789,3.0789,3.0793,3.0806,3.081,3.0813,3.0827,3.0817,3.0793,3.0728,3.0736,3.071,3.0704,3.0697,3.0722,3.0717,3.0707,3.066,3.0607,3.0549,3.0507,3.0479,3.049,3.053,3.0451,2.9249,2.8191,2.8179,2.6856,2.5765,2.5693,2.5697,2.5703,2.5697,2.5696,2.5701,4.5336,4.5355,4.5182,4.5124,4.5124,4.5124,4.4722,4.407,4.4068,4.3701,4.3082,4.2758,4.2527,4.239,4.2217,4.2159,4.2159,4.2302,4.2414,4.2402,4.2563,4.2236,4.1574,4.1405,4.0962,4.0239,3.9454,3.9039,3.8946,3.8246,3.7846,3.7808,3.8988,4.0042,0.0,0.0,0.0,0.0,4.5549,4.5731,4.5712,4.5743,4.5113,4.3782,4.1879,0.0,3.8829,3.6013,3.4512,3.4628,3.3545,0.0,0.0,0.0,0.0,0.0,0.0,0.0,0.0,0.0,0.0,0.0,3.1855,3.1348,3.0019,3.0332,3.0293,2.9473,3.0156,3.0622,3.0573,3.0833,3.0972,3.084,3.0969,3.0989,3.0817,3.0794,3.0798,3.0801,3.0801,3.0824,3.0872,3.0875,3.0894,3.0897,3.0836,3.0794,3.0785,3.0782,3.0789,3.0789,3.0779,3.0774,3.0789,3.0737,3.0673,3.0625,3.0569,3.0569,3.0519,3.05,3.0511,3.0548,2.923,2.8152,2.8168,2.6852,2.5752,2.5703,2.5703,2.5697,2.5703,2.5702,2.5696,4.5586,0.0,4.5586,4.5586,0.0,0.0,4.5336,4.4934,4.4951,4.447,4.3701,4.3701,4.3489,4.3085,4.3085,4.3085,4.3085,4.3082,4.3099,4.3082,4.3085,4.2857,4.247,4.2441,4.1979,4.1143,4.0719,4.03,3.9868,3.9799,3.9706,3.9591,4.0654,4.1565,4.2341,4.3741,4.4798,4.5528,4.5661,4.5712,4.5742,4.5912,4.5405,4.4199,0.0,0.0,0.0,0.0,0.0,0.0,0.0,0.0,0.0,0.0,0.0,3.2129,3.1758,3.1543,3.1543,3.1562,3.1543,3.1543,3.1562,3.1367,3.0898,3.0897,3.0896,3.0859,3.1248,3.1667,3.203,3.1714,3.1441,3.1422,3.1042,3.0794,3.0788,3.0788,3.0791,3.0794,3.0794,3.0816,3.0897,3.0919,3.0921,3.0907,3.0868,3.0868,3.0847,3.0813,3.0794,3.0786,3.0802,3.0793,3.0799,3.0755,3.0703,3.0657,3.0634,3.0588,3.055,3.055,3.0578,3.0543,2.9589,2.8662,2.8165,2.7168,2.6222,2.5826,2.5703,2.5707,2.5689,2.5691,2.5693,4.5586,4.5586,4.5586,4.5586,4.5586,4.5586,4.5586,4.5586,0.0,0.0,0.0,4.4545,4.416,4.3528,4.3528,4.3528,4.3528,4.353,4.3549,4.3547,4.353,4.3455,4.3305,4.3313,4.2864,4.2066,4.204,4.1662,4.0982,4.1583,4.1797,4.1701,4.2412,4.3197,4.3961,4.4843,4.5361,4.549,4.5624,4.5709,4.5791,4.5919,4.5561,4.4649,4.3181,4.1607,3.9922,3.7519,3.6211,3.6113,3.4687,3.4082,3.4531,3.3359,3.2793,3.3125,3.2578,3.2129,3.1992,3.1973,3.1738,3.1172,3.1113,3.1426,3.2148,3.1535,3.1452,3.2245,3.2315,3.2628,3.3321,3.2606,3.2094,3.2073,3.1305,3.0785,3.0788,3.0796,3.0799,3.0799,3.0799,3.0841,3.0899,3.0923,3.0907,3.0913,3.0895,3.0913,3.0911,3.086,3.0807,3.0837,3.082,3.0794,3.0784,3.0767,3.0711,3.069,3.064,3.0598,3.0617,3.0598,3.0634,3.0684,2.9985,2.9146,2.8355,2.7514,2.6737,2.5886,2.5703,2.5701,2.5701,2.5698,2.5691,4.5586,4.5586,4.5586,4.5586,4.5586,4.5586,4.5586,4.5586,4.5586,4.5509,4.5413,4.5413,4.5336,4.5259,4.524,4.524,4.524,4.524,4.524,0.0,4.524,4.4857,4.4147,4.4126,4.3703,4.297,4.2912,4.2802,4.2581,4.2603,4.2585,4.2545,4.3224,4.4045,4.4862,4.517,4.5342,4.5432,4.5586,4.5717,4.5706,4.5841,4.5161,4.3675,4.2861,4.1589,3.9844,3.8086,3.7109,3.709,3.6152,3.5351,3.4726,3.4453,3.3769,3.25,3.2266,3.1875,3.1152,3.1074,3.1348,3.1934,3.2031,3.207,3.2187,3.2041,3.2302,3.3112,3.3222,3.3255,3.3348,3.2667,3.2172,3.2016,3.1286,3.0813,3.0806,3.0785,3.0794,3.0799,3.0841,3.0877,3.0899,3.0912,3.0897,3.0898,3.0917,3.0912,3.0907,3.088,3.0877,3.0875,3.0838,3.0804,3.0793,3.0799,3.0748,3.0697,3.064,3.0617,3.0617,3.0616,3.0632,3.0692,3.005,2.921,2.8374,2.7552,2.6753,2.5956,2.5698,2.5703,2.5704,2.569,2.569,4.6297,4.624,4.5797,4.5586,4.5586,4.5586,4.5586,4.5586,4.5586,4.5586,4.5586,4.5586,4.5586,4.5586,4.5586,4.5586,4.5586,4.5586,4.5586,4.5586,4.5586,4.5393,4.503,4.501,4.4566,4.3778,4.3747,4.3462,4.2984,4.3274,4.3386,4.3323,4.403,4.4626,4.5071,4.5208,4.5301,4.5417,4.553,4.5637,4.5754,4.5848,4.5334,4.42,4.3436,4.2245,4.0558,3.9355,3.8281,3.7344,3.6914,3.6309,3.5469,3.4961,3.4336,3.3613,3.3105,3.2676,3.2285,3.2246,3.2422,3.2812,3.2871,3.3066,3.3516,3.3081,3.3168,3.4003,3.4098,3.4273,3.4679,3.3971,3.3258,3.2752,3.1946,3.1276,3.0886,3.0786,3.0801,3.0791,3.083,3.0852,3.0838,3.0849,3.0857,3.0898,3.0918,3.0918,3.0918,3.0911,3.0905,3.0919,3.088,3.0849,3.0806,3.0789,3.0764,3.071,3.0657,3.0607,3.0617,3.0606,3.0629,3.0695,3.0335,2.9654,2.8548,2.7975,2.7168,2.5992,2.5691,2.5696,2.5697,2.5679,2.5643,4.7182,4.7086,4.6259,4.5778,4.5586,4.5586,4.5586,4.5586,4.5586,4.5586,4.5586,4.5586,4.5586,4.5586,4.5586,4.5586,4.5586,4.5586,4.5586,4.5586,4.5586,4.5586,4.5586,4.5586,4.522,4.4645,4.4594,4.4173,4.3599,4.4038,4.4181,4.411,4.4602,4.4943,4.5038,4.5148,4.5258,4.54,4.5455,4.558,4.5765,4.5854,4.5526,4.4802,4.4211,4.3097,4.1475,4.0619,3.9452,3.7988,3.7578,3.7051,3.6309,3.5469,3.4902,3.4687,3.4062,3.3594,3.3418,3.3379,3.3496,3.3691,3.3691,3.4062,3.4805,3.4392,3.4246,3.4872,3.497,3.5225,3.558,3.5038,3.4303,3.3628,3.2798,3.2071,3.1495,3.1349,3.1246,3.1145,3.1086,3.1055,3.0852,3.0799,3.0829,3.0879,3.0918,3.0918,3.0918,3.0917,3.0913,3.0909,3.0921,3.0875,3.082,3.0798,3.0774,3.0703,3.0653,3.0616,3.0607,3.0615,3.0637,3.0664,3.0522,2.982,2.8626,2.806,2.7322,2.6037,2.5693,2.5701,2.5667,2.562,2.5587,4.8009,4.7875,4.7124,4.6317,4.5643,4.5624,4.5605,4.5586,4.5586,4.5586,4.5586,4.5586,4.5586,4.5586,4.5586,4.5586,4.5586,4.5586,4.5586,4.5586,4.5586,4.5586,4.5586,4.5586,4.5566,4.5432,4.538,4.5228,4.5036,4.5048,4.4928,4.4738,4.4795,4.4895,4.4938,4.5076,4.5233,4.5419,4.5419,4.5512,4.5715,4.5822,4.5514,4.4734,4.4763,4.4,4.2358,4.1439,4.0596,3.9668,3.8359,3.7519,3.7129,3.6328,3.5527,3.4785,3.4629,3.4238,3.3516,3.3379,3.3789,3.4473,3.457,3.4922,3.5742,3.5779,3.5764,3.5806,3.5782,3.5788,3.584,3.5088,3.4548,3.4365,3.3619,3.3082,3.2966,3.3062,3.2789,3.1957,3.1841,3.1683,3.0954,3.0794,3.0829,3.0898,3.0918,3.0918,3.0918,3.0918,3.0918,3.0918,3.0912,3.0877,3.082,3.0798,3.0774,3.0722,3.0653,3.0606,3.0616,3.0604,3.0607,3.0386,3.0107,2.9387,2.8437,2.7711,2.6866,2.6052,2.5691,2.5675,2.5634,2.5562,2.555,4.8875,4.8798,4.7971,4.7124,4.6413,4.6373,4.6065,4.5605,4.5586,4.5586,4.5586,4.5586,4.5586,4.5586,4.5586,4.5586,4.5586,4.5586,4.5586,4.5586,4.5586,4.5586,4.5586,4.5586,4.5586,4.5586,4.5495,4.5438,4.5361,4.5159,4.4934,4.4846,4.5274,4.5609,4.5672,4.5817,4.5954,4.6087,4.5649,4.5513,4.5687,4.5786,4.5738,4.5451,4.5065,4.4316,4.3173,4.2307,4.1255,3.9958,3.8828,3.7949,3.7324,3.6484,3.5859,3.5488,3.5469,3.5312,3.4961,3.4941,3.5098,3.5449,3.5469,3.5644,3.5957,3.6013,3.6021,3.5986,3.5962,3.5885,3.5878,3.5504,3.5091,3.4625,3.4193,3.3794,3.3276,3.3238,3.2939,3.2156,3.202,3.1743,3.1012,3.0785,3.0825,3.0896,3.0918,3.0918,3.0918,3.0918,3.0918,3.0918,3.0917,3.0871,3.0816,3.0786,3.0774,3.0722,3.0671,3.0645,3.0613,3.0637,3.0547,3.0056,2.9672,2.8929,2.7719,2.7341,2.6745,2.6018,2.5659,2.5615,2.5557,2.5517,2.5517,4.976,4.9625,4.8817,4.7971,4.7221,4.7006,4.6564,4.5951,4.5701,4.5586,4.5586,4.5586,4.5586,4.5586,4.5586,4.5586,4.5586,4.5586,4.5586,4.5586,4.5586,4.5586,4.5586,4.5586,4.5586,4.5566,4.5438,4.5475,4.5564,4.5357,4.5242,4.5447,4.6064,4.6382,4.6493,4.6624,4.6771,4.6849,4.6147,4.584,4.6001,4.5862,4.5841,4.5902,4.5454,4.4787,4.3994,4.3181,4.2092,4.0677,3.9765,3.8809,3.7715,3.6894,3.6328,3.6055,3.6016,3.6016,3.6016,3.6016,3.6016,3.6016,3.6016,3.6015,3.6014,3.6012,3.6021,3.599,3.5942,3.5885,3.5878,3.5815,3.548,3.493,3.4827,3.4536,3.4018,3.3893,3.3641,3.2823,3.2582,3.1916,3.1057,3.0801,3.0825,3.0891,3.0918,3.0918,3.0918,3.0918,3.0918,3.0918,3.0918,3.0857,3.0804,3.079,3.0774,3.0753,3.0704,3.0671,3.0622,3.0671,3.0419,2.988,2.9474,2.8708,2.7493,2.6972,2.6544,2.595,2.564,2.557,2.5534,2.5511,2.5507,5.0644,5.0491,4.9721,4.8856,4.799,4.7295,4.6929,4.6797,4.6009,4.5643,4.572,4.5682,4.5643,4.5701,4.5759,4.5605,4.5586,4.5586,4.5642,4.568,4.5643,4.5605,4.5586,4.5586,4.5624,4.5722,4.5688,4.5795,4.6174,4.603,4.6322,4.692,4.7032,4.7099,4.7173,4.7365,4.7558,4.7665,4.703,4.6683,4.6716,4.6105,4.5824,4.5905,4.5975,4.5589,4.4806,4.4059,4.3186,4.2298,4.1347,4.0234,3.8691,3.793,3.709,3.6211,3.6035,3.6035,3.6074,3.6133,3.6152,3.6094,3.6152,3.6053,3.6118,3.6044,3.6018,3.6001,3.5938,3.5885,3.5892,3.5784,3.5704,3.5659,3.564,3.5523,3.5534,3.533,3.5185,3.4331,3.3433,3.2338,3.1008,3.0788,3.0838,3.0886,3.0915,3.0918,3.0918,3.0918,3.0918,3.0918,3.0918,3.0878,3.0804,3.0801,3.0793,3.0774,3.0739,3.071,3.0704,3.0613,3.0139,2.9547,2.8783,2.7994,2.7149,2.6504,2.6008,2.5625,2.557,2.5522,2.5511,2.5511,2.5507,5.0683,5.0664,5.0375,4.974,4.8933,4.8606,4.8182,4.7663,4.7355,4.7201,4.7201,4.7182,4.7201,4.7201,4.7201,4.6605,4.5643,4.5586,4.5892,4.639,4.6431,4.6701,4.7182,4.72,4.7163,4.7108,4.7047,4.6961,4.6852,4.673,4.6723,4.6982,4.7534,4.7849,4.7938,4.814,4.8365,4.8495,4.789,4.7338,4.6966,4.6648,4.6321,4.5872,4.5963,4.5666,4.4853,4.4046,4.3241,4.2427,4.113,4.0098,3.9394,3.8164,3.7266,3.6894,3.6836,3.6836,3.6894,3.7344,3.7656,3.7617,3.7129,3.6834,3.6743,3.6348,3.601,3.6001,3.5948,3.5908,3.5872,3.5764,3.5715,3.5737,3.5716,3.5715,3.5706,3.5688,3.5398,3.4505,3.3316,3.1994,3.1174,3.0786,3.0824,3.0907,3.0917,3.0918,3.0918,3.0918,3.0918,3.0918,3.0898,3.0878,3.0882,3.0813,3.0801,3.079,3.0774,3.076,3.0755,3.02,2.9698,2.8933,2.8127,2.7287,2.6535,2.6146,2.5629,2.5604,2.5556,2.551,2.5511,2.5511,2.5515,5.0682,5.0663,5.0683,5.0356,4.9798,4.951,4.9067,4.8491,4.8221,4.8105,4.8086,4.8105,4.8105,4.8105,4.8105,4.7528,4.649,4.6431,4.6718,4.7236,4.7296,4.7568,4.801,4.8087,4.8049,4.7951,4.7834,4.7707,4.7662,4.7484,4.7447,4.7648,4.8265,4.8584,4.8757,4.8964,4.9169,4.921,4.8728,4.8125,4.7681,4.7193,4.6738,4.6244,4.606,4.5747,4.5209,4.4448,4.3634,4.275,4.1457,4.0448,3.9844,3.8516,3.7715,3.7734,3.7715,3.7715,3.7773,3.8281,3.8594,3.8574,3.8086,3.7733,3.7663,3.6914,3.6492,3.6352,3.6041,3.5897,3.5859,3.5784,3.5715,3.5708,3.5706,3.5715,3.5695,3.5697,3.5185,3.4173,3.3199,3.2057,3.1062,3.0843,3.0837,3.0871,3.0918,3.0918,3.0918,3.0918,3.0918,3.0918,3.0918,3.0918,3.0911,3.0864,3.0816,3.0807,3.0794,3.079,3.0611,2.9979,2.9238,2.8395,2.753,2.6704,2.6113,2.5754,2.5625,2.5613,2.5565,2.5518,2.5503,2.5511,2.5507,5.0603,5.0603,5.0663,5.0664,5.0491,4.9817,4.9433,4.9298,4.8606,4.8375,4.8451,4.8259,4.8413,4.826,4.8432,4.8182,4.8144,4.8124,4.8084,4.812,4.8105,4.8183,4.8337,4.8336,4.8277,4.8217,4.7781,4.7905,4.8362,4.8262,4.8428,4.9006,4.9099,4.9214,4.9537,4.9655,4.9929,4.9954,4.9491,4.9199,4.9087,4.7776,4.6981,4.6857,4.6274,4.5925,4.6007,4.5258,4.4415,4.3642,4.275,4.1572,4.0156,3.9101,3.8613,3.8594,3.8613,3.8613,3.8613,3.873,3.8906,3.8867,3.8672,3.8613,3.849,3.7817,3.7237,3.6965,3.645,3.595,3.5864,3.5795,3.5754,3.5708,3.5707,3.5706,3.5707,3.5688,3.5078,3.3759,3.3219,3.2557,3.1339,3.0837,3.0859,3.0889,3.0918,3.0918,3.0918,3.0918,3.0918,3.0918,3.0918,3.0918,3.0918,3.0913,3.0866,3.0819,3.0807,3.0781,3.0606,3.0095,2.9253,2.8402,2.7215,2.639,2.5976,2.5668,2.564,2.5619,2.5554,2.5512,2.551,2.5511,2.5511,5.0478,5.0542,5.0605,5.0644,5.0623,5.0394,5.0317,5.0279,4.9971,4.9913,4.9894,4.9894,4.9894,4.9894,4.9875,4.9856,4.9894,4.9875,4.9567,4.9066,4.9009,4.9278,4.9698,4.9775,4.9652,4.9406,4.9159,4.9022,4.9025,4.8883,4.8959,4.9113,4.9187,4.93,4.9495,4.9759,4.9993,5.0152,5.0141,4.9852,4.9298,4.8315,4.7559,4.6992,4.624,4.5899,4.5997,4.5312,4.452,4.3747,4.2861,4.1902,4.0879,3.9961,3.9512,3.9512,3.9512,3.9492,3.957,4.0039,4.0312,4.0254,3.9844,3.9531,3.9408,3.8695,3.7939,3.7375,3.6918,3.6598,3.6034,3.5815,3.5782,3.5708,3.5708,3.5718,3.5757,3.5775,3.5282,3.4367,3.3701,3.2883,3.1929,3.1347,3.0953,3.095,3.0937,3.0918,3.0918,3.0918,3.0918,3.0918,3.0918,3.0918,3.0918,3.0918,3.0894,3.0849,3.0841,3.0816,3.0621,3.013,2.9288,2.8391,2.7184,2.6419,2.5991,2.5791,2.5823,2.5649,2.5549,2.5525,2.5507,2.5511,2.5511,5.039,5.0438,5.0544,5.0585,5.0604,5.0663,5.0683,5.0683,5.0683,5.0683,5.0683,5.0663,5.0643,5.0663,5.0663,5.0643,5.0623,5.0643,5.0375,4.9875,4.9856,5.0122,5.0538,5.0476,5.0302,5.0031,4.9741,4.9506,4.9321,4.9131,4.9015,4.9033,4.9068,4.9183,4.9384,4.9655,4.9922,5.0127,5.0306,5.0234,4.9644,4.8701,4.7929,4.7364,4.6383,4.5905,4.5922,4.5541,4.4961,4.4104,4.3043,4.2047,4.125,4.0664,4.0391,4.0391,4.0391,4.0391,4.043,4.082,4.1191,4.1094,4.0703,4.0371,4.021,3.9554,3.8779,3.8291,3.7547,3.698,3.6476,3.6017,3.5849,3.5763,3.5743,3.5771,3.5779,3.5823,3.547,3.4734,3.4184,3.3481,3.27,3.187,3.1392,3.1323,3.1094,3.0918,3.0918,3.0918,3.0918,3.0918,3.0918,3.0918,3.0918,3.0918,3.0918,3.0895,3.087,3.0868,3.0769,3.0103,2.9301,2.8598,2.7565,2.7108,2.6669,2.6398,2.6314,2.5985,2.5704,2.5538,2.5536,2.5519,2.5511,5.0278,5.0302,5.0514,5.0582,5.0606,5.0683,5.0702,5.0683,5.0702,5.0683,5.0683,5.0623,5.0581,5.0598,5.0581,5.0621,5.0598,5.0755,5.0835,5.0759,5.0757,5.0768,5.0473,5.0278,5.0044,4.9852,4.9701,4.9515,4.9403,4.9312,4.895,4.9008,4.9113,4.9083,4.9358,4.9558,4.9814,5.0044,5.0259,5.0363,5.0317,4.9029,4.8162,4.8081,4.6744,4.595,4.5893,4.5938,4.5632,4.4748,4.3195,4.205,4.1387,4.1191,4.1094,4.1094,4.1152,4.1113,4.1152,4.1133,4.1191,4.1191,4.1133,4.1171,4.0874,4.0335,3.9813,3.9462,3.8356,3.74,3.7092,3.6526,3.6075,3.591,3.584,3.582,3.5807,3.5852,3.5577,3.4983,3.4686,3.4406,3.3519,3.2709,3.2231,3.1908,3.1465,3.1191,3.0918,3.0918,3.0918,3.0918,3.0918,3.0918,3.0918,3.0918,3.0918,3.0917,3.0898,3.0898,3.0781,3.0117,2.9531,2.8823,2.8242,2.7793,2.743,2.7176,2.6856,2.6588,2.6221,2.5764,2.5615,2.5716,2.555,5.0082,5.0158,5.0321,5.0435,5.0523,5.0603,5.0663,5.0702,5.0643,5.0605,5.0625,5.0563,5.0533,5.0543,5.0555,5.0828,5.1264,5.1439,5.179,5.2156,5.2196,5.1372,5.0416,5.0076,4.989,4.9757,5.0065,5.0123,4.9908,5.0249,5.0194,4.9713,4.9692,4.9604,4.9402,4.9555,4.9807,5.0016,5.0207,5.038,5.0336,4.9548,4.8721,4.8121,4.7195,4.6407,4.5977,4.6076,4.5462,4.4083,4.3015,4.203,4.1367,4.123,4.1191,4.1191,4.1191,4.1191,4.1191,4.1191,4.1191,4.1191,4.1191,4.1172,4.1108,4.0921,4.0457,3.995,3.9273,3.8531,3.7507,3.6956,3.656,3.6011,3.5889,3.5864,3.5894,3.5929,3.5841,3.5615,3.5084,3.4667,3.429,3.3612,3.2873,3.2372,3.1953,3.1601,3.125,3.0918,3.0918,3.0918,3.0918,3.0918,3.0918,3.0918,3.0918,3.0918,3.0918,3.0898,3.0684,3.0215,2.9766,2.9277,2.8906,2.8496,2.8223,2.7986,2.7628,2.7264,2.6873,2.6495,2.623,2.6149,2.5751,4.9898,5.0012,5.0193,5.031,5.0435,5.0517,5.0581,5.0603,5.0563,5.0544,5.0506,5.044,5.0593,5.0918,5.0937,5.1342,5.2007,5.2154,5.2349,5.2533,5.2471,5.1897,5.113,5.0856,5.0662,5.0485,5.0703,5.0722,5.062,5.0934,5.0766,5.0378,5.0102,4.9856,4.9758,4.9565,4.9682,4.9919,5.0127,5.031,5.0406,4.9719,4.8933,4.818,4.7407,4.6673,4.6053,4.6075,4.5527,4.4356,4.3425,4.2575,4.1777,4.1367,4.1211,4.1191,4.1191,4.1191,4.1191,4.1191,4.1191,4.1191,4.1172,4.1152,4.1126,4.1094,4.0777,4.0452,4.0053,3.9115,3.7987,3.7137,3.6479,3.6044,3.5947,3.5942,3.5962,3.5981,3.6009,3.588,3.5591,3.5246,3.5215,3.4453,3.3814,3.3229,3.2575,3.209,3.1601,3.123,3.0918,3.0918,3.0918,3.0918,3.0918,3.0918,3.0918,3.0918,3.0918,3.0918,3.0742,3.041,3.0273,2.9961,2.959,2.9258,2.9023,2.875,2.8427,2.8053,2.7643,2.7362,2.7129,2.6633,2.6196,4.9759,4.9898,5.0081,5.0221,5.0325,5.0432,5.0495,5.0498,5.0478,5.0442,5.0421,5.0382,5.0805,5.1467,5.1497,5.1999,5.2688,5.2768,5.2825,5.2832,5.2723,5.2451,5.2328,5.1795,5.1598,5.1507,5.145,5.138,5.1341,5.1261,5.1164,5.1019,5.047,5.0157,5.0126,4.9763,4.9645,4.9807,5.005,5.0231,5.0291,4.9829,4.9105,4.8086,4.7152,4.6559,4.6116,4.6036,4.5779,4.516,4.4301,4.3354,4.248,4.166,4.1308,4.1211,4.1191,4.1191,4.1191,4.1191,4.1191,4.1172,4.1133,4.1113,4.1103,4.1097,4.1057,4.0955,4.0359,3.955,3.8422,3.7038,3.6265,3.6059,3.5991,3.6007,3.602,3.6013,3.6017,3.601,3.5991,3.6005,3.5801,3.5371,3.4745,3.3997,3.3281,3.25,3.1875,3.1309,3.1035,3.0918,3.0918,3.0918,3.0918,3.0918,3.0918,3.0918,3.0918,3.0918,3.0918,3.0762,3.082,3.0644,3.0234,2.998,2.9824,2.9525,2.9219,2.8948,2.8629,2.8392,2.8126,2.742,2.6876,4.9585,4.9778,4.9906,5.0089,5.0278,5.0344,5.0421,5.052,5.0425,5.0489,5.0451,5.0811,5.112,5.1345,5.1973,5.2646,5.33,5.3413,5.3623,5.4119,5.3996,5.3734,5.3283,5.2389,5.1684,5.1638,5.1974,5.2063,5.2035,5.2364,5.2453,5.1864,5.1574,5.1213,5.0337,5.0277,5.0034,4.9824,4.9944,5.0133,5.0321,5.0205,4.9449,4.8106,4.6783,4.6109,4.6014,4.6037,4.6021,4.5766,4.5121,4.4069,4.2773,4.2226,4.1797,4.1328,4.1191,4.1191,4.1191,4.1191,4.1191,4.1133,4.1133,4.111,4.1113,4.11,4.1106,4.1081,4.0886,4.0095,3.8747,3.7639,3.6848,3.6381,3.6152,3.6091,3.603,3.6018,3.6021,3.6016,3.6016,3.6003,3.6016,3.5879,3.5351,3.4746,3.3926,3.2988,3.2246,3.1562,3.1191,3.1016,3.0918,3.0918,3.0918,3.0918,3.0918,3.0918,3.0918,3.0918,3.0918,3.0918,3.0918,3.0918,3.084,3.0625,3.0351,3.0406,3.0119,2.9874,2.9582,2.9311,2.89,2.8205,2.7699,4.9321,4.9585,4.9731,4.9925,5.0165,5.0621,5.0874,5.0983,5.1243,5.1318,5.1324,5.1554,5.1824,5.2179,5.2598,5.3182,5.3799,5.394,5.4044,5.4296,5.424,5.4056,5.3814,5.3032,5.2419,5.238,5.2634,5.2736,5.2821,5.3001,5.2978,5.261,5.2364,5.1876,5.1102,5.0735,5.0365,5.0199,5.0014,5.0044,5.0202,5.0313,4.9656,4.8087,4.6629,4.5791,4.5899,4.5986,4.6093,4.6047,4.5743,4.4781,4.3238,4.2598,4.2012,4.1367,4.1191,4.1191,4.1191,4.1172,4.1152,4.1113,4.1112,4.1116,4.1105,4.1106,4.1114,4.1114,4.0992,4.0513,3.9253,3.8351,3.764,3.7313,3.6816,3.6641,3.6545,3.6262,3.6013,3.601,3.601,3.6012,3.6016,3.6016,3.5918,3.5332,3.4629,3.373,3.293,3.2207,3.1445,3.1133,3.0976,3.0918,3.0918,3.0918,3.0918,3.0918,3.0918,3.0918,3.0918,3.0918,3.0918,3.0918,3.0918,3.0918,3.0723,3.084,3.0786,3.0492,3.0192,3.0055,2.9726,2.9096,2.8722,4.9135,4.9559,4.9744,5.0005,5.0361,5.1163,5.1543,5.164,5.2191,5.2216,5.2365,5.2265,5.2569,5.3082,5.3259,5.3703,5.4127,5.4213,5.4183,5.4147,5.4112,5.3962,5.3737,5.351,5.3281,5.344,5.3285,5.3203,5.3162,5.3212,5.3151,5.3083,5.2655,5.2299,5.2047,5.1396,5.074,5.0566,5.0298,5.0092,5.0106,5.0183,4.9535,4.8106,4.6829,4.5959,4.5938,4.596,4.6056,4.6169,4.6195,4.5352,4.4147,4.3066,4.2226,4.1484,4.1328,4.1191,4.1191,4.1152,4.1113,4.1112,4.1103,4.1101,4.1111,4.1109,4.1103,4.1109,4.1011,4.0719,3.9875,3.918,3.871,3.8398,3.7851,3.7519,3.72,3.6621,3.6328,3.6016,3.6016,3.6016,3.6016,3.6016,3.6016,3.5879,3.5176,3.4473,3.3652,3.2949,3.2226,3.1914,3.1914,3.1914,3.1894,3.1816,3.1699,3.1562,3.1426,3.1426,3.1445,3.1699,3.1777,3.1035,3.0918,3.0937,3.0918,3.084,3.081,3.0798,3.0678,3.0404,3.0153,2.9918,2.9678,4.9387,5.0176,5.0421,5.1005,5.1697,5.203,5.2197,5.2258,5.2386,5.2266,5.2276,5.2693,5.2966,5.3181,5.372,5.3997,5.4091,5.4106,5.4072,5.4038,5.3999,5.3867,5.3714,5.3598,5.3459,5.3336,5.3272,5.3248,5.323,5.3206,5.3206,5.3151,5.3074,5.2828,5.2504,5.214,5.1504,5.0914,5.0659,5.044,5.0168,5.0016,4.951,4.8087,4.7027,4.6375,4.5926,4.5951,4.6055,4.613,4.6162,4.5648,4.4845,4.3962,4.3066,4.2187,4.1504,4.1191,4.1172,4.1146,4.1119,4.1116,4.1111,4.1109,4.1114,4.1117,4.1097,4.1114,4.1052,4.0754,3.9907,3.9722,3.9322,3.8867,3.8535,3.8164,3.7598,3.7129,3.6738,3.6309,3.6152,3.6016,3.6016,3.6016,3.6016,3.5898,3.541,3.4883,3.4297,3.3711,3.3164,3.3047,3.3105,3.3105,3.3105,3.2988,3.2891,3.2734,3.2637,3.2637,3.2715,3.2949,3.2734,3.1914,3.125,3.1035,3.0976,3.0862,3.0813,3.0798,3.0743,3.0683,3.0444,3.0247,3.0317,5.0286,5.0819,5.1012,5.1442,5.1975,5.256,5.2798,5.284,5.3193,5.3333,5.3252,5.3369,5.3442,5.3495,5.3606,5.3794,5.387,5.3926,5.3907,5.3887,5.3887,5.3849,5.3714,5.3616,5.3477,5.3336,5.3248,5.3243,5.3206,5.3206,5.3206,5.3188,5.3235,5.3093,5.2806,5.2543,5.2178,5.1535,5.1091,5.07,5.0317,5.0012,4.9006,4.8099,4.7242,4.6502,4.5974,4.588,4.6003,4.6093,4.617,4.5982,4.5522,4.4785,4.3789,4.2617,4.1699,4.1191,4.1152,4.1125,4.1111,4.1111,4.1108,4.1109,4.1109,4.111,4.1103,4.11,4.11,4.0935,4.0527,4.0486,4.031,3.9961,3.9551,3.9082,3.8555,3.7851,3.7226,3.666,3.6328,3.6152,3.6016,3.6016,3.6016,3.582,3.5566,3.5215,3.4844,3.4473,3.4023,3.3769,3.375,3.375,3.3789,3.3809,3.3828,3.375,3.3711,3.3711,3.3613,3.3691,3.334,3.2695,3.209,3.1523,3.101,3.0877,3.0845,3.0784,3.073,3.0683,3.0637,3.0595,3.0616,5.1115,5.1491,5.1639,5.1892,5.2304,5.3095,5.3387,5.3437,5.3955,5.4127,5.41,5.385,5.3695,5.3706,5.3632,5.36,5.3719,5.3813,5.3888,5.3851,5.3888,5.3813,5.3773,5.3695,5.3598,5.3437,5.3285,5.3261,5.3225,5.3206,5.3206,5.3206,5.3206,5.3243,5.3162,5.2865,5.2693,5.2233,5.1513,5.0911,5.0421,4.9752,4.8743,4.7987,4.7337,4.6681,4.587,4.5833,4.596,4.6056,4.6154,4.6222,4.6136,4.5484,4.4375,4.3066,4.2031,4.1445,4.1133,4.1103,4.1108,4.1108,4.1104,4.1105,4.1106,4.1114,4.1114,4.1111,4.1109,4.1084,4.0972,4.1068,4.1033,4.0898,4.043,3.998,3.9492,3.8789,3.7871,3.7266,3.666,3.6289,3.6152,3.6016,3.6016,3.6016,3.5762,3.5664,3.5332,3.5234,3.4844,3.4414,3.4238,3.4258,3.4316,3.4453,3.4512,3.457,3.4551,3.457,3.4375,3.4219,3.3848,3.3594,3.2871,3.2285,3.1601,3.0933,3.0833,3.0779,3.0736,3.0683,3.0637,3.0604,3.0616,5.1311,5.2035,5.2344,5.2903,5.3516,5.3812,5.3977,5.396,5.3944,5.3924,5.3846,5.372,5.3573,5.3562,5.365,5.3656,5.3753,5.3867,5.3944,5.3963,5.4,5.4,5.3944,5.3813,5.3734,5.3576,5.3429,5.3261,5.3225,5.3206,5.3206,5.3206,5.3225,5.3243,5.3261,5.3125,5.2957,5.2568,5.1804,5.09,5.0109,4.9827,4.9091,4.8159,4.7677,4.7069,4.5918,4.5786,4.5917,4.6026,4.6123,4.6189,4.6084,4.5442,4.5058,4.4277,4.3262,4.1933,4.1387,4.1142,4.1108,4.1104,4.1117,4.1105,4.11,4.1115,4.1115,4.1111,4.1113,4.1108,4.1103,4.1114,4.1116,4.1084,4.0918,4.0469,4.0019,3.957,3.8672,3.8047,3.748,3.6738,3.6309,3.6152,3.6016,3.6016,3.5996,3.5879,3.5781,3.5644,3.5586,3.5156,3.4961,3.498,3.4941,3.5059,3.5098,3.5254,3.5273,3.5293,3.5156,3.4961,3.498,3.459,3.3828,3.2988,3.2246,3.1599,3.1055,3.0769,3.0722,3.0671,3.0618,3.0604,3.0616,5.2026,5.2784,5.2964,5.325,5.3607,5.3758,5.3775,5.3737,5.3719,5.3682,5.3624,5.3487,5.3396,5.3364,5.3496,5.3598,5.3674,5.3866,5.3999,5.4019,5.4123,5.4099,5.4072,5.4,5.3904,5.3734,5.3536,5.3373,5.3272,5.3206,5.3206,5.3206,5.3206,5.3225,5.3261,5.328,5.3166,5.2782,5.1992,5.086,4.9988,4.9673,4.9201,4.7804,4.7857,4.705,4.6059,4.5757,4.5893,4.5997,4.6132,4.6203,4.6172,4.5877,4.5566,4.4922,4.4355,4.3262,4.207,4.1445,4.1192,4.1108,4.1101,4.1097,4.1097,4.1113,4.11,4.1114,4.1113,4.111,4.1101,4.1111,4.1108,4.1114,4.1101,4.0954,4.0508,4.0039,3.9453,3.8867,3.8281,3.7578,3.6875,3.6523,3.6289,3.6016,3.6016,3.5957,3.5937,3.5898,3.5879,3.5859,3.5781,3.5781,3.5723,3.5723,3.5605,3.5684,3.5684,3.5723,3.584,3.5781,3.5625,3.5351,3.4687,3.3828,3.2949,3.1936,3.1061,3.0832,3.0728,3.0685,3.0653,3.0615,3.0616,5.2367,5.2982,5.3226,5.3367,5.3452,5.3545,5.3539,5.3514,5.3521,5.3502,5.344,5.3318,5.3254,5.329,5.3378,5.3521,5.3579,5.3866,5.4018,5.4111,5.4206,5.4246,5.4225,5.4202,5.4075,5.3888,5.3697,5.3499,5.3378,5.3314,5.3248,5.3206,5.3206,5.3206,5.3225,5.3225,5.3162,5.281,5.1936,5.0869,4.9984,4.9759,4.8894,4.8123,4.7617,4.718,4.5888,4.5733,4.5866,4.5994,4.6132,4.6203,4.6192,4.616,4.5963,4.5449,4.498,4.4316,4.3144,4.2273,4.1482,4.1166,4.1108,4.1108,4.1108,4.1104,4.1117,4.1111,4.1099,4.1113,4.1099,4.1104,4.1108,4.1108,4.1111,4.1103,4.1035,4.0586,4.0098,3.9512,3.8965,3.8516,3.7812,3.7148,3.6641,3.6152,3.6016,3.6035,3.6094,3.6152,3.6133,3.6152,3.6074,3.6055,3.6035,3.6035,3.6035,3.6016,3.6016,3.6016,3.6016,3.6016,3.5898,3.5586,3.5254,3.4629,3.3711,3.2331,3.1047,3.088,3.0759,3.0717,3.0688,3.0632,3.0606,5.2032,5.2165,5.2964,5.3295,5.3327,5.3418,5.3529,5.3456,5.3373,5.3322,5.3322,5.3235,5.3188,5.323,5.3396,5.3521,5.3602,5.3941,5.4149,5.431,5.4434,5.4465,5.4439,5.4382,5.4252,5.4055,5.3832,5.3639,5.3481,5.3378,5.3272,5.3225,5.3225,5.3225,5.3225,5.3225,5.2923,5.2496,5.1675,5.1078,5.0324,4.9819,4.8956,4.7916,4.7632,4.718,4.5738,4.5728,4.5866,4.5991,4.6124,4.6215,4.6211,4.6273,4.6136,4.5952,4.5488,4.4941,4.4212,4.3091,4.2009,4.142,4.1108,4.1111,4.1116,4.111,4.1107,4.1116,4.1113,4.1099,4.1097,4.1113,4.1101,4.1101,4.1104,4.1099,4.1129,4.1133,4.0625,4.0098,3.9668,3.9316,3.8887,3.8242,3.7207,3.668,3.6406,3.6406,3.6426,3.6465,3.6406,3.6348,3.6191,3.6133,3.6094,3.6074,3.6035,3.6016,3.6016,3.6016,3.6016,3.6016,3.6016,3.582,3.5469,3.498,3.447,3.3291,3.2163,3.1219,3.0774,3.0736,3.0697,3.0653,3.0629,5.1096,5.1995,5.2348,5.2808,5.3261,5.329,5.3327,5.3298,5.3267,5.3212,5.3235,5.3206,5.3206,5.323,5.3378,5.3542,5.3623,5.3981,5.422,5.445,5.4603,5.4671,5.464,5.4547,5.4425,5.4249,5.4,5.3774,5.3697,5.3499,5.3429,5.3401,5.3322,5.328,5.3261,5.3188,5.2849,5.2269,5.1577,5.0954,5.0426,4.9789,4.8843,4.7612,4.7686,4.7021,4.5874,4.5761,4.5873,4.5991,4.6115,4.6189,4.6211,4.6273,4.629,4.6301,4.5858,4.5547,4.4957,4.3894,4.2848,4.1989,4.1462,4.1175,4.1302,4.1171,4.1132,4.1111,4.1164,4.1218,4.112,4.1115,4.1109,4.1113,4.1104,4.1116,4.1126,4.1171,4.1113,4.0547,4.0469,4.0312,3.9863,3.9375,3.8242,3.7226,3.6973,3.6816,3.6914,3.7051,3.7109,3.7051,3.6934,3.6816,3.6797,3.6465,3.6074,3.6055,3.6074,3.6016,3.6016,3.6016,3.5976,3.584,3.5723,3.5332,3.4844,3.4199,3.3241,3.2056,3.1246,3.0759,3.0724,3.069,3.0664,5.0233,5.1279,5.1555,5.2252,5.3151,5.3206,5.3206,5.3206,5.3206,5.3206,5.3206,5.3206,5.3206,5.323,5.3418,5.3561,5.3738,5.4016,5.4287,5.4524,5.4742,5.4838,5.479,5.472,5.4591,5.4405,5.411,5.3907,5.3774,5.3619,5.3551,5.3543,5.3461,5.3429,5.3318,5.3254,5.2941,5.2283,5.1529,5.0878,5.0378,4.972,4.8768,4.7655,4.768,4.6997,4.6067,4.5728,4.5866,4.6003,4.6105,4.6196,4.6231,4.6257,4.629,4.6301,4.623,4.5957,4.5332,4.4294,4.3481,4.2792,4.238,4.206,4.1874,4.1855,4.2145,4.2017,4.1774,4.1484,4.1454,4.1348,4.1154,4.1105,4.1101,4.1114,4.1126,4.1152,4.1191,4.1035,4.0976,4.0859,4.0508,3.9961,3.9043,3.8105,3.7812,3.7695,3.7734,3.791,3.8144,3.8047,3.7891,3.7793,3.7676,3.7148,3.668,3.6504,3.6426,3.6074,3.6016,3.6016,3.6016,3.5937,3.582,3.5644,3.5254,3.4707,3.3795,3.2753,3.1987,3.1222,3.0773,3.0743,3.0749,4.9609,4.9738,5.0508,5.172,5.2986,5.3188,5.3188,5.3206,5.3206,5.3206,5.3206,5.3206,5.3206,5.3248,5.3418,5.3619,5.3813,5.4088,5.442,5.4711,5.4844,5.4914,5.4943,5.4876,5.4735,5.4505,5.4235,5.3982,5.3813,5.3716,5.3672,5.3669,5.3632,5.36,5.3475,5.3348,5.2991,5.2349,5.1551,5.0916,5.0378,4.9739,4.8721,4.7768,4.7656,4.7092,4.599,4.5742,4.5866,4.5999,4.6132,4.6196,4.6214,4.6257,4.629,4.63,4.6288,4.625,4.6113,4.4629,4.3982,4.3679,4.3288,4.3177,4.3437,4.3494,4.3312,4.2965,4.2731,4.242,4.21,4.1766,4.1559,4.1495,4.1569,4.1621,4.1711,4.1445,4.1523,4.1465,4.1308,4.1133,4.0879,4.0449,3.9687,3.9023,3.8691,3.8594,3.8594,3.8926,3.9238,3.9101,3.8945,3.8672,3.8437,3.7754,3.7285,3.707,3.6777,3.6406,3.6113,3.6016,3.6016,3.6016,3.5937,3.582,3.5566,3.5273,3.44,3.3551,3.2518,3.1748,3.1203,3.0784,3.0789,4.9077,4.9609,4.9884,5.06,5.1628,5.2197,5.2692,5.317,5.3206,5.3206,5.3206,5.3206,5.3206,5.3248,5.3437,5.3619,5.3832,5.4198,5.4529,5.478,5.4971,5.5045,5.5053,5.499,5.4874,5.4654,5.4393,5.4148,5.4019,5.385,5.3754,5.3773,5.3773,5.3699,5.3643,5.3468,5.3111,5.2375,5.1654,5.0954,5.0411,4.9758,4.8843,4.7529,4.7656,4.7073,4.5759,4.5742,4.5866,4.5999,4.6141,4.6189,4.6214,4.6261,4.6303,4.6295,4.6289,4.6289,4.625,4.5586,4.5176,4.4668,4.416,4.3926,4.375,4.3711,4.37,4.3749,4.3531,4.3283,4.3123,4.3045,4.2936,4.2947,4.2994,4.2982,4.291,4.2344,4.207,4.1894,4.1719,4.1445,4.1172,4.0918,4.0254,3.9955,3.966,3.9487,3.9473,4.0059,4.0469,4.0234,4.0,3.9648,3.9238,3.8613,3.7988,3.7656,3.7226,3.6758,3.6465,3.623,3.6035,3.6055,3.6035,3.5976,3.5781,3.5544,3.5142,3.4384,3.334,3.2374,3.1718,3.1168,3.0786,4.8636,4.9114,4.9132,4.9648,5.0438,5.1224,5.2032,5.2747,5.3059,5.3206,5.3206,5.3206,5.3206,5.3248,5.3437,5.3619,5.3832,5.4217,5.4547,5.4831,5.5009,5.5083,5.508,5.5061,5.4924,5.4717,5.445,5.4222,5.4074,5.3907,5.3851,5.3851,5.387,5.3851,5.3813,5.3604,5.3047,5.2251,5.1417,5.0824,5.0216,4.9585,4.8907,4.7979,4.7519,4.7131,4.6121,4.5761,4.5894,4.6016,4.613,4.6215,4.623,4.6267,4.6303,4.6293,4.6289,4.6289,4.6269,4.625,4.5801,4.5488,4.4863,4.4648,4.4609,4.4785,4.4757,4.4669,4.4332,4.4192,4.4133,4.4117,4.384,4.3829,4.3808,4.3776,4.3633,4.3047,4.2851,4.2617,4.2422,4.2051,4.16,4.123,4.0859,4.075,4.0633,4.0483,4.0294,4.0709,4.1121,4.0879,4.0723,4.041,4.0,3.9531,3.8906,3.8301,3.7851,3.7422,3.6914,3.6699,3.6387,3.6074,3.6035,3.6016,3.6016,3.58,3.5484,3.499,3.42,3.3233,3.2306,3.1585,3.0963,4.8324,4.8324,4.8324,4.8822,4.9616,5.042,5.1206,5.2013,5.2803,5.3115,5.3133,5.3133,5.3206,5.3248,5.3437,5.3619,5.3851,5.4217,5.4514,5.4793,5.4979,5.5019,5.5053,5.5042,5.4905,5.4686,5.4468,5.4222,5.4073,5.3963,5.3888,5.3944,5.3999,5.3888,5.3795,5.3516,5.281,5.1953,5.1305,5.0629,4.984,4.9485,4.8757,4.7965,4.7529,4.691,4.6152,4.5803,4.5958,4.6084,4.6169,4.624,4.6277,4.6295,4.629,4.6295,4.6307,4.6289,4.6289,4.6289,4.6289,4.6055,4.6074,4.6191,4.6055,4.5801,4.572,4.5592,4.535,4.5171,4.5031,4.4582,4.4172,4.4162,4.4135,4.4116,4.4071,4.3867,4.3769,4.3613,4.3476,4.3105,4.25,4.2041,4.1771,4.1713,4.1588,4.1267,4.1061,4.0816,4.1117,4.1094,4.0996,4.1055,4.067,4.0191,3.9746,3.9101,3.8789,3.8379,3.7793,3.7168,3.6821,3.6493,3.6145,3.601,3.6009,3.6012,3.5937,3.5371,3.4705,3.3814,3.279,3.1794,3.1153,4.8324,4.8324,4.8324,4.8434,4.8785,4.9595,5.0423,5.1206,5.1977,5.2344,5.238,5.2968,5.3059,5.3206,5.3418,5.3582,5.3832,5.4146,5.448,5.4742,5.492,5.4981,5.5009,5.4988,5.4809,5.4597,5.4412,5.4204,5.4056,5.3925,5.3944,5.3982,5.3973,5.3751,5.3473,5.3196,5.2407,5.1753,5.115,5.0407,4.96,4.9197,4.8504,4.7933,4.7308,4.6607,4.6008,4.5844,4.5988,4.6091,4.6169,4.6234,4.63,4.6287,4.629,4.6306,4.6289,4.6289,4.6289,4.6289,4.6289,4.6289,4.6289,4.6289,4.6289,4.6289,4.6289,4.6133,4.6016,4.5763,4.5682,4.535,4.5112,4.5099,4.5078,4.5078,4.5,4.4785,4.4687,4.4512,4.4394,4.3848,4.3262,4.3027,4.2773,4.2709,4.2524,4.2175,4.1701,4.1387,4.1106,4.1096,4.109,4.1078,4.1104,4.0726,4.0366,3.9961,3.9644,3.9209,3.8498,3.7881,3.737,3.6843,3.6364,3.6108,3.6004,3.601,3.5996,3.5749,3.513,3.4218,3.3273,3.2223,3.1307,4.8324,4.8324,4.8324,4.8324,4.8398,4.8859,4.9391,4.9976,5.1022,5.1518,5.1573,5.2013,5.2435,5.2716,5.292,5.3267,5.3756,5.4055,5.4393,5.4632,5.4848,5.4912,5.4943,5.4924,5.4779,5.4546,5.4343,5.4168,5.4056,5.3981,5.4,5.4144,5.3977,5.3508,5.3095,5.2513,5.1869,5.1391,5.0932,5.0359,4.9702,4.9036,4.8422,4.778,4.7114,4.6416,4.5892,4.5908,4.6007,4.6115,4.619,4.6226,4.6287,4.6297,4.6301,4.6289,4.6289,4.6289,4.6289,4.6289,4.6289,4.6289,4.6289,4.6289,4.6289,4.6289,4.6289,4.623,4.6269,4.6258,4.6278,4.6276,4.6251,4.6225,4.623,4.623,4.5996,4.5742,4.5566,4.5391,4.5,4.4473,4.4112,4.3908,4.3658,4.3353,4.3156,4.2965,4.231,4.1604,4.1266,4.1039,4.1042,4.1061,4.107,4.1101,4.0806,4.0539,4.0496,3.9978,3.9227,3.8686,3.8229,3.739,3.6501,3.6278,3.6094,3.5997,3.5919,3.5708,3.5435,3.4652,3.3646,3.2547,3.1682,4.8233,4.8324,4.8324,4.8324,4.8324,4.8361,4.8398,4.8489,4.9939,5.0637,5.071,5.082,5.1334,5.1871,5.2106,5.2671,5.3216,5.3683,5.4121,5.448,5.4736,5.4852,5.4874,5.4857,5.4678,5.451,5.4312,5.4131,5.4056,5.4075,5.4202,5.4334,5.3634,5.3208,5.2944,5.1869,5.122,5.0881,5.0734,5.0444,4.9876,4.9224,4.8546,4.7912,4.7184,4.6451,4.6073,4.5977,4.6046,4.6164,4.622,4.6245,4.6278,4.6287,4.6289,4.6289,4.6289,4.6289,4.6289,4.6289,4.6289,4.6289,4.6289,4.6289,4.6289,4.6289,4.6289,4.6289,4.6289,4.6289,4.6305,4.6305,4.6303,4.6301,4.6289,4.6289,4.6191,4.6035,4.5976,4.582,4.5586,4.5137,4.5032,4.4867,4.4727,4.4181,4.3775,4.3685,4.3188,4.2299,4.1743,4.1342,4.1065,4.1089,4.1052,4.1066,4.1104,4.1013,4.0991,4.0766,4.0043,3.956,3.914,3.8063,3.696,3.6459,3.6201,3.6086,3.5963,3.5836,3.5518,3.4983,3.4057,3.2971,3.1909,4.7755,4.8306,4.8324,4.8324,4.8324,4.8324,4.8324,4.8324,4.8673,4.9315,4.9903,5.0472,5.0857,5.1081,5.1219,5.1782,5.2585,5.3144,5.366,5.4202,5.4597,5.4749,5.4767,5.4735,5.4578,5.4337,5.4184,5.4131,5.4093,5.4183,5.4287,5.4277,5.3591,5.3112,5.2529,5.1405,5.0856,5.0467,5.032,5.0293,4.9967,4.8853,4.795,4.7549,4.6952,4.6185,4.5893,4.6017,4.6096,4.6183,4.6248,4.6264,4.6288,4.6289,4.6289,4.6289,4.6289,4.6289,4.6289,4.6289,4.6289,4.6289,4.6289,4.6289,4.6289,4.6289,4.6289,4.6289,4.6289,4.6289,4.6289,4.6289,4.6289,4.6289,4.6289,4.6289,4.6289,4.6289,4.6289,4.6191,4.6035,4.5937,4.584,4.5782,4.5699,4.5326,4.4783,4.4467,4.4169,4.351,4.2752,4.2218,4.1288,4.1123,4.1078,4.1067,4.109,4.1113,4.1055,4.0901,4.0739,4.0026,3.9271,3.8408,3.7498,3.698,3.6472,3.6114,3.6012,3.5891,3.5688,3.5191,3.4522,3.3522,3.2299,4.7058,4.7774,4.8177,4.8324,4.8324,4.8324,4.8324,4.8324,4.8324,4.8563,4.9003,4.9499,4.9884,5.0218,5.0333,5.0874,5.1823,5.2437,5.3032,5.3674,5.434,5.4622,5.4654,5.4616,5.4486,5.4321,5.4146,5.4092,5.4181,5.43,5.4378,5.4037,5.3418,5.2684,5.1906,5.1155,5.0601,5.019,4.9949,4.9771,4.9679,4.864,4.7722,4.7296,4.6576,4.5911,4.591,4.6044,4.6118,4.6189,4.6259,4.628,4.6289,4.6289,4.6289,4.6289,4.6289,4.6289,4.6289,4.6289,4.6289,4.6289,4.6289,4.6289,4.6289,4.6289,4.6289,4.6289,4.6289,4.6289,4.6289,4.6289,4.6289,4.6289,4.6289,4.6289,4.6289,4.6289,4.6289,4.625,4.6172,4.6152,4.6085,4.6056,4.5991,4.593,4.5454,4.5277,4.4979,4.4552,4.3846,4.3091,4.216,4.1318,4.1059,4.107,4.1111,4.1115,4.1096,4.0961,4.0746,4.0077,3.9334,3.8772,3.8142,3.7443,3.6949,3.6538,3.6047,3.5838,3.5682,3.5454,3.4739,3.4032,3.2976,4.6232,4.704,4.7791,4.8141,4.8177,4.8269,4.8324,4.8324,4.8324,4.8324,4.8379,4.8416,4.8802,4.9226,4.9504,5.0208,5.0897,5.1491,5.2215,5.3179,5.3837,5.4251,5.45,5.4519,5.4472,5.439,5.4252,5.4321,5.4405,5.4312,5.3981,5.3509,5.2813,5.205,5.1383,5.0722,5.0217,4.9911,4.9564,4.9099,4.872,4.8298,4.7585,4.6868,4.6259,4.591,4.5956,4.6063,4.6144,4.6195,4.626,4.6295,4.6289,4.6289,4.6289,4.6289,4.6289,4.6289,4.6289,4.6289,4.6289,4.6289,4.6289,4.6289,4.6289,4.6289,4.6289,4.6289,4.6289,4.6289,4.6289,4.6289,4.6289,4.6289,4.6289,4.6289,4.6289,4.6289,4.6289,4.6289,4.6289,4.6289,4.6273,4.6241,4.6211,4.6176,4.6114,4.6033,4.5769,4.5234,4.4614,4.3881,4.3061,4.2247,4.1439,4.1052,4.1095,4.107,4.1045,4.0972,4.079,4.0295,3.9871,3.9547,3.8909,3.8179,3.7522,3.7057,3.6535,3.5989,3.5679,3.5505,3.5095,3.4386,3.3643,4.5406,4.6195,4.7001,4.7331,4.7407,4.7994,4.8324,4.8324,4.8324,4.8324,4.8324,4.8324,4.8471,4.8563,4.8545,4.9119,5.0064,5.062,5.1751,5.2828,5.3318,5.383,5.4303,5.4463,5.4453,5.4386,5.4334,5.4401,5.4226,5.3967,5.3716,5.3461,5.2298,5.1711,5.1486,5.0769,5.0013,4.963,4.9099,4.8606,4.7568,4.7201,4.7142,4.6637,4.6221,4.6015,4.5975,4.6111,4.6183,4.6215,4.6269,4.6297,4.6289,4.6289,4.6289,4.6289,4.6289,4.6289,4.6289,4.6289,4.6289,4.6289,4.6289,4.6289,4.6289,4.6289,4.6289,4.6289,4.6289,4.6289,4.6289,4.6289,4.6289,4.6289,4.6289,4.6289,4.6289,4.6289,4.6289,4.6289,4.6289,4.6289,4.6288,4.6236,4.6172,4.6142,4.6075,4.5987,4.5932,4.5615,4.5299,4.4601,4.3843,4.3053,4.2194,4.1247,4.1078,4.1046,4.0979,4.0878,4.0768,4.0655,4.0293,3.9937,3.9557,3.897,3.8339,3.7574,3.696,3.6414,3.5886,3.553,3.5195,3.4795,3.4109]},{"header":{"parameterUnit":"m.s-1","parameterCategory":1,"la1":31.0,"la2":29.5877,"lo1":-88.7671,"lo2":-86.6584,"dx":0.0162,"dy":0.0185,"nx":115,"ny":88,"refTime":"2023-01-31T06:00:00:Z","depth":0,"parameterNumber":3,"parameterNumberName":"V-component_of_WINDS"},"data":[0.0,0.0,0.0,0.0,0.0,0.0,0.0,0.0,0.0,0.0,0.0,0.0,0.0,0.0,0.0,0.0,0.0,0.0,0.0,0.0,0.0,0.0,0.0,0.0,0.0,0.0,0.0,0.0,0.0,0.0,0.0,0.0,0.0,0.0,0.0,0.0,0.0,0.0,0.0,0.0,0.0,0.0,0.0,0.0,0.0,0.0,0.0,0.0,0.0,0.0,0.0,0.0,0.0,0.0,0.0,0.0,0.0,0.0,0.0,0.0,0.0,0.0,0.0,0.0,0.0,0.0,0.0,0.0,0.0,0.0,0.0,0.0,0.0,0.0,0.0,0.0,0.0,0.0,0.0,0.0,0.0,0.0,0.0,0.0,0.0,0.0,0.0,0.0,0.0,0.0,0.0,0.0,0.0,0.0,0.0,0.0,0.0,0.0,0.0,0.0,0.0,0.0,0.0,0.0,0.0,0.0,0.0,0.0,0.0,0.0,0.0,0.0,0.0,0.0,0.0,0.0,0.0,0.0,0.0,0.0,0.0,0.0,0.0,0.0,0.0,0.0,0.0,0.0,0.0,0.0,0.0,0.0,0.0,0.0,0.0,0.0,0.0,0.0,0.0,0.0,0.0,0.0,0.0,0.0,0.0,0.0,0.0,0.0,0.0,0.0,0.0,0.0,0.0,0.0,0.0,0.0,0.0,0.0,0.0,0.0,0.0,0.0,0.0,0.0,0.0,0.0,0.0,0.0,0.0,0.0,0.0,0.0,0.0,0.0,0.0,0.0,0.0,0.0,0.0,0.0,0.0,0.0,0.0,0.0,0.0,0.0,0.0,0.0,0.0,0.0,0.0,0.0,0.0,0.0,0.0,0.0,0.0,0.0,0.0,0.0,0.0,0.0,0.0,0.0,0.0,0.0,0.0,0.0,0.0,0.0,0.0,0.0,0.0,0.0,0.0,0.0,0.0,0.0,0.0,0.0,0.0,0.0,0.0,0.0,0.0,0.0,0.0,0.0,0.0,0.0,0.0,0.0,0.0,0.0,0.0,0.0,0.0,0.0,0.0,0.0,0.0,0.0,0.0,0.0,0.0,0.0,0.0,0.0,0.0,0.0,0.0,0.0,0.0,0.0,0.0,0.0,0.0,0.0,0.0,0.0,0.0,0.0,0.0,0.0,0.0,0.0,0.0,0.0,0.0,0.0,0.0,0.0,0.0,0.0,0.0,0.0,0.0,0.0,0.0,0.0,0.0,0.0,0.0,0.0,0.0,0.0,0.0,0.0,0.0,0.0,0.0,0.0,0.0,0.0,0.0,0.0,0.0,0.0,0.0,0.0,0.0,0.0,0.0,0.0,0.0,0.0,0.0,0.0,0.0,0.0,0.0,0.0,0.0,0.0,0.0,0.0,0.0,0.0,0.0,0.0,0.0,0.0,0.0,0.0,0.0,0.0,0.0,0.0,0.0,0.0,0.0,0.0,0.0,0.0,0.0,0.0,0.0,0.0,0.0,0.0,0.0,0.0,0.0,0.0,0.0,0.0,0.0,0.0,0.0,0.0,0.0,0.0,0.0,0.0,0.0,0.0,0.0,0.0,0.0,0.0,0.0,0.0,0.0,0.0,0.0,0.0,0.0,0.0,0.0,0.0,0.0,0.0,0.0,0.0,0.0,0.0,0.0,0.0,0.0,0.0,0.0,0.0,0.0,0.0,0.0,0.0,0.0,0.0,0.0,0.0,0.0,0.0,0.0,0.0,0.0,0.0,0.0,0.0,0.0,0.0,0.0,0.0,0.0,0.0,0.0,0.0,0.0,0.0,0.0,0.0,0.0,0.0,0.0,0.0,0.0,0.0,0.0,0.0,0.0,0.0,0.0,0.0,0.0,0.0,0.0,0.0,0.0,0.0,0.0,0.0,0.0,0.0,0.0,0.0,0.0,0.0,0.0,0.0,0.0,0.0,0.0,0.0,0.0,0.0,0.0,0.0,0.0,0.0,0.0,0.0,0.0,0.0,0.0,0.0,0.0,0.0,0.0,0.0,0.0,0.0,0.0,0.0,0.0,0.0,0.0,0.0,0.0,0.0,0.0,0.0,0.0,0.0,0.0,0.0,0.0,0.0,0.0,0.0,0.0,0.0,0.0,0.0,0.0,0.0,0.0,0.0,0.0,0.0,0.0,0.0,0.0,0.0,0.0,0.0,0.0,0.0,0.0,0.0,0.0,0.0,0.0,0.0,0.0,0.0,0.0,0.0,0.0,0.0,0.0,0.0,0.0,0.0,0.0,0.0,0.0,0.0,0.0,0.0,0.0,0.0,0.0,0.0,0.0,0.0,0.0,0.0,0.0,0.0,0.0,0.0,0.0,0.0,0.0,0.0,0.0,0.0,0.0,0.0,0.0,0.0,0.0,0.0,0.0,0.0,0.0,0.0,0.0,0.0,0.0,0.0,0.0,0.0,0.0,0.0,0.0,0.0,0.0,0.0,0.0,0.0,0.0,0.0,0.0,0.0,0.0,0.0,0.0,0.0,0.0,0.0,0.0,0.0,0.0,0.0,0.0,0.0,0.0,0.0,0.0,0.0,0.0,0.0,0.0,0.0,0.0,0.0,0.0,0.0,0.0,0.0,0.0,0.0,0.0,0.0,0.0,0.0,0.0,0.0,0.0,0.0,0.0,0.0,0.0,0.0,0.0,0.0,0.0,0.0,0.0,0.0,0.0,0.0,0.0,0.0,0.0,0.0,0.0,0.0,0.0,0.0,0.0,0.0,0.0,0.0,0.0,0.0,0.0,0.0,0.0,0.0,0.0,0.0,0.0,0.0,0.0,0.0,0.0,0.0,0.0,0.0,0.0,0.0,0.0,0.0,0.0,0.0,0.0,0.0,0.0,0.0,0.0,0.0,0.0,0.0,0.0,0.0,0.0,0.0,0.0,0.0,0.0,0.0,0.0,0.0,0.0,0.0,0.0,0.0,0.0,0.0,0.0,0.0,0.0,0.0,0.0,0.0,0.0,0.0,0.0,0.0,0.0,0.0,0.0,0.0,0.0,0.0,0.0,0.0,0.0,0.0,0.0,0.0,0.0,0.0,0.0,0.0,0.0,0.0,0.0,0.0,0.0,0.0,0.0,0.0,0.0,0.0,0.0,0.0,0.0,0.0,0.0,0.0,0.0,0.0,0.0,0.0,0.0,0.0,0.0,0.0,0.0,0.0,0.0,0.0,0.0,0.0,0.0,0.0,0.0,0.0,0.0,0.0,0.0,0.0,0.0,0.0,0.0,0.0,0.0,0.0,0.0,0.0,0.0,0.0,0.0,0.0,0.0,0.0,0.0,0.0,0.0,0.0,0.0,0.0,0.0,0.0,0.0,0.0,0.0,0.0,0.0,0.0,0.0,0.0,0.0,0.0,0.0,0.0,0.0,0.0,0.0,0.0,0.0,0.0,0.0,0.0,0.0,0.0,0.0,0.0,0.0,0.0,0.0,0.0,0.0,0.0,0.0,0.0,0.0,0.0,0.0,0.0,0.0,0.0,0.0,0.0,0.0,0.0,0.0,0.0,0.0,0.0,0.0,0.0,0.0,0.0,0.0,0.0,0.0,0.0,0.0,0.0,0.0,0.0,0.0,0.0,0.0,0.0,0.0,0.0,0.0,0.0,0.0,0.0,0.0,0.0,0.0,0.0,0.0,0.0,0.0,0.0,0.0,0.0,0.0,0.0,0.0,0.0,0.0,0.0,0.0,0.0,0.0,0.0,0.0,0.0,0.0,0.0,0.0,0.0,0.0,0.0,0.0,0.0,0.0,0.0,0.0,0.0,0.0,0.0,0.0,0.0,0.0,0.0,0.0,0.0,0.0,0.0,0.0,0.0,0.0,0.0,0.0,0.0,0.0,0.0,0.0,0.0,0.0,0.0,0.0,0.0,0.0,0.0,0.0,0.0,0.0,0.0,0.0,0.0,0.0,0.0,0.0,0.0,0.0,0.0,0.0,0.0,0.0,0.0,0.0,0.0,0.0,0.0,0.0,0.0,0.0,0.0,0.0,0.0,0.0,0.0,0.0,0.0,0.0,0.0,0.0,0.0,0.0,0.0,0.0,0.0,0.0,0.0,0.0,0.0,0.0,0.0,0.0,0.0,0.0,0.0,0.0,0.0,0.0,0.0,0.0,0.0,0.0,0.0,0.0,0.0,0.0,0.0,0.0,0.0,0.0,0.0,0.0,0.0,0.0,0.0,0.0,0.0,0.0,0.0,0.0,0.0,0.0,0.0,0.0,0.0,0.0,0.0,0.0,0.0,0.0,0.0,0.0,0.0,0.0,0.0,0.0,0.0,0.0,0.0,0.0,0.0,0.0,0.0,0.0,0.0,0.0,0.0,0.0,0.0,0.0,0.0,0.0,0.0,0.0,0.0,0.0,0.0,0.0,0.0,0.0,0.0,0.0,0.0,0.0,0.0,0.0,0.0,0.0,0.0,0.0,0.0,0.0,0.0,0.0,0.0,0.0,0.0,0.0,0.0,0.0,0.0,0.0,0.0,0.0,0.0,0.0,0.0,0.0,0.0,0.0,0.0,0.0,0.0,0.0,0.0,0.0,0.0,0.0,0.0,0.0,0.0,0.0,0.0,0.0,0.0,0.0,0.0,0.0,0.0,0.0,0.0,0.0,0.0,0.0,0.0,0.0,0.0,0.0,0.0,0.0,0.0,0.0,0.0,0.0,0.0,0.0,0.0,0.0,0.0,0.0,0.0,0.0,0.0,0.0,0.0,0.0,0.0,0.0,0.0,0.0,0.4634,0.2945,0.1029,0.0,0.0,0.0,0.0,0.0,0.0,0.0,0.0,0.0,0.0,0.0,0.0,0.0,0.0,0.0,0.0,0.0,0.0,0.0,0.0,0.0,0.0,0.0,0.0,0.0,0.0,0.0,0.0,0.0,0.0,0.0,0.0,0.0,0.0,0.0,0.0,0.0,0.0,0.0,0.0,0.0,0.0,0.0,0.0,0.0,0.0,0.0,0.0,0.0,0.0,0.0,0.0,0.0,0.0,0.0,0.0,0.0,0.0,0.0,0.0,0.0,0.0,0.0,0.0,0.0,0.0,0.0,0.0,0.0,0.0,0.0,0.0,0.0,0.0,0.0,0.0,0.0,0.0,0.0,0.0,0.0,0.0,0.0,0.0,0.0,0.0,0.0,0.0,0.0,0.0,0.0,0.0,0.0,0.0,0.0,0.0,0.0,0.0,0.0,0.0,0.0,0.0,0.0,0.0,0.0,0.0,0.0,0.0,0.0,0.0,0.0,0.0,0.0,0.0,0.2315,0.0386,0.0,0.0,0.0,0.0,0.0,0.0,0.0,0.0,0.0,0.0,0.0,0.0,0.0,0.0,0.0,0.0,0.0,0.0,0.0,0.0,0.0,0.0,0.0,0.0,0.0,0.0,0.0,0.0,0.0,0.0,0.0,0.0,0.0,0.0,0.0,0.0,0.0,0.0,0.0,0.0,0.0,0.0,0.0,0.0,0.0,0.0,0.0,0.0,0.0,0.0,0.0,0.0,0.0,0.0,0.0,0.0,0.0,0.0,0.0,0.0,0.0,0.0,0.0,0.0,0.0,0.0,0.0,0.0,0.0,0.0,0.0,0.0,0.0,0.0,0.0,0.0,0.0,0.0,0.0,0.0,0.0,0.0,0.0,0.0,0.0,0.0,0.0,0.0,0.0,0.0,0.0,0.0,0.0,0.0,0.0,0.0,0.0,0.0,0.0,0.0,0.0,0.0,0.0,0.0,0.0,0.0,0.0,0.0,0.0,0.0,0.0,0.5411,0.5377,0.3493,0.0,0.0,0.0,0.0,0.0,0.0,0.0,0.0,0.0,0.0,0.0,0.0,0.0,0.0,0.0,0.0,0.0,0.0,0.0,0.0,0.0,0.0,0.0,0.0,0.0,0.0,0.0,0.0,0.0,0.0,0.0,0.0,0.0,0.0,0.0,0.0,0.0,0.0,0.0,0.0,0.0,0.0,0.0,0.0,0.0,0.0,0.0,0.0,0.0,0.0,0.0,0.0,0.0,0.0,0.0,0.0,0.0,0.0,0.0,0.0,0.0,0.0,0.0,0.0,0.0,0.0,0.0,0.0,0.0,0.0,0.0,0.0,0.0,0.0,0.0,0.0,0.0,0.0,0.0,0.0,0.0,0.0,0.0,0.0,0.0,0.0,0.0,0.0,0.0,0.0,0.0,0.0,0.0,0.0,0.0,0.0,0.0,0.0,0.0,0.0,0.0,0.0,0.0,0.0,0.0,0.0,0.0,0.0,0.0,0.0,0.0,0.0,0.5378,0.5373,0.2643,0.077,0.0,0.0,0.0,0.0,0.0,0.0,0.0,0.0,0.0,0.0,0.0,0.0,0.0,0.0,0.0,0.0,0.0,0.0,0.0,0.0,0.0,0.0,0.0,0.0,0.0,0.0,0.0,0.0,0.0,0.0,0.0,0.0,0.0,0.0,0.0,0.0,0.0,0.0,0.0,0.0,0.0,0.0,0.0,0.0,0.0,0.0,0.0,0.0,0.0,0.0,0.0,0.0,0.0,0.0,0.0,0.0,0.0,0.0,0.0,0.0,0.0,0.0,0.0,0.0,0.0,0.0,0.0,0.0,0.0,0.0,0.0,0.0,0.0,0.0,0.0,0.0,0.0,0.0,0.0,0.0,0.0,0.0,0.0,0.0,0.0,0.0,0.0,0.0,0.0,0.0,0.0,0.0,0.0,0.0,0.0,0.0,0.0,0.0,0.0,0.0,0.0,0.0,0.0,0.0,0.0,0.0,0.0,0.0,0.0,0.0,0.5477,0.5277,0.4518,0.1658,0.0,0.0,0.0,0.0,0.0,0.0,0.0,0.0,0.0,0.0,0.0,0.0,0.0,0.0,0.0,0.0,0.0,0.0,0.0,0.0,0.0,0.0,0.0,0.0,0.0,0.0,0.0,0.0,0.0,0.0,0.0,0.0,0.0,0.0,0.0,0.0,0.0,0.0,0.0,0.0,0.0,0.0,0.0,0.0,0.0,0.0,0.0,0.0,0.0,0.0,0.0,0.0,0.0,0.0,0.0,0.0,0.0,0.0,0.0,0.0,0.0,0.0,0.0,0.0,0.0,0.0,0.0,0.0,0.0,0.0,0.0,0.0,0.0,0.0,0.0,0.0,0.0,0.0,0.0,0.0,0.0,0.0,0.0,0.0,0.0,0.0,0.0,0.0,0.0,0.0,0.0,0.0,0.0,0.0,0.0,0.0,0.0,0.0,0.0,0.0,0.0,0.0,0.0,0.0,0.0,0.0,0.0,0.0,0.0,0.0,0.5381,0.5686,0.4867,0.2882,0.1009,0.0,0.0,0.0,0.0,0.0,0.0,0.0,0.0,0.0,0.0,0.0,0.0,0.0,0.0,0.0,0.0,0.0,0.0,0.0,0.0,0.0,0.0,0.0,0.0,0.0,0.0,0.0,0.0,0.0,0.0,0.0,0.0,0.0,0.0,0.0,0.0,0.0,0.0,0.0,0.0,0.0,0.0,0.0,0.0,0.0,0.0,0.0,0.0,0.0,0.0,0.0,0.0,0.0,0.0,0.0,0.0,0.0,0.0,0.0,0.0,0.0,0.0,0.0,0.0,0.0,0.0,0.0,0.0,0.0,0.0,0.0,0.0,0.0,0.0,0.0,0.0,0.0,0.0,0.0,0.0,0.0,0.0,0.0,0.0,0.0,0.0,0.0,0.0,0.0,0.0,0.0,0.0,0.0,0.0,0.0,0.0,0.0,0.0,0.0,0.0,0.0,0.0,0.0,0.0,0.0,0.0,0.0,0.0,0.0,0.0,0.5454,0.6215,0.5376,0.2777,0.095,0.0,0.0,0.0,0.0,0.0,0.0,0.0,0.0,0.0,0.0,0.0,0.0,0.0,0.0,0.0,0.0,0.0,0.0,0.0,0.0,0.0,0.0,0.0,0.0,0.0,0.0,0.0,0.0,0.0,0.0,0.0,0.0,0.0,0.0,0.0,0.0,0.0,0.0,0.0,0.0,0.0,0.0,0.0,0.0,0.0,0.0,0.0,0.0,0.0,0.0,0.0,0.0,0.0,0.0,0.0,0.0,0.0,0.0,0.0,0.0,0.0,0.0,0.0,0.0,0.0,0.0,0.0,0.0,0.0,0.0,0.0,0.0,0.0,0.0,0.0,0.0,0.0,0.0,0.0,0.0,0.0,0.0,0.0,0.0,0.0,0.0,0.0,0.0,0.0,0.0,0.0,0.0,0.0,0.0,0.0,0.0,0.0,0.0,0.0,0.0,0.0,0.0,0.0,0.0,0.0,0.0,0.0,0.0,0.0,0.0,0.4605,0.0,0.5873,0.3929,0.1901,0.0629,0.0,0.0,0.0,0.0,0.0,0.0,0.0,0.0,0.0,0.0,0.0,0.0,0.0,0.0,0.0,0.0,0.0,0.0,0.0,0.0,0.0,0.0,0.0,0.0,0.0,0.0,0.0,0.0,0.0,0.0,0.0,0.0,0.0,0.0,0.0,0.0,0.0,0.0,0.0,0.0,0.0,0.0,0.0,0.0,0.0,0.0,0.0,0.0,0.0,0.0,0.0,0.0,0.0,0.0,0.0,0.0,0.0,0.0,0.0,0.0,0.0,0.0,0.0,0.0,0.0,0.0,0.0,0.0,0.0,0.0,0.0,0.0,0.0,0.0,0.0,0.0,0.0,0.0,0.0,0.0,0.0,0.0,0.0,0.0,0.0,0.0,0.0,0.0,0.0,0.0,0.0,0.0,0.0,0.0,0.0,0.0,0.0,0.0,0.0,0.0,0.0,0.0,0.0,0.0,0.0,0.0,0.0,0.0,0.4098,0.2847,0.4969,0.6022,0.6252,0.3956,0.1882,0.0,0.0,0.0,0.0,0.0,0.0,0.0,0.0,0.0,0.0,0.0,0.0,0.0,0.0,0.0,0.0,0.0,0.0,0.0,0.0,0.0,0.0,0.0,0.0,0.0,0.0,0.0,0.0,0.0,0.0,0.0,0.0,0.0,0.0,0.0,0.0,0.0,0.0,0.0,0.0,0.0,0.0,0.0,0.0,0.0,0.0,0.0,0.0,0.0,0.0,0.0,0.0,0.0,0.0,0.0,0.0,0.0,0.0,0.0,0.0,0.0,0.0,0.0,0.0,0.0,0.0,0.0,0.0,0.0,0.0,0.0,0.0,0.0,0.0,0.0,0.0,0.0,0.0,0.0,0.0,0.0,0.0,0.0,0.0,0.0,0.0,0.0,0.0,0.0,0.0,0.0,0.0,0.0,0.0,0.0,0.0,0.0,0.0,0.0,0.0,0.0,0.0,0.0,0.0,0.0,0.0,0.0,0.0,0.0,0.0928,0.1574,0.3519,0.6652,0.537,0.4276,0.0,0.0,0.0,0.0,0.0,0.0,0.0,0.0,0.0,0.0,0.0,0.0,0.0,0.0,0.0,0.0,0.0,0.0,0.0,0.0,0.0,0.0,0.0,0.0,0.0,0.0,0.0,0.0,0.0,0.0,0.0,0.0,0.0,0.0,0.0,0.0,0.0,0.0,0.0,0.0,0.0,0.0,0.0,0.0,0.0,0.0,0.0,0.0,0.0,0.0,0.0,0.0,0.0,0.0,0.0,0.0,0.0,0.0,0.0,0.0,0.0,0.0,0.0,0.0,0.0,0.0,0.0,0.0,0.0,0.0,0.0,0.0,0.0,0.0,0.0,0.0,0.0,0.0,0.0,0.0,0.0,0.0,0.0,0.0,0.0,0.0,0.0,0.0,0.0,0.0,0.0,0.0,0.0,0.0,0.0,0.0,0.0,0.0,0.0,0.0,0.0,0.0,0.0,0.0,0.0,0.0,0.0,0.0,0.0,0.0275,0.021,0.1526,0.4426,0.4781,0.5122,0.5346,0.0,0.0,0.0,0.0,0.0,0.0,0.0,0.0,0.0,0.0,0.0,0.0,0.0,0.0,0.0,0.0,0.0,0.0,0.0,0.0,0.0,0.0,0.0,0.0,0.0,0.0,0.0,0.0,0.0,0.0,0.0,0.0,0.0,0.0,0.0,0.0,0.0,0.0,0.0,0.0,0.0,0.0,0.0,0.0,0.0,0.0,0.0,0.0,0.0,0.0,0.0,0.0,0.0,0.0,0.0,0.0,0.0,0.0,0.0,0.0,0.0,0.0,0.0,0.0,0.0,0.0,0.0,0.0,0.0,0.0,0.0,0.0,0.0,0.0,0.0,0.0,0.0,0.0,0.0,0.0,0.0,0.0,0.0,0.0,0.0,0.0,0.0,0.0,0.0,0.0,0.0,0.0,0.0,0.0,0.0,0.0,0.0,0.0,0.0,0.0,0.0,0.0,0.0,0.0,0.0,0.0,0.0,0.0,0.0672,0.0655,0.0586,0.041,0.2752,0.4518,0.0,0.0,0.0,0.0,0.0,0.0,0.0,0.0,0.0,0.0,0.0,0.0,0.0,0.0,0.0,0.0,0.0,0.0,0.0,0.0,0.0,0.0,0.0,0.0,0.0,0.0,0.0,0.0,0.0,0.0,0.0,0.0,0.0,0.0,0.0,0.0,0.0,0.0,0.0,0.0,0.0,0.0,0.0,0.0,0.0,0.0,0.0,0.0,0.0,0.0,0.0,0.0,0.0,0.0,0.0,0.0,0.0,0.0,0.0,0.0,0.0,0.0,0.0,0.0,0.0,0.0,0.0,0.0,0.0,0.0,0.0,0.0,0.0,0.0,0.0,0.0,0.0,0.0,0.0,0.0,0.0,0.0,0.0,0.0,0.0,0.0,0.0,0.0,0.0,0.0,0.0,0.0,0.0,0.0,0.0,0.0,0.0,0.0,0.0,0.0,0.0,0.0,0.0,0.0,0.0,0.0,0.0,0.0,0.0,0.1487,0.126,0.1864,0.3247,0.1935,0.3072,0.0,0.0,0.0,0.0,0.0,0.0,0.0,0.0,0.0,0.0,0.0,0.0,0.0,0.0,0.0,0.0,0.0,0.0,0.0,0.0,0.0,0.0,0.0,0.0,0.0,0.0,0.0,0.0,0.0,0.0,0.0,0.0,0.0,0.0,0.0,0.0,0.0,0.0,0.0,0.0,0.0,0.0,0.0,0.0,0.0,0.0,0.0,0.0,0.0,0.0,0.0,0.0,0.0,0.0,0.0,0.0,0.0,0.0,0.0,0.0,0.0,0.0,0.0,0.0,0.0,0.0,0.0,0.0,0.0,0.0,0.0,0.0,0.0,0.0,0.0,0.0,0.0,0.0,0.0,0.0,0.0,0.0,0.0,0.0,0.0,0.0,0.0,0.0,0.0,0.0,0.0,0.0,0.0,0.0,0.0,0.0,0.0,0.0,0.0,0.0,0.0,0.0,0.0,0.0,0.0,0.0,0.0,0.0,0.4077,0.2476,0.1744,0.1834,0.2883,0.1353,0.1766,0.0,0.0,0.0,0.0,0.0,0.0,0.0,0.0,0.0,0.0,0.0,0.0,0.0,0.0,0.0,0.0,0.0,0.0,0.0,0.0,0.0,0.0,0.0,0.0,0.0,0.0,0.0,0.0,0.0,0.0,0.0,0.0,0.0,0.0,0.0,0.0,0.0,0.0,0.0,0.0,0.0,0.0,0.0,0.0,0.0,0.0,0.0,0.0,0.0,0.0,0.0,0.0,0.0,0.0,0.0,0.0,0.0,0.0,0.0,0.0,0.0,0.0,0.0,0.0,0.0,0.0,0.0,0.0,0.0,0.0,0.0,0.0,0.0,0.0,0.0,0.0,0.0,0.0,0.0,0.0,0.0,0.0,0.0,0.0,0.0,0.0,0.0,0.0,0.0,0.0,0.0,0.0,0.0,0.0,0.0,0.0,0.0,0.0,0.0,0.0,0.0,0.0,0.0,0.0,0.0,0.0,0.0,0.0,0.4467,0.3394,0.2104,0.1131,0.0756,0.1004,0.0769,0.0,0.0,0.0,0.0,0.0,0.0,0.0,0.0,0.0,0.0,0.0,0.0,0.0,0.0,0.0,0.0,0.0,0.0,0.0,0.0,0.0,0.0,0.0,0.0,0.0,0.0,0.0,0.0,0.0,0.0,0.0,0.0,0.0,0.0,0.0,0.0,0.0,0.0,0.0,0.0,0.0,0.0,0.0,0.0,0.0,0.0,0.0,0.0,0.0,0.0,0.0,0.0,0.0,0.0,0.0,0.0,0.0,0.0,0.0,0.0,0.0,0.0,0.0,0.0,0.0,0.0,0.0,0.0,0.0,0.0,0.0,0.0,0.0,0.0,0.0,0.0,0.0,0.0,0.0,0.0,0.0,0.0,0.0,0.0,0.0,0.0,0.0,0.0,0.0,0.0,0.0,0.0,0.0,0.0,0.0,0.0,0.0,0.0,0.0,0.0,0.0,0.0,0.0,0.0,0.0,0.0,0.0,0.0,0.4767,0.3095,0.1962,0.1272,0.1179,0.0559,0.0226,0.0,0.0,0.0,0.0,0.0,0.0,0.0,0.0,0.0,0.0,0.0,0.0,0.0,0.0,0.0,0.0,0.0,0.0,0.0,0.0,0.0,0.0,0.0,0.0,0.0,0.0,0.0,0.0,0.0,0.0,0.0,0.0,0.0,0.0,0.0,0.0,0.0,0.0,0.0,0.0,0.0,0.0,0.0,0.0,0.0,0.0,0.0,0.0,-0.447,0.0,0.0,0.0,0.0,0.0,0.0,0.0,0.0,0.0,0.0,0.0,0.0,0.0,0.0,0.0,0.0,0.0,0.0,0.0,0.0,0.0,0.0,0.0,0.0,0.0,0.0,0.0,0.0,0.0,0.0,0.0,0.0,0.0,0.0,0.0,0.0,0.0,0.0,0.0,0.0,0.0,0.0,0.0,0.0,0.0,0.0,0.0,0.0,0.0,0.0,0.0,0.0,0.0,0.0,0.0,0.0,0.0,0.0,0.0,0.4525,0.3099,0.2107,0.1563,0.1299,0.065,0.0229,0.0,0.0,0.0,0.0,0.0,0.0,0.0,0.0,0.0,0.0,0.0,0.0,0.0,0.0,0.0,0.0,0.0,0.0,0.0,0.0,0.0,0.0,0.0,0.0,0.0,0.0,0.0,0.0,0.0,0.0,0.0,0.0,0.0,0.0,0.0,0.0,0.0,0.0,0.0,0.0,0.0,0.0,0.0,0.0,0.0,0.0,0.0,0.0,0.0,0.0,0.0,0.0,0.0,0.0,0.0,0.0,0.0,0.0,0.0,0.0,0.0,0.0,0.0,0.0,0.0,0.0,0.0,0.0,0.0,0.0,0.0,0.0,0.0,0.0,0.0,0.0,0.0,0.0,0.0,0.0,0.0,0.0,0.0,0.0,0.0,0.0,0.0,0.0,0.0,0.0,0.0,0.0,0.0,0.0,0.0,0.0,0.0,0.0,0.0,0.0,0.0,0.0,0.0,0.0,0.0,0.0,0.0,0.4528,0.3914,0.3186,0.2326,0.1759,0.1427,0.0926,0.0467,0.0,0.0,0.0,0.0,0.0,0.0,0.0,0.0,0.0,0.0,0.0,0.0,0.0,0.0,0.0,0.0,0.0,0.0,0.0,0.0,0.0,0.0,0.0,0.0,0.0,0.0,0.0,0.0,0.0,0.0,0.0,0.0,0.0,0.0,0.0,0.0,0.0,0.0,0.0,-0.4467,-0.2289,0.0,0.0,0.0,0.0,0.0,0.0,0.0,0.0,-0.4512,0.0,0.0,0.0,0.0,0.0,0.0,0.0,0.0,0.0,0.0,0.0,0.0,0.0,0.0,0.0,0.0,0.0,0.0,0.0,0.0,0.0,0.0,0.0,0.0,0.0,0.0,0.0,0.0,0.0,0.0,0.0,0.0,0.0,0.0,0.0,0.0,0.0,0.0,0.0,0.0,0.0,0.0,0.0,0.0,0.0,0.0,0.0,0.0,0.0,0.0,0.0,0.0,0.0,0.0,0.0,0.0,0.5055,0.4232,0.354,0.2935,0.2273,0.1774,0.1399,0.0919,0.0467,0.0,0.0,0.0,0.0,0.0,0.0,0.0,0.0,0.0,0.0,0.0,0.0,0.0,0.0,0.0,0.0,0.0,0.0,0.0,0.0,0.0,0.0,0.0,0.0,0.0,0.0,0.0,0.0,0.0,0.0,0.0,0.0,0.0,0.0,0.0,0.0,0.0,0.0,0.0,0.0,-0.4071,-0.2941,0.0,0.0,0.0,0.0,0.0,0.0,0.0,0.0,-0.4504,0.0,0.0,0.0,0.0,0.0,0.0,0.0,0.0,0.0,0.0,0.0,0.0,0.0,0.0,0.0,0.0,0.0,0.0,0.0,0.0,0.0,0.0,0.0,0.0,0.0,0.0,0.0,0.0,0.0,0.0,0.0,0.0,0.0,0.0,0.0,0.0,0.0,0.0,0.0,0.0,0.0,0.0,0.0,0.0,0.0,0.0,0.0,0.0,0.0,0.0,0.0,0.0,0.0,0.0,0.0,0.4889,0.4316,0.3598,0.282,0.2295,0.1867,0.1393,0.0978,0.0458,0.0,0.0,0.0,0.0,0.0,0.0,0.0,0.0,0.0,0.0,0.0,0.0,0.0,0.0,0.0,0.0,0.0,0.0,0.0,0.0,0.0,0.0,0.0,0.0,0.0,0.0,0.0,0.0,0.0,0.0,0.0,0.0,0.0,0.0,0.0,0.0,0.0,0.0,0.0,0.0,-0.4316,-0.3362,-0.1402,0.0,0.0,0.0,0.0,0.0,0.0,-0.4418,-0.4473,0.0,0.0,0.0,0.0,0.0,0.0,0.0,0.0,0.0,0.0,0.0,0.0,0.0,0.0,0.0,0.0,0.0,0.0,0.0,0.0,0.0,0.0,0.0,0.0,0.0,0.0,0.0,0.0,0.0,0.0,0.0,0.0,0.0,0.0,0.0,0.0,0.0,0.0,0.0,0.0,0.0,0.0,0.0,0.0,0.0,0.0,0.0,0.0,0.0,0.0,0.0,0.0,0.0,0.0,0.0,0.4833,0.444,0.3802,0.2866,0.2486,0.1951,0.1384,0.0967,0.0455,0.0,0.0,0.0,0.0,0.0,0.0,0.0,0.0,0.0,0.0,0.0,0.0,0.0,0.0,0.0,0.0,0.0,0.0,0.0,0.0,0.0,0.0,0.0,0.0,0.0,0.0,0.0,0.0,0.0,0.0,0.0,0.0,0.0,0.0,0.0,0.0,0.0,0.0,0.0,0.0,0.0,-0.3383,-0.2521,-0.3198,0.0,0.0,0.0,0.0,-0.3968,-0.4311,0.0,0.0,0.0,0.0,0.0,0.0,0.0,0.0,0.0,0.0,0.0,0.0,0.0,0.0,0.0,0.0,0.0,0.0,0.0,0.0,0.0,0.0,0.0,0.0,0.0,0.0,0.0,0.0,0.0,0.0,0.0,0.0,0.0,0.0,0.0,0.0,0.0,0.0,0.0,0.0,0.0,0.0,0.0,0.0,0.0,0.0,0.0,0.0,0.0,0.0,0.0,0.0,0.0,0.0,0.0,0.0,0.475,0.4374,0.3829,0.312,0.2663,0.2115,0.144,0.092,0.0475,0.0,0.0,0.0,0.0,0.0,0.0,0.0,0.0,0.0,0.0,0.0,0.0,0.0,0.0,0.0,0.0,0.0,0.0,0.0,0.0,0.0,0.0,0.0,0.0,0.0,0.0,0.0,0.0,0.0,0.0,0.0,0.0,0.0,0.0,0.0,0.0,0.0,0.0,0.0,0.0,0.0,-0.3686,-0.3086,-0.314,-0.3258,0.0,0.0,0.0,-0.3074,-0.4036,0.0,0.0,0.0,0.0,0.0,0.0,0.0,0.0,0.0,0.0,0.0,0.0,0.0,0.0,0.0,0.0,0.0,0.0,0.0,0.0,0.0,0.0,0.0,0.0,0.0,0.0,0.0,0.0,0.0,0.0,0.0,0.0,0.0,0.0,0.0,0.0,0.0,0.0,0.0,0.0,0.0,0.0,0.0,0.0,0.0,0.0,0.0,0.0,0.0,0.0,0.0,0.0,0.0,0.0,0.0,0.5003,0.5007,0.4527,0.3974,0.3444,0.2857,0.2113,0.1433,0.0973,0.0462,0.0,0.0,0.0,0.0,0.0,0.0,0.0,0.0,0.0,0.0,0.0,0.0,0.0,0.0,0.0,0.0,0.0,0.0,0.0,0.0,0.0,0.0,0.0,0.0,0.0,0.0,0.0,0.0,0.0,0.0,0.0,0.0,0.0,0.0,0.0,0.0,0.0,0.0,0.0,0.0,0.0,0.0,-0.3297,-0.3302,0.0,0.0,0.0,-0.0636,-0.23,0.0,0.0,0.0,0.0,0.0,0.0,0.0,0.0,0.0,0.0,0.0,0.0,0.0,0.0,0.0,0.0,0.0,0.0,0.0,0.0,0.0,0.0,0.0,0.0,0.0,0.0,0.0,0.0,0.0,0.0,0.0,0.0,0.0,0.0,0.0,0.0,0.0,0.0,0.0,0.0,0.0,0.0,0.0,0.0,0.0,0.0,0.0,0.0,0.0,0.0,0.0,0.0,0.0,0.0,0.0,0.0,0.0,0.524,0.4752,0.4201,0.3578,0.296,0.2288,0.1601,0.1041,0.0,0.0,0.0,0.0,0.0,0.0,0.0,0.0,0.0,0.0,0.0,0.0,0.0,0.0,0.0,0.0,0.0,0.0,0.0,0.0,0.0,0.0,0.0,0.0,0.0,0.0,0.0,-0.1004,0.0,0.0,0.0,0.0,0.0,0.0,0.0,0.0,0.0,0.0,0.0,0.0,0.0,0.0,-0.391,-0.3653,-0.3667,-0.324,0.0,0.0,-0.0479,-0.1842,-0.2339,-0.2783,0.0,0.0,0.0,0.0,0.0,0.0,0.0,0.0,0.0,0.0,0.0,0.0,0.0,0.0,0.0,0.0,0.0,0.0,0.0,0.0,0.0,0.0,0.0,0.0,0.0,0.0,0.0,0.0,0.0,0.0,0.0,0.0,0.0,0.0,0.0,0.0,0.0,0.0,0.0,0.0,0.0,0.0,0.0,0.0,0.0,0.0,0.0,0.0,0.0,0.0,0.0,0.0,0.0,0.0,0.0,0.524,0.4997,0.4538,0.3662,0.3135,0.2635,0.2106,0.1257,0.0481,0.0,0.0,0.0,0.0,0.0,0.0,0.0,0.0,0.0,0.0,0.0,0.0,0.0,0.0,0.0,0.0,0.0,0.0,0.0,0.0,0.0,0.0,0.0,0.0,0.0,0.0,0.0,0.0,0.0,0.0,0.0,0.0,0.0,0.0,0.0,0.0,0.0,0.0,0.0,0.0,0.0,-0.4484,-0.4436,-0.4278,-0.3978,0.0,0.0,-0.049,-0.2033,-0.2222,-0.2472,-0.3125,0.0,0.0,0.0,0.0,0.0,0.0,0.0,0.0,0.0,0.0,0.0,0.0,0.0,0.0,0.0,0.0,0.0,0.0,0.0,0.0,0.0,0.0,0.0,0.0,0.0,0.0,0.0,0.0,0.0,0.0,0.0,0.0,0.0,0.0,0.0,0.0,0.0,0.0,0.0,0.0,0.0,0.0,0.0,0.0,0.0,0.0,0.0,0.0,0.0,0.0,0.0,0.0,0.0,0.5741,0.5559,0.5165,0.4538,0.3659,0.3135,0.2652,0.2062,0.1171,0.0477,0.0,0.0,0.0,0.0,0.0,0.0,0.0,0.0,0.0,0.0,0.0,0.0,0.0,0.0,0.0,0.0,0.0,0.0,0.0,0.0,0.0,0.0,0.0,0.0,0.0,0.0,0.0,0.0,-0.3644,-0.3188,-0.246,0.0,0.0,0.0,0.0,0.0,0.0,0.0,0.0,0.0,0.0,-0.4603,-0.4597,-0.4424,0.0,0.0,-0.2973,-0.2356,-0.2535,-0.1938,-0.195,-0.3045,-0.396,0.0,0.0,0.0,0.0,0.0,0.0,0.0,0.0,0.0,0.0,0.0,0.0,0.0,0.0,0.0,0.0,0.0,0.0,0.0,0.0,0.0,0.0,0.0,0.0,0.0,0.0,0.0,0.0,0.0,0.0,0.0,0.0,0.0,0.0,0.0,0.0,0.0,0.0,0.0,0.0,0.0,0.0,0.0,0.0,0.0,0.0,0.0,0.0,0.0,0.0,0.0,0.0,0.5831,0.5771,0.5344,0.464,0.3699,0.3235,0.267,0.193,0.1262,0.0636,0.0,0.0,0.0,0.0,0.0,0.0,0.0,0.0,0.0,0.0,0.0,0.0,0.0,0.0,0.0,0.0,0.0,0.0,0.0,0.0,0.0,0.0,0.0,0.0,0.0,0.0,0.0,0.0,-0.4042,-0.3984,-0.2681,0.0,0.0,0.0,0.0,0.0,0.0,0.0,0.0,0.0,0.0,-0.481,-0.4915,-0.4793,-0.464,-0.4361,-0.4113,-0.3682,-0.2952,-0.1678,-0.1257,-0.2634,0.0,0.0,0.0,0.0,0.0,0.0,0.0,0.0,0.0,0.0,0.0,0.0,0.0,0.0,0.0,0.0,0.0,0.0,0.0,0.0,0.0,0.0,0.0,0.0,0.0,0.0,0.0,0.0,0.0,0.0,0.0,0.0,0.0,0.0,0.0,0.0,0.0,0.0,0.0,0.0,0.0,0.0,0.0,0.0,0.0,0.0,0.0,0.0,0.0,0.0,0.0,0.0,0.0,0.0,0.5817,0.5471,0.4849,0.3862,0.344,0.2781,0.1971,0.155,0.0978,0.0,0.0,0.0,0.0,0.0,0.0,0.0,0.0,0.0,0.0,0.0,0.0,0.0,0.0,0.0,0.0,0.0,0.0,0.0,0.0,0.0,0.0,0.0,0.0,0.0,0.0,0.0,-0.285,-0.3814,-0.3869,0.0,0.0,0.0,0.0,0.0,0.0,0.0,0.0,0.0,0.0,-0.5121,-0.5179,-0.5325,-0.5348,-0.5209,-0.4821,-0.4492,-0.4028,-0.3228,-0.1376,-0.045,0.0,0.0,0.0,0.0,0.0,0.0,0.0,0.0,0.0,0.0,0.0,0.0,0.0,0.0,0.0,0.0,0.0,0.0,0.0,0.0,0.0,0.0,0.0,0.0,0.0,0.0,0.0,0.0,0.0,0.0,0.0,0.0,0.0,0.0,0.0,0.0,0.0,0.0,0.0,0.0,0.4632,0.4806,0.0,0.0,0.0,0.0,0.0,0.0,0.0,0.0,0.0,0.0,0.0,0.0,0.603,0.5817,0.5719,0.5182,0.4148,0.3762,0.32,0.2286,0.1649,0.0965,0.0,0.0,0.0,0.0,0.0,0.0,0.0,0.0,0.0,0.0,0.0,0.0,0.0,0.0,0.0,0.0,0.0,0.0,0.0,0.0,0.0,0.0,0.0,0.0,0.0,0.0,-0.394,0.0,0.0,0.0,0.0,0.0,0.0,0.0,0.0,0.0,0.0,0.0,-0.4975,-0.5104,-0.522,-0.5304,-0.5418,-0.5428,-0.516,0.0,0.0,0.0,0.0,0.0,0.0,0.0,0.0,0.0,0.0,0.0,0.0,0.0,0.0,-0.4671,-0.3764,-0.4141,-0.4599,-0.4362,0.0,0.0,0.0,0.0,0.0,0.0,0.0,0.0,0.0,0.0,0.0,0.0,0.0,0.0,0.0,0.0,0.4094,0.0,0.0,0.0,0.0,0.0,0.0,0.0,0.0,0.2327,0.3021,0.4428,0.4739,0.4965,0.0,0.5307,0.542,0.0,0.0,0.0,0.0,0.0,0.0,0.0,0.0,0.6294,0.6074,0.5887,0.5455,0.4657,0.4171,0.3429,0.2424,0.1562,0.0791,0.0,0.0,0.0,0.0,0.0,0.0,0.0,0.0,0.0,0.0,0.0,0.0,0.0,0.0,0.0,0.0,0.0,0.0,0.0,0.0,0.0,0.0,0.0,0.0,0.0,0.0,-0.4131,0.0,0.0,0.0,0.0,0.0,0.0,0.0,0.0,0.0,-0.4526,-0.4837,-0.5109,-0.5192,-0.5301,-0.5428,-0.5428,0.0,0.0,0.0,0.0,0.0,0.0,0.0,-0.2154,-0.3333,-0.4315,-0.5008,-0.5068,-0.5003,-0.4951,-0.4776,0.0,0.0,-0.3067,-0.3666,-0.4199,-0.3799,-0.3781,-0.3853,-0.3815,-0.3393,-0.3119,0.0,0.0,0.0,0.0,0.0,0.0,0.0,0.0,0.5817,0.5606,0.0,0.0,0.0,0.0,0.0,0.0,0.0,0.0,0.0,0.0,0.3626,0.402,0.4641,0.4808,0.5078,0.0,0.5431,0.5503,0.5583,0.5443,0.0,0.0,0.0,0.0,0.0,0.0,0.6656,0.6589,0.6242,0.5753,0.5218,0.4485,0.364,0.2556,0.1378,0.0468,0.0,0.0,0.0,0.0,0.0,0.0,0.0,0.0,0.0,0.0,0.0,0.0,0.0,0.0,0.0,0.0,0.0,0.0,0.0,0.0,0.0,0.0,0.0,0.0,0.0,-0.3,0.0,0.0,0.0,0.0,0.0,0.0,0.0,0.0,0.0,0.0,-0.4549,-0.504,-0.5389,-0.5415,0.0,0.0,0.0,0.0,-0.5365,-0.5309,-0.4431,-0.4097,-0.5052,-0.5068,-0.4937,-0.4919,0.0,0.0,-0.5428,-0.5397,-0.5252,-0.4987,-0.4555,-0.4053,-0.3322,-0.3749,-0.4001,-0.3317,-0.3192,-0.3226,-0.2996,-0.2803,-0.2661,0.603,0.0,0.0,0.0,0.0,0.5668,0.5978,0.643,0.6006,0.5762,0.5647,0.5689,0.0,0.0,0.0,0.0,0.0,0.0,0.1795,0.3641,0.3986,0.4282,0.4459,0.456,0.4939,0.5519,0.5731,0.5728,0.5589,0.5679,0.5599,0.5428,0.0,0.0,0.0,0.0,0.688,0.6726,0.6643,0.6483,0.6083,0.5277,0.3978,0.2376,0.1527,0.0791,0.0,-0.0497,-0.0753,-0.0801,-0.0264,0.0,0.0,0.0,0.0,0.0,0.0,0.0,0.0,0.0,0.0,0.0,0.0,0.0,0.0,0.0,0.0,0.0,0.0,0.0,-0.0239,-0.1239,-0.1776,0.0,0.0,0.0,0.0,0.0,0.0,0.0,0.0,0.0,-0.4826,-0.4915,-0.523,0.0,0.0,-0.5403,-0.5508,-0.5161,-0.4761,-0.4431,0.0,0.0,0.0,-0.4182,-0.5138,-0.4782,-0.5106,-0.5418,-0.537,-0.5262,-0.5143,-0.4841,-0.4538,-0.4082,-0.3504,-0.3366,-0.318,-0.2489,-0.2498,-0.2558,-0.2216,-0.2087,-0.2038,0.6546,0.6234,0.6057,0.5787,0.5601,0.5914,0.6311,0.6705,0.6393,0.6221,0.6186,0.6131,0.5795,0.5195,0.4896,0.0,0.0,0.0,0.2853,0.4063,0.4447,0.4711,0.4778,0.4728,0.5086,0.577,0.6029,0.5999,0.5762,0.5849,0.57,0.5525,0.0,0.0,0.707,0.7295,0.7319,0.7126,0.7145,0.6976,0.6542,0.5314,0.3971,0.2607,0.1701,0.0888,0.0077,-0.0439,-0.0774,-0.1097,-0.0678,-0.0272,0.0,0.0,0.0,0.0,0.0,0.0,0.0,0.0,0.0,0.0,0.0,0.0,0.0,0.0,0.0,0.0,0.0,0.0,0.0,-0.0304,0.0,0.0,0.0,0.0,0.0,0.0,0.0,-0.464,-0.472,-0.4906,-0.5049,-0.4773,-0.4698,-0.5342,-0.5148,-0.5055,-0.528,0.0,-0.4356,-0.4028,-0.3426,-0.2958,-0.269,-0.3706,-0.4584,-0.4909,-0.5169,-0.5362,-0.5428,-0.5223,-0.502,-0.4755,-0.4389,-0.3876,-0.3294,-0.2973,-0.2598,-0.2005,-0.2028,-0.2038,-0.1748,-0.168,-0.168,0.7099,0.6946,0.6542,0.6172,0.591,0.6334,0.6593,0.6732,0.6736,0.6736,0.6685,0.6531,0.6135,0.5657,0.5005,0.0,0.0,0.3866,0.418,0.4904,0.502,0.5199,0.5446,0.5241,0.5514,0.6247,0.6287,0.6214,0.603,0.5969,0.5888,0.58,0.5649,0.6615,0.8594,0.828,0.7971,0.7726,0.7573,0.7305,0.676,0.491,0.3657,0.2981,0.1989,0.0992,0.0079,-0.0075,-0.0432,-0.1052,-0.1094,-0.0809,-0.0135,0.0,0.0,0.0,0.0,0.0,0.0,0.0,0.0,0.0,0.0,0.0,0.0,0.0,0.0,0.0,0.0,0.0,-0.006,-0.0064,0.0,0.0,0.0,-0.1882,-0.3703,-0.4208,-0.4305,-0.4209,0.0,0.0,0.0,0.0,-0.3959,-0.4495,-0.4356,-0.4361,-0.4709,-0.4434,-0.4154,-0.3892,-0.3766,-0.377,-0.3634,-0.3498,-0.3832,-0.497,-0.5369,-0.5428,-0.5359,-0.5223,-0.4954,-0.4625,-0.4126,-0.353,-0.2951,-0.2575,-0.2234,-0.1877,-0.1756,-0.1624,-0.1469,-0.1403,-0.1346,0.7472,0.7431,0.7322,0.695,0.649,0.6686,0.6991,0.7393,0.7128,0.7031,0.6972,0.6814,0.645,0.5979,0.5482,0.5203,0.5044,0.4183,0.4449,0.5533,0.5924,0.6117,0.6108,0.5906,0.6059,0.6552,0.6374,0.623,0.62,0.6388,0.6379,0.6264,0.679,0.7934,0.9601,0.9073,0.8862,0.9114,0.8239,0.7252,0.6192,0.471,0.3654,0.3008,0.2313,0.1352,0.0081,-0.0605,-0.0937,-0.1122,-0.1094,-0.1021,-0.0832,-0.0273,0.0,0.0,0.0,0.0,0.0,0.0,0.0,0.0,0.0,0.0,0.0,0.0,0.0,0.0,0.0,-0.0249,-0.0758,-0.0322,0.0,0.0,-0.1672,-0.223,-0.304,-0.3515,-0.3794,-0.3682,-0.3353,-0.3493,-0.4448,-0.3699,-0.2954,-0.248,-0.3151,-0.3917,-0.4267,-0.3939,-0.3689,-0.3556,-0.3159,-0.2893,-0.3226,-0.3493,-0.3894,-0.4492,-0.5024,-0.5428,-0.5428,-0.5096,-0.4827,-0.4619,-0.4001,-0.3328,-0.2756,-0.2538,-0.2162,-0.1542,-0.1362,-0.1302,-0.1067,-0.0841,-0.0673,0.7692,0.7689,0.7628,0.7407,0.7109,0.7193,0.7458,0.772,0.7437,0.7204,0.7076,0.6979,0.6774,0.6292,0.5898,0.5785,0.5707,0.516,0.5183,0.5873,0.6449,0.6645,0.655,0.6574,0.6632,0.6797,0.673,0.6616,0.6454,0.6845,0.6869,0.662,0.7047,0.8559,1.1023,1.0588,1.0211,0.9965,0.8656,0.7365,0.6234,0.4738,0.3799,0.3472,0.2619,0.1547,0.0084,-0.0461,-0.08,-0.1159,-0.1108,-0.1091,-0.1117,-0.041,0.0,0.0,0.0,0.0,0.0,0.0,0.0,0.0,0.0,0.0,0.0,0.0,0.0,0.0,0.0,0.0,-0.1032,-0.0726,-0.0603,-0.0875,-0.1495,-0.1984,-0.2406,-0.2644,-0.2887,-0.2887,-0.2755,-0.2757,-0.3096,-0.2757,-0.2217,-0.1611,-0.2283,-0.3038,-0.3551,-0.3452,-0.3288,-0.3286,-0.2822,-0.269,-0.3025,-0.3496,-0.3964,-0.4295,-0.4831,-0.5233,-0.5163,-0.4964,-0.4697,-0.435,-0.3699,-0.308,-0.2595,-0.2199,-0.1775,-0.1355,-0.0954,-0.0785,-0.0841,-0.0785,-0.0505,0.7841,0.7828,0.7709,0.7655,0.7655,0.7655,0.7743,0.8015,0.7725,0.7422,0.7195,0.7141,0.7048,0.674,0.6446,0.6307,0.6317,0.626,0.6225,0.6234,0.6887,0.7022,0.6726,0.696,0.7063,0.6949,0.7063,0.6986,0.6809,0.721,0.727,0.6994,0.7042,0.8849,1.2071,1.1999,1.1232,1.0236,0.8765,0.7547,0.6534,0.4948,0.4118,0.4001,0.291,0.1654,0.0259,0.0078,-0.0296,-0.0978,-0.1062,-0.1099,-0.1116,-0.0411,0.0,0.0,0.0,0.0,0.0,0.0,0.0,0.0,0.0,0.0,0.0,0.0,0.0,0.0,0.0,-0.0325,-0.1104,-0.1085,-0.1174,-0.1417,-0.1374,-0.1519,-0.1822,-0.1883,-0.1884,-0.2085,-0.2085,-0.2018,-0.1817,-0.1749,-0.1682,-0.1413,-0.1615,-0.2018,-0.2621,-0.2757,-0.2822,-0.2889,-0.2753,-0.2688,-0.2958,-0.3431,-0.3832,-0.4233,-0.4634,-0.49,-0.4827,-0.4761,-0.4631,-0.4077,-0.3462,-0.2901,-0.2403,-0.176,-0.135,-0.1234,-0.0561,-0.0112,-0.0561,-0.0617,-0.0336,0.7994,0.7997,0.7967,0.7957,0.7957,0.7957,0.7986,0.7969,0.787,0.7706,0.75,0.7539,0.7499,0.7379,0.7349,0.7339,0.7339,0.7079,0.7003,0.7191,0.7409,0.7352,0.705,0.7115,0.7039,0.7095,0.7046,0.7147,0.7218,0.7348,0.7357,0.7349,0.8021,0.9061,0.0,0.0,0.0,0.0,0.8134,0.7653,0.7036,0.5515,0.4642,0.4602,0.3572,0.0,0.1186,0.0393,-0.0075,-0.0227,-0.0805,0.0,0.0,0.0,0.0,0.0,0.0,0.0,0.0,0.0,0.0,0.0,0.0,0.0,0.0,0.0,0.0,0.0,0.0,-0.0401,-0.1402,-0.1279,-0.1217,-0.1549,-0.1284,-0.1285,-0.1615,-0.1681,-0.1614,-0.1547,-0.1547,-0.1481,-0.128,-0.1213,-0.1214,-0.1146,-0.1212,-0.1277,-0.1479,-0.1883,-0.2085,-0.2085,-0.222,-0.2287,-0.2356,-0.296,-0.3563,-0.41,-0.4364,-0.45,-0.4697,-0.4694,-0.4492,-0.409,-0.346,-0.2897,-0.2526,-0.1819,-0.1237,-0.101,-0.0056,0.0561,-0.0,0.0224,0.0617,0.8038,0.0,0.8038,0.8038,0.0,0.0,0.7994,0.8024,0.7926,0.7841,0.7706,0.7706,0.7668,0.7597,0.7597,0.7597,0.7597,0.75,0.7406,0.75,0.7597,0.7653,0.7489,0.7197,0.7119,0.7255,0.718,0.7197,0.7389,0.7646,0.7718,0.7696,0.8549,0.95,1.0459,1.04,0.9624,0.8028,0.7949,0.765,0.6836,0.5739,0.4672,0.3479,0.0,0.0,0.0,0.0,0.0,0.0,0.0,0.0,0.0,0.0,0.0,0.0,0.0,0.0,0.0,0.0,0.0,0.0,0.0,0.0,0.0,-0.0337,-0.0404,-0.0067,-0.0341,-0.0898,-0.1609,-0.1662,-0.1648,-0.1647,-0.1423,-0.1277,-0.1412,-0.1412,-0.1344,-0.1277,-0.1277,-0.1211,-0.1146,-0.108,-0.1012,-0.0809,-0.0808,-0.0808,-0.0875,-0.1278,-0.1681,-0.1816,-0.1884,-0.2018,-0.2221,-0.2758,-0.3295,-0.3696,-0.4033,-0.4367,-0.4498,-0.4498,-0.4298,-0.3818,-0.324,-0.2697,-0.234,-0.1781,-0.1202,-0.0845,0.0056,0.0898,0.0841,0.0785,0.0729,0.8038,0.8038,0.8038,0.8038,0.8038,0.8038,0.8038,0.8038,0.0,0.0,0.0,0.7754,0.7687,0.7675,0.7675,0.7675,0.7675,0.7773,0.7777,0.7678,0.7773,0.7858,0.8026,0.754,0.7269,0.7417,0.7224,0.7346,0.7596,0.7989,0.8219,0.82,0.9015,1.0072,1.1063,1.0147,0.9023,0.8021,0.8045,0.7547,0.6639,0.5842,0.4487,0.2633,0.1885,0.109,0.0,0.0,0.0,0.0,0.0,0.0,0.0,0.0,0.0,0.0,0.0,0.0,0.0,0.0,0.0,0.0,0.0,0.0,0.0,-0.0688,-0.0892,-0.0211,-0.0776,-0.1353,-0.1965,-0.2137,-0.2174,-0.1891,-0.1641,-0.1479,-0.1412,-0.121,-0.1143,-0.1143,-0.1143,-0.1077,-0.1079,-0.0945,-0.0809,-0.054,-0.0472,-0.054,-0.0674,-0.1078,-0.1412,-0.1616,-0.1548,-0.1681,-0.2153,-0.2624,-0.3025,-0.3226,-0.383,-0.43,-0.4303,-0.43,-0.4033,-0.3632,-0.3019,-0.255,-0.2169,-0.1562,-0.1051,-0.0791,0.0112,0.1066,0.1459,0.1122,0.0785,0.8038,0.8038,0.8038,0.8038,0.8038,0.8038,0.8038,0.8038,0.8038,0.8024,0.8007,0.8007,0.7994,0.798,0.7977,0.7977,0.7977,0.7977,0.7977,0.0,0.7977,0.801,0.7983,0.788,0.7804,0.7577,0.7567,0.774,0.818,0.8474,0.8664,0.9043,0.978,1.0473,1.1082,1.0117,0.9019,0.8011,0.8038,0.7856,0.7444,0.5832,0.4747,0.4302,0.2434,0.0998,0.0,0.0,0.0,0.0,0.0,0.0,0.0,0.0,0.0,0.0,0.0,0.0,0.0,0.0,0.0,0.0,0.0,0.0,0.0,-0.0769,-0.1199,-0.0939,-0.116,-0.1743,-0.2698,-0.2643,-0.2461,-0.2449,-0.2256,-0.202,-0.1817,-0.1479,-0.1277,-0.1143,-0.1077,-0.1146,-0.1079,-0.0607,-0.027,-0.0135,-0.027,-0.0607,-0.0809,-0.1078,-0.1146,-0.1213,-0.1144,-0.148,-0.2018,-0.2221,-0.2622,-0.3159,-0.383,-0.4303,-0.4303,-0.4167,-0.3897,-0.3565,-0.296,-0.2491,-0.2171,-0.1203,-0.0525,-0.017,0.0505,0.101,0.1403,0.129,0.129,0.8163,0.8153,0.8075,0.8038,0.8038,0.8038,0.8038,0.8038,0.8038,0.8038,0.8038,0.8038,0.8038,0.8038,0.8038,0.8038,0.8038,0.8038,0.8038,0.8038,0.8038,0.8004,0.8041,0.8038,0.7858,0.7719,0.8108,0.8251,0.8355,0.8804,0.9222,0.9604,1.0368,1.0817,1.0717,1.0126,0.932,0.8315,0.8131,0.7739,0.7144,0.5934,0.4965,0.4353,0.2942,0.1844,0.0796,0.0258,0.0,0.0,0.0,0.0,0.0,0.0,0.0,0.0,0.0,0.0,0.0,0.0,0.0,0.0,0.0,0.0,0.0,-0.0577,-0.1013,-0.1187,-0.1265,-0.1721,-0.2958,-0.3196,-0.3056,-0.2793,-0.2584,-0.2393,-0.2092,-0.1816,-0.1547,-0.1344,-0.1346,-0.128,-0.1144,-0.0808,-0.0404,-0.0135,0.0,0.0,0.0,-0.0674,-0.0877,-0.108,-0.1078,-0.1347,-0.1817,-0.2085,-0.2421,-0.2822,-0.3696,-0.4233,-0.4303,-0.4097,-0.3761,-0.3362,-0.2854,-0.2334,-0.1934,-0.0855,-0.0059,0.0454,0.0785,0.1178,0.1515,0.1796,0.2018,0.8319,0.8303,0.8157,0.8072,0.8038,0.8038,0.8038,0.8038,0.8038,0.8038,0.8038,0.8038,0.8038,0.8038,0.8038,0.8038,0.8038,0.8038,0.8038,0.8038,0.8038,0.8038,0.8038,0.8038,0.7974,0.7973,0.8466,0.8687,0.8573,0.916,0.9795,1.0285,1.0914,1.0998,1.0605,1.0216,0.962,0.8722,0.8322,0.773,0.6942,0.6037,0.5187,0.4215,0.3577,0.273,0.1539,0.0709,0.0258,0.0,0.0,0.0,0.0,0.0,0.0,0.0,0.0,0.0,0.0,0.0,0.0,0.0,0.0,0.0,0.0,-0.0375,-0.0897,-0.1446,-0.145,-0.1846,-0.2957,-0.3528,-0.3605,-0.309,-0.2942,-0.2735,-0.234,-0.2192,-0.198,-0.17,-0.1697,-0.156,-0.128,-0.1143,-0.0807,0.0,0.0,0.0,0.0,-0.027,-0.054,-0.0742,-0.1012,-0.1213,-0.1548,-0.1951,-0.2287,-0.2686,-0.356,-0.4167,-0.4233,-0.403,-0.3694,-0.3291,-0.2737,-0.2216,-0.1625,-0.0612,0.0358,0.0966,0.1234,0.1459,0.1964,0.2298,0.2633,0.8465,0.8442,0.8309,0.8167,0.8048,0.8045,0.8041,0.8038,0.8038,0.8038,0.8038,0.8038,0.8038,0.8038,0.8038,0.8038,0.8038,0.8038,0.8038,0.8038,0.8038,0.8038,0.8038,0.8038,0.8035,0.8011,0.8513,0.8791,0.8754,0.9575,1.0476,1.1258,1.1272,1.1194,1.11,1.0614,0.9924,0.9034,0.8829,0.823,0.7138,0.6134,0.5286,0.4702,0.4212,0.327,0.1942,0.1447,0.0886,0.0,0.0,0.0,0.0,0.0,0.0,0.0,0.0,0.0,0.0,0.0,0.0,0.0,0.0,0.0,0.0,-0.039,-0.1093,-0.1955,-0.2032,-0.2267,-0.3136,-0.3611,-0.3707,-0.3385,-0.3385,-0.3258,-0.2812,-0.2602,-0.2581,-0.2445,-0.2157,-0.1868,-0.1622,-0.1277,-0.0807,-0.0135,0.0,0.0,0.0,0.0,0.0,0.0,-0.0607,-0.1146,-0.1548,-0.1951,-0.2287,-0.2688,-0.356,-0.4097,-0.4167,-0.3961,-0.3623,-0.3127,-0.2766,-0.2248,-0.149,-0.0484,0.0704,0.1479,0.1628,0.157,0.2355,0.2687,0.2798,0.8618,0.8604,0.8459,0.8309,0.8184,0.8073,0.8019,0.8041,0.8038,0.8038,0.8038,0.8038,0.8038,0.8038,0.8038,0.8038,0.8038,0.8038,0.8038,0.8038,0.8038,0.8038,0.8038,0.8038,0.8038,0.8038,0.8535,0.8935,0.9126,0.9805,1.0788,1.1702,1.192,1.1795,1.1387,1.0789,1.0188,0.9377,0.8977,0.8333,0.7441,0.6537,0.5717,0.4978,0.4339,0.3488,0.2452,0.1755,0.108,0.0436,0.0169,0.0,0.0,0.0,0.0,0.0,0.0,0.0,0.0,0.0,0.0,0.0,0.0,0.0,0.0,-0.0393,-0.1022,-0.1886,-0.1963,-0.2273,-0.3139,-0.3575,-0.3766,-0.3716,-0.3896,-0.3776,-0.3277,-0.3274,-0.3317,-0.3096,-0.2872,-0.2429,-0.1965,-0.1479,-0.0942,-0.0404,0.0,0.0,0.0,0.0,0.0,0.0,-0.027,-0.0674,-0.1211,-0.1816,-0.2287,-0.2688,-0.3224,-0.3627,-0.3894,-0.3694,-0.3278,-0.2894,-0.2596,-0.2086,-0.1392,-0.0358,0.0817,0.1705,0.2301,0.2354,0.3081,0.3246,0.3246,0.8774,0.875,0.8608,0.8567,0.8326,0.8077,0.8001,0.8102,0.8058,0.8038,0.8038,0.8038,0.8038,0.8038,0.8038,0.8038,0.8038,0.8038,0.8038,0.8038,0.8038,0.8038,0.8038,0.8038,0.8038,0.8035,0.8524,0.9149,0.9685,1.0263,1.1175,1.2178,1.2666,1.2537,1.1808,1.1193,1.0476,0.9745,0.9075,0.8392,0.7698,0.6956,0.6137,0.5331,0.4577,0.3722,0.2787,0.1885,0.1194,0.071,0.026,0.0,0.0,0.0,0.0,0.0,0.0,0.0,0.0,0.0,0.0,0.0,0.0,-0.0079,-0.0314,-0.0471,-0.1022,-0.1807,-0.1962,-0.2273,-0.3139,-0.3606,-0.3807,-0.398,-0.4353,-0.4317,-0.3876,-0.3937,-0.3907,-0.3667,-0.3353,-0.2933,-0.2172,-0.1547,-0.0942,-0.0674,0.0,0.0,0.0,0.0,0.0,0.0,0.0,-0.0337,-0.1008,-0.1748,-0.2287,-0.2555,-0.2889,-0.3224,-0.3489,-0.3224,-0.2996,-0.268,-0.2384,-0.1882,-0.12,-0.0177,0.0985,0.2099,0.2695,0.297,0.3418,0.3585,0.3471,0.893,0.8903,0.8879,0.8725,0.8462,0.8127,0.8064,0.8252,0.8113,0.8048,0.8062,0.8055,0.8048,0.8058,0.8069,0.8041,0.8038,0.8038,0.7945,0.7952,0.8048,0.8041,0.8038,0.8038,0.8045,0.8165,0.8674,0.963,1.0979,1.1157,1.1764,1.3012,1.3265,1.3172,1.253,1.17,1.098,1.0132,0.9142,0.8337,0.7922,0.7302,0.6542,0.5636,0.5035,0.4189,0.2937,0.1924,0.1225,0.0738,0.0271,0.0,0.0,0.0,0.0,0.0,0.0,0.0,0.0,0.0,0.0,0.0,0.0,-0.0315,-0.1025,-0.0865,-0.11,-0.1965,-0.2041,-0.2273,-0.2982,-0.3524,-0.391,-0.4142,-0.4613,-0.4756,-0.452,-0.4416,-0.432,-0.4063,-0.3661,-0.3043,-0.2032,-0.1412,-0.1144,-0.0876,-0.0405,0.0,0.0,0.0,0.0,0.0,0.0,-0.0269,-0.1008,-0.1547,-0.2018,-0.2287,-0.2487,-0.2822,-0.2889,-0.2813,-0.2637,-0.2455,-0.2202,-0.1712,-0.1007,-0.0,0.1192,0.2242,0.297,0.336,0.3585,0.3585,0.3471,0.8937,0.8933,0.8882,0.8771,0.8628,0.857,0.8496,0.8404,0.835,0.8323,0.8323,0.8319,0.8323,0.8323,0.8323,0.8218,0.8048,0.8038,0.7989,0.7971,0.8083,0.8235,0.8319,0.8217,0.8316,0.8625,0.9358,1.0519,1.1899,1.2521,1.3067,1.3583,1.3855,1.3607,1.3069,1.2226,1.1388,1.064,0.9526,0.8667,0.7965,0.7493,0.6923,0.6345,0.5644,0.48,0.3629,0.2212,0.1321,0.1111,0.0449,0.0,0.0,0.0,0.0,0.0,0.0,0.0,0.0,0.0,0.0,0.0,0.0,-0.0321,-0.1042,-0.119,-0.1336,-0.1965,-0.2199,-0.2511,-0.2981,-0.3522,-0.399,-0.4467,-0.4781,-0.494,-0.4859,-0.4698,-0.4503,-0.4084,-0.3649,-0.294,-0.218,-0.1816,-0.1481,-0.0809,-0.027,0.0,0.0,0.0,0.0,0.0,0.0,-0.0269,-0.1011,-0.1278,-0.1547,-0.1748,-0.2017,-0.2218,-0.2285,-0.2377,-0.2272,-0.2023,-0.1782,-0.143,-0.0637,0.0571,0.168,0.2015,0.2742,0.3302,0.3585,0.3585,0.3416,0.9051,0.9047,0.8937,0.8879,0.8781,0.8841,0.8762,0.8659,0.8503,0.8482,0.8479,0.8482,0.8482,0.8482,0.8482,0.8381,0.8197,0.8083,0.8028,0.8011,0.8233,0.8495,0.8573,0.8587,0.8689,0.9212,1.0277,1.1453,1.2437,1.3392,1.3942,1.4227,1.4411,1.4161,1.3407,1.2549,1.1804,1.1022,0.9914,0.9028,0.83,0.7792,0.7298,0.6911,0.6268,0.5313,0.4055,0.2719,0.181,0.14,0.0814,0.0353,0.0,0.0,0.0,0.0,0.0,0.0,0.0,0.0,0.0,0.0,0.0,-0.0329,-0.0986,-0.1208,-0.1514,-0.1985,-0.2283,-0.2668,-0.3137,-0.3524,-0.399,-0.4543,-0.4859,-0.494,-0.4937,-0.4779,-0.4476,-0.3894,-0.327,-0.2664,-0.2104,-0.2157,-0.1616,-0.0674,0.0,0.0,0.0,0.0,0.0,0.0,0.0,0.0,-0.0674,-0.0943,-0.1211,-0.1412,-0.1681,-0.1748,-0.1805,-0.1899,-0.1852,-0.155,-0.1262,-0.0874,-0.0057,0.1181,0.1736,0.1903,0.2462,0.3077,0.3357,0.3585,0.3471,0.9379,0.9379,0.9047,0.8933,0.8903,0.8896,0.8939,0.8804,0.868,0.853,0.8434,0.8509,0.8537,0.8618,0.854,0.8496,0.8489,0.8377,0.8262,0.8052,0.8482,0.8713,0.8959,0.9068,0.9275,0.9482,1.1141,1.2278,1.3072,1.3725,1.4345,1.4866,1.4894,1.4578,1.3738,1.2842,1.1987,1.1189,1.0182,0.9341,0.8876,0.8209,0.7757,0.7421,0.6709,0.5639,0.4126,0.3463,0.2619,0.1619,0.14,0.0907,0.0,0.0,0.0,0.0,0.0,0.0,0.0,0.0,0.0,0.0,0.0,-0.0168,-0.0672,-0.1073,-0.1463,-0.1856,-0.2309,-0.275,-0.3295,-0.3604,-0.3995,-0.4384,-0.4701,-0.4859,-0.4701,-0.4698,-0.4385,-0.3548,-0.2833,-0.2277,-0.2054,-0.1954,-0.155,-0.0741,0.0,0.0,0.0,0.0,0.0,0.0,0.0,0.0,0.0,-0.054,-0.0876,-0.1144,-0.1412,-0.1546,-0.1537,-0.1577,-0.1597,-0.1426,-0.1307,-0.0922,0.017,0.1345,0.1793,0.2073,0.2573,0.2963,0.3302,0.3585,0.3585,0.9926,0.9596,0.9151,0.9044,0.9268,0.8999,0.8872,0.8866,0.8811,0.8689,0.8685,0.8798,0.8798,0.8798,0.8794,0.8791,0.8798,0.8682,0.8629,0.8431,0.8642,0.9022,0.9435,0.945,0.9876,1.0953,1.2257,1.325,1.3826,1.4596,1.5085,1.525,1.5273,1.4838,1.3959,1.2753,1.1887,1.1463,1.0315,0.9465,0.8915,0.8302,0.7852,0.7443,0.6807,0.5839,0.4834,0.3765,0.282,0.191,0.159,0.1006,0.0,0.0,0.0,0.0,0.0,0.0,0.0,0.0,0.0,0.0,0.0,0.0,-0.0688,-0.1098,-0.1491,-0.1877,-0.2339,-0.272,-0.3153,-0.3606,-0.3919,-0.4384,-0.4543,-0.4465,-0.4311,-0.4155,-0.3631,-0.2931,-0.2431,-0.2083,-0.1673,-0.1574,-0.1216,-0.0675,0.0,0.0,0.0,0.0,0.0,0.0,0.0,0.0,0.0,0.0,-0.0539,-0.0808,-0.1077,-0.1211,-0.1203,-0.125,-0.1279,-0.124,-0.1127,-0.0576,0.051,0.1239,0.1693,0.2188,0.2629,0.3021,0.3471,0.3585,0.3585,1.0366,1.0033,0.9482,0.9261,0.9265,0.9047,0.8937,0.8937,0.8937,0.8937,0.8937,0.9047,0.9158,0.9161,0.9161,0.9158,0.9268,0.9158,0.8882,0.8682,0.8903,0.9403,0.9824,1.004,1.0692,1.1896,1.298,1.3846,1.4493,1.5256,1.569,1.5696,1.5589,1.5154,1.4277,1.3073,1.21,1.1573,1.0578,0.9651,0.8977,0.8478,0.8128,0.7714,0.7036,0.6247,0.5334,0.4285,0.3243,0.2215,0.1409,0.055,0.0,0.0,0.0,0.0,0.0,0.0,0.0,0.0,0.0,0.0,0.0,0.0,-0.0614,-0.1122,-0.1524,-0.1923,-0.2296,-0.2586,-0.3031,-0.3547,-0.3847,-0.3917,-0.3915,-0.3839,-0.3761,-0.3528,-0.3103,-0.2505,-0.2241,-0.1901,-0.1499,-0.1252,-0.0959,-0.0547,0.0,0.0,0.0,0.0,0.0,0.0,0.0,0.0,0.0,0.0,0.0,-0.0472,-0.0741,-0.0808,-0.0873,-0.092,-0.0959,-0.0936,-0.0842,-0.0237,0.0757,0.121,0.1667,0.2159,0.2645,0.291,0.3249,0.353,0.3585,1.0802,1.0692,1.0048,0.9489,0.9037,0.8937,0.894,0.8937,0.894,0.8937,0.8937,0.9268,0.9603,0.9721,0.9603,0.9496,0.9721,0.9521,0.9307,0.9179,0.9407,0.9868,1.0154,1.0802,1.1669,1.2545,1.3434,1.4315,1.5104,1.5785,1.6141,1.6279,1.5958,1.5476,1.4504,1.3511,1.2536,1.1669,1.0798,0.9904,0.8986,0.8755,0.8384,0.8046,0.7508,0.6765,0.5737,0.4828,0.3692,0.2247,0.0848,0.0183,0.0,0.0,0.0,0.0,0.0,0.0,0.0,0.0,0.0,0.0,0.0,-0.018,-0.0624,-0.1144,-0.1564,-0.1982,-0.2178,-0.2451,-0.2919,-0.3356,-0.3553,-0.3221,-0.3136,-0.3134,-0.3054,-0.2743,-0.2488,-0.2293,-0.2046,-0.1803,-0.1537,-0.1285,-0.0985,-0.0627,0.0,0.0,0.0,0.0,0.0,0.0,0.0,0.0,0.0,0.0,0.0,-0.0202,0.0,0.0,0.0,0.0,0.0,-0.0566,0.0,0.0,0.0778,0.1305,0.176,0.2209,0.2583,0.2822,0.3088,0.3386,0.3591,1.1678,1.135,1.0696,1.0147,0.9592,0.9379,0.9161,0.894,0.9158,0.9151,0.904,0.9485,1.0052,1.0398,0.9941,0.9765,1.0081,0.9999,0.9833,0.9784,1.0501,1.0919,1.1177,1.1791,1.2555,1.3449,1.4238,1.5085,1.5976,1.657,1.6795,1.6634,1.6386,1.564,1.4633,1.3743,1.2881,1.2123,1.1131,1.0021,0.9102,0.896,0.8701,0.8161,0.7898,0.7143,0.5849,0.4437,0.3079,0.1828,0.1032,0.0367,0.0,0.0,0.0,0.0,0.0,0.0,0.0,0.0,0.0,0.0,0.0,0.0,-0.0628,-0.1161,-0.159,-0.2006,-0.223,-0.2525,-0.287,-0.3152,-0.2958,-0.2439,-0.251,-0.2586,-0.2431,-0.2198,-0.2035,-0.1867,-0.1915,-0.1665,-0.1347,-0.1174,-0.1076,-0.0848,0.0,0.0,0.0,0.0,0.0,0.0,0.0,0.0,0.0,0.0,0.0,0.0,0.0,0.0,0.0,0.0,0.0,-0.0192,0.0,0.0,0.0,0.1528,0.1932,0.2325,0.2528,0.2785,0.3046,0.3385,0.3562,1.2441,1.1891,1.1013,1.0464,1.0147,0.9934,0.9603,0.9379,0.9485,0.9482,0.9475,0.9919,1.0638,1.1172,1.0711,1.0679,1.0936,1.0611,1.0532,1.0807,1.2355,1.2819,1.2748,1.3034,1.3693,1.4476,1.526,1.5993,1.6692,1.729,1.748,1.7347,1.6886,1.6199,1.5212,1.4213,1.3428,1.2678,1.1573,1.0464,0.9684,0.9327,0.8849,0.8279,0.7933,0.7079,0.5553,0.4234,0.2984,0.184,0.1042,0.0464,0.0,0.0,0.0,0.0,0.0,0.0,0.0,0.0,0.0,0.0,0.0,0.0,-0.0718,-0.1256,-0.187,-0.212,-0.2274,-0.2564,-0.274,-0.2841,-0.2471,-0.1889,-0.1884,-0.1962,-0.1963,-0.1964,-0.1808,-0.1645,-0.1554,-0.1385,0.0,0.0,-0.0959,-0.0943,-0.0426,0.0,0.0,0.0,0.0,0.0,0.0,0.0,0.0,0.0,0.0,0.0,0.0,0.0,0.0,0.0,0.0,0.0,0.0,0.0,0.0,0.1507,0.1988,0.2269,0.2479,0.2755,0.3091,0.3447,0.3623,1.2985,1.2441,1.1332,1.0789,1.0582,1.026,1.0044,0.993,0.9926,0.9805,0.9915,1.0594,1.1496,1.2356,1.1889,1.1885,1.2285,1.1578,1.159,1.244,1.4004,1.4916,1.4266,1.4364,1.4917,1.5502,1.6346,1.6943,1.7428,1.7901,1.8118,1.7942,1.7501,1.6782,1.5805,1.4859,1.4001,1.3113,1.19,1.1021,1.046,0.9686,0.9101,0.8479,0.7679,0.6647,0.5356,0.423,0.3302,0.1774,0.116,0.0662,0.0,0.0,0.0,0.0,0.0,0.0,0.0,0.0,0.0,0.0,0.0,0.0,-0.0897,-0.1705,-0.2152,-0.2236,-0.238,-0.2506,-0.2687,-0.259,-0.2139,-0.1574,-0.1335,-0.1415,-0.1573,-0.173,-0.1651,-0.1336,-0.1335,-0.0864,0.0,0.0,-0.0303,-0.0668,0.0,0.0,0.0,0.0,0.0,0.0,0.0,0.0,0.0,0.0,0.0,0.0,0.0,0.0,0.0,0.0,0.0,0.0,0.0,0.0,0.0,0.1225,0.1851,0.2342,0.2631,0.2859,0.3142,0.361,0.3837,1.3635,1.2989,1.2327,1.1564,1.0802,1.0586,1.0602,1.0508,1.0488,1.0272,1.0264,1.1381,1.2627,1.3638,1.3079,1.2882,1.3166,1.27,1.2998,1.4375,1.5483,1.63,1.6037,1.5892,1.5925,1.6529,1.7138,1.7673,1.8172,1.8415,1.8574,1.8366,1.8011,1.726,1.6234,1.5251,1.4347,1.335,1.2337,1.1459,1.0696,1.01,0.9388,0.8591,0.7514,0.648,0.5548,0.4636,0.3723,0.2599,0.1773,0.1058,0.0,0.0,0.0,0.0,0.0,0.0,0.0,0.0,0.0,0.0,0.0,-0.0538,-0.1795,-0.2064,-0.2334,-0.2423,-0.2411,-0.254,-0.2794,-0.2385,-0.1851,-0.135,-0.1184,-0.126,-0.1337,-0.11,-0.1022,-0.1179,-0.1179,-0.0943,0.0,0.0,0.0,0.0,0.0,0.0,0.0,0.0,0.0,0.0,0.0,0.0,0.0,0.0,0.0,0.0,0.0,0.0,0.0,0.0,0.0,0.0,0.0,0.0,0.0,0.1195,0.1842,0.2286,0.2718,0.3081,0.3421,0.3776,0.4016,1.4493,1.3635,1.3093,1.2332,1.1581,1.1338,1.1279,1.1419,1.1595,1.126,1.1143,1.2496,1.3886,1.5085,1.4463,1.425,1.429,1.3824,1.4355,1.5569,1.6583,1.7044,1.7226,1.7231,1.7285,1.7526,1.7995,1.8416,1.8705,1.8899,1.9021,1.8889,1.8415,1.7736,1.6851,1.5754,1.468,1.3686,1.2702,1.1669,1.0785,1.0351,0.9652,0.8587,0.749,0.6639,0.5839,0.4935,0.4033,0.3119,0.2297,0.1466,0.0566,0.0,0.0,0.0,0.0,0.0,0.0,0.0,0.0,0.0,-0.0359,-0.1166,-0.1974,-0.2334,-0.2515,-0.2515,-0.2597,-0.2744,-0.2831,-0.2262,-0.1643,-0.0896,0.0,0.0,-0.1117,-0.0712,-0.0393,-0.0629,-0.0629,-0.0471,0.0,0.0,0.0,0.0,0.0,0.0,0.0,0.0,0.0,0.0,0.0,0.0,0.0,0.0,0.0,0.0,0.0,0.0,0.0,0.0,0.0,0.0,0.0,0.0,0.0,0.0,0.1816,0.24,0.2907,0.3292,0.3584,0.3895,0.4037,1.5374,1.4445,1.3795,1.3049,1.244,1.2283,1.2374,1.2636,1.2771,1.2416,1.221,1.3517,1.5074,1.6229,1.5776,1.5653,1.5521,1.529,1.5537,1.6554,1.7061,1.7403,1.759,1.7904,1.8216,1.8532,1.8739,1.8971,1.9087,1.9236,1.9345,1.919,1.8646,1.8008,1.7415,1.6452,1.5271,1.4261,1.3242,1.2142,1.1223,1.0781,0.9965,0.8699,0.7837,0.6971,0.615,0.5338,0.4435,0.333,0.2623,0.1881,0.106,0.0,0.0,0.0,0.0,0.0,0.0,0.0,0.0,-0.0269,-0.0897,-0.1615,-0.2244,-0.2604,-0.2694,-0.2604,-0.2598,-0.258,-0.2614,-0.2139,-0.1267,0.0,0.0,0.0,-0.0731,0.0,0.0,0.0,0.0,0.0,0.0,0.0,0.0,0.0,0.0,0.0,0.0,0.0,0.0,0.0,0.0,0.0,0.0,0.0,0.0,0.0,0.0,0.0,0.0,0.0,0.0,0.0,0.0,0.0,0.0,0.0,0.1749,0.2491,0.2954,0.333,0.3636,0.3939,0.4105,1.5809,1.558,1.4696,1.3547,1.265,1.3093,1.3621,1.4002,1.367,1.3274,1.3155,1.4489,1.5941,1.6896,1.668,1.6509,1.6537,1.6284,1.6532,1.7168,1.7415,1.7633,1.7972,1.8194,1.8538,1.8887,1.9127,1.9249,1.9243,1.9366,1.9366,1.9345,1.8925,1.8448,1.7951,1.7319,1.6239,1.4961,1.393,1.2927,1.216,1.1088,1.0185,0.9021,0.8186,0.7345,0.6659,0.5744,0.4841,0.3833,0.252,0.1794,0.1272,0.048,0.0,0.0,0.0,0.0,0.0,-0.0718,-0.1077,-0.1166,-0.1346,-0.1885,-0.2515,-0.2785,-0.2784,-0.2515,-0.2241,-0.1958,-0.1655,-0.1387,-0.103,0.0,0.0,0.0,0.0,0.0,0.0,0.0,0.0,0.0,0.0,0.0,0.0,0.0,0.0,0.0,0.0,0.0,0.0,0.0,0.0,0.0,0.0,0.0,0.0,0.0,0.0,0.0,0.0,0.0,0.0,0.0,0.0,0.0,0.0,0.101,0.1682,0.2491,0.2893,0.3293,0.3671,0.3982,0.4193,1.6704,1.6267,1.5718,1.4751,1.3927,1.4083,1.4766,1.5401,1.4877,1.4291,1.4518,1.5682,1.6978,1.764,1.7677,1.7479,1.7244,1.7132,1.7256,1.7509,1.7509,1.7626,1.7972,1.82,1.8544,1.8887,1.9249,1.9379,1.9366,1.9366,1.9366,1.9359,1.9113,1.8932,1.857,1.7836,1.708,1.5879,1.4771,1.3704,1.2779,1.1546,1.0305,0.9677,0.8649,0.7782,0.6871,0.6142,0.514,0.4033,0.3026,0.2209,0.149,0.0,0.0,0.0,0.0,0.0,0.0,-0.0808,-0.1346,-0.1346,-0.1436,-0.1885,-0.2604,-0.2875,-0.2694,-0.2424,-0.2064,-0.134,-0.0088,-0.0442,-0.044,0.0,0.0,0.0,0.0,0.0,0.0,0.0,0.0,0.0,0.0,0.0,0.0,0.0,0.0,0.0,0.0,0.0,0.0,0.0,0.0,0.0,0.0,0.0,0.0,0.0,0.0,0.0,0.0,0.0,0.0,0.0,0.0,0.0,0.0609,0.1146,0.1819,0.2423,0.2824,0.3293,0.3694,0.4028,0.4167,1.7725,1.6979,1.6654,1.6113,1.5493,1.5225,1.5687,1.6337,1.611,1.5521,1.5258,1.6721,1.7966,1.8361,1.8336,1.8064,1.7584,1.7485,1.7379,1.7367,1.725,1.7485,1.7732,1.7966,1.8194,1.8661,1.9263,1.9386,1.9372,1.9366,1.9366,1.9366,1.9366,1.9379,1.9087,1.8461,1.7759,1.672,1.5749,1.4478,1.3157,1.1715,1.0695,1.0309,0.9094,0.8126,0.7163,0.6339,0.5338,0.4435,0.3531,0.2827,0.1813,0.0595,0.0,0.0,0.0,0.0,0.0,-0.0897,-0.1436,-0.1436,-0.1525,-0.1974,-0.2334,-0.2515,-0.2515,-0.2244,-0.1885,-0.0896,0.0626,0.0717,0.0358,0.0,0.0,0.0,0.0,0.0,0.0,0.0,0.0,0.0,0.0,0.0,0.0,0.0,0.0,0.0,0.0,0.0,0.0,0.0,0.0,0.0,0.0,0.0,0.0,0.0,0.0,0.0,0.0,0.0,0.0,0.0,0.0,0.0,0.0,0.1215,0.1683,0.222,0.2757,0.3293,0.3694,0.3961,0.4167,1.817,1.8172,1.7387,1.7062,1.7002,1.658,1.6374,1.6497,1.675,1.6615,1.6334,1.7325,1.8447,1.8836,1.8342,1.8083,1.7855,1.7633,1.7397,1.7144,1.6767,1.6767,1.7138,1.7485,1.7849,1.8317,1.892,1.9386,1.9372,1.9366,1.9366,1.9366,1.9372,1.9379,1.9386,1.9074,1.8494,1.7207,1.6458,1.5077,1.3193,1.2077,1.1108,1.0346,0.9592,0.8618,0.7478,0.6537,0.5536,0.4736,0.4137,0.3331,0.2113,0.0793,0.0,0.0,0.0,0.0,0.0,-0.0898,-0.1436,-0.1525,-0.1705,-0.1974,-0.2064,-0.2155,-0.2155,-0.2244,-0.1795,-0.0628,0.0897,0.1256,0.1166,0.0896,0.0,0.0,0.0,0.0,0.0,0.0,0.0,0.0,0.0,0.0,0.0,0.0,0.0,0.0,0.0,0.0,0.0,0.0,0.0,0.0,0.0,0.0,0.0,0.0,0.0,0.0,0.0,0.0,0.0,0.0,0.0,0.0,0.0,0.1172,0.156,0.2084,0.2688,0.3224,0.3692,0.3961,0.4167,1.8551,1.8692,1.8237,1.7817,1.7547,1.7337,1.7473,1.759,1.7584,1.7572,1.7683,1.8156,1.8777,1.916,1.8551,1.8194,1.8089,1.7762,1.7415,1.6903,1.6161,1.5897,1.6532,1.7156,1.7645,1.7849,1.8434,1.89,1.9127,1.9366,1.9366,1.9366,1.9366,1.9372,1.9386,1.9392,1.8958,1.8045,1.7019,1.5549,1.3863,1.2615,1.1585,1.0598,1.0172,0.9039,0.7708,0.6736,0.5737,0.4834,0.4036,0.313,0.2319,0.1402,0.0,0.0,0.0,0.0,0.0,0.0,-0.1259,-0.1436,-0.1615,-0.1705,-0.1705,-0.1795,-0.2064,-0.2515,-0.1795,-0.0538,0.0987,0.1346,0.1436,0.1256,0.0987,0.0447,0.0,0.0,0.0,0.0,0.0,0.0,0.0,0.0,0.0,0.0,0.0,0.0,0.0,0.0,0.0,0.0,0.0,0.0,0.0,0.0,0.0,0.0,0.0,0.0,0.0,0.0,0.0,0.0,0.0,0.0,0.0,0.1045,0.1424,0.2021,0.2621,0.309,0.356,0.403,0.4167,1.8931,1.8892,1.8848,1.8506,1.8015,1.8046,1.8305,1.8557,1.8298,1.8292,1.8532,1.8881,1.912,1.9133,1.8771,1.8298,1.8188,1.7762,1.7421,1.6672,1.5671,1.5171,1.5677,1.6442,1.705,1.725,1.7837,1.8421,1.8771,1.901,1.9249,1.9366,1.9366,1.9366,1.9372,1.9372,1.9087,1.8442,1.7252,1.5917,1.4451,1.3217,1.2191,1.1221,1.0448,0.9492,0.7782,0.6631,0.5632,0.5037,0.4036,0.313,0.232,0.1713,0.1103,0.0,0.0,0.0,0.0,-0.1015,-0.1358,-0.1438,-0.1436,-0.1436,-0.1436,-0.1525,-0.1705,-0.2244,-0.1076,0.009,0.1076,0.1525,0.1436,0.1436,0.1346,0.0897,0.0,0.0,0.0,0.0,0.0,0.0,0.0,0.0,0.0,0.0,0.0,0.0,0.0,0.0,0.0,0.0,0.0,0.0,0.0,0.0,0.0,0.0,0.0,0.0,0.0,0.0,0.0,0.0,0.0,0.0,0.0,0.0917,0.1288,0.1889,0.2488,0.2958,0.3429,0.3897,0.4097,1.8938,1.8858,1.8886,1.9004,1.9146,1.8655,1.8693,1.9193,1.89,1.8752,1.8752,1.9113,1.9359,1.9243,1.8777,1.8298,1.7935,1.7657,1.7073,1.6216,1.5224,1.4594,1.4842,1.5337,1.607,1.6655,1.7361,1.7948,1.8415,1.8771,1.9127,1.9372,1.9372,1.9372,1.9372,1.9372,1.9001,1.8333,1.7416,1.6227,1.5026,1.3816,1.2661,1.1504,1.056,0.9492,0.7962,0.6528,0.5632,0.524,0.434,0.3232,0.2321,0.1818,0.1208,0.0702,0.0198,-0.0196,-0.0772,-0.1128,-0.1375,-0.1446,-0.1436,-0.1346,-0.1166,-0.0538,-0.0718,-0.1166,-0.009,0.1076,0.1705,0.1795,0.1615,0.1615,0.1525,0.1076,0.0538,0.0,0.0,0.0,0.0,0.0,0.0,0.0,0.0,0.0,0.0,0.0,0.0,0.0,0.0,0.0,0.0,0.0,0.0,0.0,0.0,0.0,0.0,0.0,0.0,0.0,0.0,0.0,0.0,0.0,0.0451,0.0799,0.1264,0.1773,0.2287,0.2757,0.3159,0.356,0.3761,1.8597,1.8925,1.8924,1.909,1.9386,1.9133,1.9146,1.9399,1.9256,1.9236,1.9113,1.9366,1.9366,1.9243,1.8771,1.8175,1.7812,1.6762,1.6448,1.5742,1.4759,1.3885,1.4004,1.4361,1.4966,1.5941,1.6897,1.7602,1.7837,1.8421,1.892,1.9173,1.9276,1.9392,1.9386,1.9359,1.8975,1.8509,1.7885,1.6925,1.5297,1.3925,1.2859,1.1761,1.1119,0.978,0.8089,0.6431,0.5734,0.524,0.444,0.3331,0.2321,0.1818,0.1313,0.0808,0.03,0.0,-0.0589,-0.1054,-0.1403,-0.1375,-0.1357,-0.1168,-0.0721,-0.018,0.0269,0.0448,0.0808,0.1619,0.2425,0.2155,0.1885,0.1795,0.1525,0.1166,0.0718,0.0269,0.0,0.0,0.0,0.0,0.0,0.0,0.0,0.0,0.0,0.0,0.0,0.0,0.0,0.0,0.0,0.0,0.0,0.0,0.0,0.0,0.0,0.0,0.0,0.0,0.0,0.0,0.0,0.0,0.0,0.0,0.1161,0.147,0.198,0.2488,0.2891,0.3226,0.3291,1.8283,1.8664,1.8764,1.9018,1.9345,1.9366,1.9366,1.9366,1.9366,1.9366,1.9366,1.9366,1.9366,1.9243,1.8655,1.8181,1.7461,1.6514,1.5952,1.5121,1.4157,1.3292,1.3407,1.377,1.45,1.5472,1.6543,1.7256,1.7602,1.8071,1.857,1.8829,1.9063,1.892,1.8881,1.912,1.9008,1.8643,1.8374,1.7395,1.5522,1.4023,1.2839,1.1992,1.1227,0.9989,0.8123,0.6528,0.5632,0.514,0.4338,0.323,0.2322,0.1716,0.1313,0.0808,0.0,0.0,0.0,-0.0483,-0.1139,-0.1307,-0.1387,-0.0918,-0.0274,0.0183,0.0552,0.11,0.1368,0.1811,0.2717,0.2529,0.2157,0.1974,0.1615,0.1256,0.0718,0.0,0.0,0.0,0.0,0.0,0.0,0.0,0.0,0.0,0.0,0.0,0.0,0.0,0.0,0.0,0.0,0.0,0.0,0.0,0.0,0.0,0.0,0.0,0.0,0.0,0.0,0.0,0.0,0.0,0.0,0.0,0.0959,0.1144,0.1676,0.232,0.2557,0.2893,0.2825,1.8056,1.8103,1.8384,1.8824,1.9285,1.9359,1.9359,1.9366,1.9366,1.9366,1.9366,1.9366,1.9366,1.9249,1.8655,1.8071,1.7355,1.6279,1.5348,1.466,1.3674,1.3057,1.2937,1.3301,1.4028,1.5116,1.6194,1.702,1.7485,1.7843,1.8219,1.8349,1.8336,1.8064,1.7763,1.85,1.8635,1.8281,1.8255,1.716,1.5522,1.4028,1.2941,1.2021,1.1331,1.001,0.8109,0.6429,0.5632,0.5343,0.4036,0.2927,0.1816,0.1716,0.1313,0.0909,0.0303,0.0,0.0,0.0,-0.048,-0.1048,-0.1039,-0.0754,-0.0095,0.038,0.0851,0.1407,0.1399,0.1852,0.2391,0.2737,0.2269,0.1993,0.1633,0.1272,0.0819,0.0,0.0,0.0,0.0,0.0,0.0,0.0,0.0,0.0,0.0,0.0,0.0,0.0,0.0,0.0,0.0,0.0,0.0,0.0,0.0,0.0,0.0,0.0,0.0,0.0,0.0,0.0,0.0,0.0,0.0,0.0,0.0976,0.1245,0.1633,0.2081,0.2319,0.2423,0.2356,1.7862,1.8056,1.8156,1.8417,1.8791,1.8998,1.9178,1.9352,1.9366,1.9366,1.9366,1.9366,1.9366,1.9249,1.8661,1.8071,1.7361,1.6183,1.525,1.455,1.3324,1.2582,1.2457,1.2822,1.3555,1.4644,1.5726,1.6684,1.7032,1.7497,1.7726,1.7732,1.7732,1.7707,1.7689,1.815,1.8288,1.7906,1.766,1.7049,1.5412,1.4033,1.2859,1.185,1.1331,1.0006,0.8069,0.6429,0.5632,0.5343,0.3935,0.2724,0.1816,0.1615,0.1516,0.1111,0.0,0.0,0.0,0.0,0.0,0.0,0.0,0.0,0.0,0.0,0.0954,0.1337,0.1425,0.1795,0.1883,0.1879,0.1687,0.1875,0.1689,0.1501,0.0,0.0,0.0,0.0,0.0,0.0,0.0,0.0,0.0,-0.0697,-0.0779,-0.0603,0.0,0.0,0.0,0.0,0.0,0.0,0.0,0.0,0.0,0.0,0.0,0.0,0.0,0.0,0.0,0.0,0.0,0.0,0.0,0.0465,0.0997,0.1426,0.1601,0.1767,0.194,0.1975,0.1816,1.7702,1.7876,1.7883,1.7948,1.8233,1.8644,1.8938,1.9199,1.9312,1.9366,1.9366,1.9366,1.9366,1.9249,1.8661,1.8071,1.7361,1.6188,1.5256,1.4436,1.3333,1.259,1.2337,1.2333,1.3186,1.4406,1.5742,1.6577,1.679,1.7256,1.7367,1.7367,1.7244,1.7238,1.7355,1.7806,1.7749,1.7356,1.7079,1.6759,1.5113,1.3635,1.2535,1.174,1.0971,1.0018,0.7925,0.6431,0.5229,0.4836,0.3833,0.2624,0.1917,0.1414,0.1516,0.1212,0.0,0.0,0.0,0.0,0.0,0.0,0.0,0.0,0.0,0.0,0.0879,0.1267,0.1451,0.1543,0.1541,0.1444,0.1531,0.1818,0.1338,0.1051,0.0,0.0,0.0,0.0,0.0,0.0,-0.0363,0.0,0.0,-0.0978,-0.1596,-0.1414,-0.1231,-0.1066,-0.0987,0.0,0.0,0.0,0.0,0.0,0.0,0.0,0.0,0.0,0.0,0.0,0.0,0.0,0.0,0.0,0.0,0.0234,0.0542,0.084,0.112,0.1378,0.1552,0.1517,0.142,1.7589,1.7589,1.7589,1.7649,1.7692,1.8227,1.8637,1.8931,1.9219,1.9332,1.9339,1.9339,1.9366,1.9249,1.8661,1.8071,1.7367,1.6188,1.5375,1.4426,1.3453,1.2955,1.2457,1.2329,1.3181,1.4525,1.5747,1.6577,1.6661,1.7144,1.7379,1.7009,1.6638,1.6733,1.6962,1.7131,1.7032,1.6505,1.667,1.5963,1.4527,1.3028,1.1931,1.1294,1.0755,0.9544,0.762,0.5827,0.483,0.4133,0.333,0.2524,0.1717,0.1111,0.1313,0.1111,0.0404,0.0,0.0,0.0,0.0,0.0,0.0,0.0,0.0,0.0,0.0499,0.1094,0.1386,0.1479,0.1573,0.1557,0.1543,0.1253,0.0674,0.0674,0.0962,0.0,0.0,0.0,0.0,0.0,0.0,-0.0917,-0.0729,-0.1457,-0.2089,-0.2253,-0.2062,-0.1871,-0.1705,0.0,0.0,0.0,-0.1065,-0.0614,0.0,0.0,0.0,0.0,0.0,-0.1217,-0.1045,-0.0876,-0.071,-0.0629,-0.0707,-0.0471,-0.0157,0.0154,0.0379,0.0959,0.1217,0.118,0.1088,1.7589,1.7589,1.7589,1.7629,1.7636,1.7807,1.8104,1.8637,1.8918,1.9052,1.9065,1.9279,1.9312,1.9366,1.8655,1.8058,1.7361,1.6425,1.5493,1.454,1.3693,1.32,1.2826,1.2569,1.3412,1.4629,1.5731,1.6701,1.6914,1.7391,1.7268,1.702,1.6116,1.6177,1.6221,1.6391,1.5898,1.5699,1.6128,1.5291,1.3872,1.2266,1.1309,1.0736,1.0488,0.9165,0.7287,0.5325,0.4327,0.383,0.333,0.2625,0.1617,0.1414,0.1313,0.0505,0.0,0.0,0.0,0.0,0.0,0.0,0.0,0.0,0.0,0.0,0.0,0.0,0.0,0.1298,0.1396,0.1386,0.1477,0.1279,0.0,0.0,0.0,0.0,0.0,0.0,0.0,0.0,0.0,-0.1315,-0.1307,-0.1958,-0.2508,-0.2764,-0.2825,-0.2531,-0.2334,-0.2154,-0.1884,-0.1704,-0.1525,-0.1155,-0.0617,0.0,-0.0605,-0.0856,-0.1176,-0.1488,-0.155,-0.1528,-0.127,-0.134,-0.1493,-0.1336,-0.1178,-0.0936,-0.069,0.0149,0.0726,0.0492,0.0342,1.7589,1.7589,1.7589,1.7589,1.7615,1.7662,1.7855,1.819,1.8571,1.8751,1.8771,1.8931,1.9085,1.9057,1.8481,1.7952,1.7596,1.6655,1.5726,1.5023,1.4057,1.3564,1.3191,1.2933,1.3531,1.4743,1.5968,1.6949,1.7044,1.728,1.7286,1.6295,1.5478,1.5343,1.5225,1.5058,1.4751,1.4858,1.4966,1.4559,1.3202,1.1434,1.0514,1.0156,0.9907,0.8603,0.6756,0.4926,0.4126,0.3528,0.3027,0.2423,0.1414,0.101,0.0808,0.0,0.0,0.0,0.0,0.0,0.0,0.0,0.0,0.0,0.0,0.0,0.0,0.0,0.0,0.1009,0.101,0.1111,0.1312,0.1513,0.0,0.0,0.0,0.0,0.0,0.0,0.0,0.0,-0.0866,-0.1246,-0.1715,-0.2367,-0.3018,-0.3476,-0.333,-0.3092,-0.2886,-0.278,-0.242,-0.2062,-0.1883,-0.1615,-0.1069,-0.0796,-0.0972,-0.1309,-0.1541,-0.1858,-0.2003,-0.196,-0.1753,-0.1901,-0.205,-0.2359,-0.2354,-0.195,-0.1547,-0.1059,-0.0661,-0.0852,-0.1037,1.7555,1.7589,1.7589,1.7589,1.7589,1.7602,1.7615,1.7649,1.8176,1.843,1.8457,1.8497,1.8684,1.8751,1.8324,1.8008,1.7548,1.6798,1.6031,1.5493,1.4411,1.3803,1.3555,1.3297,1.4013,1.5245,1.6346,1.7067,1.7044,1.692,1.6442,1.558,1.4748,1.4381,1.431,1.402,1.3724,1.3633,1.3951,1.3753,1.2205,1.0688,0.9326,0.9313,0.8958,0.8191,0.6168,0.4832,0.413,0.3127,0.2523,0.2019,0.101,0.0404,0.0101,0.0,0.0,0.0,0.0,0.0,0.0,0.0,0.0,0.0,0.0,0.0,0.0,0.0,0.0,0.0,0.0606,0.0606,0.0707,0.0808,0.0,0.0,0.0,0.0,0.0,0.0,0.0,0.0,-0.0786,-0.1175,-0.1855,-0.2605,-0.3637,-0.4206,-0.4063,-0.3701,-0.356,-0.3435,-0.2962,-0.2603,-0.2241,-0.1973,-0.1525,-0.1343,-0.1431,-0.1691,-0.2099,-0.2333,-0.248,-0.2495,-0.2585,-0.247,-0.2531,-0.2999,-0.3067,-0.2113,-0.1861,-0.1986,-0.2083,-0.2233,-0.2021,1.7382,1.7582,1.7589,1.7589,1.7589,1.7589,1.7589,1.7589,1.7716,1.7949,1.8163,1.837,1.851,1.8466,1.8138,1.783,1.7467,1.7012,1.6277,1.5542,1.4629,1.4286,1.4291,1.4028,1.4624,1.5709,1.6566,1.6938,1.6796,1.6436,1.5952,1.5564,1.4611,1.3983,1.3585,1.3175,1.2798,1.2583,1.2197,1.2307,1.1306,1.0273,0.9321,0.8813,0.8385,0.7418,0.5737,0.4228,0.3527,0.2825,0.3031,0.202,0.0303,0.0,0.0,0.0,0.0,0.0,0.0,0.0,0.0,0.0,0.0,0.0,0.0,0.0,0.0,0.0,0.0,0.0,0.0,0.0,0.0,0.0,0.0,0.0,0.0,0.0,0.0,0.0,0.0,0.0,0.0,-0.1299,-0.1995,-0.307,-0.4411,-0.5165,-0.4837,-0.4573,-0.4305,-0.4158,-0.3612,-0.3236,-0.2782,-0.2332,-0.1884,-0.1795,-0.1792,-0.2144,-0.2581,-0.2974,-0.3349,-0.336,-0.3446,-0.3317,-0.3512,-0.4115,-0.3785,-0.2746,-0.2574,-0.2924,-0.3172,-0.3375,-0.3039,1.7128,1.7388,1.7535,1.7589,1.7589,1.7589,1.7589,1.7589,1.7589,1.7675,1.7836,1.8016,1.8156,1.8154,1.7948,1.7766,1.7466,1.7291,1.6721,1.6026,1.5198,1.4764,1.4644,1.4634,1.511,1.5833,1.6425,1.6667,1.6307,1.5698,1.5208,1.4606,1.3815,1.3136,1.2701,1.2399,1.2032,1.1818,1.0845,1.0466,1.0333,0.9455,0.8737,0.8233,0.769,0.6759,0.5434,0.3927,0.3225,0.2724,0.2526,0.1616,0.0,0.0,0.0,0.0,0.0,0.0,0.0,0.0,0.0,0.0,0.0,0.0,0.0,0.0,0.0,0.0,0.0,0.0,0.0,0.0,0.0,0.0,0.0,0.0,0.0,0.0,0.0,0.0,0.0,0.0,-0.0905,-0.1307,-0.2008,-0.3111,-0.4577,-0.5459,-0.5324,-0.5273,-0.5093,-0.4814,-0.4338,-0.3706,-0.3051,-0.2602,-0.2244,-0.2155,-0.2154,-0.2774,-0.3296,-0.3771,-0.4134,-0.4418,-0.443,-0.4183,-0.4537,-0.4973,-0.4666,-0.3767,-0.375,-0.4039,-0.4265,-0.4405,-0.4195,1.6827,1.7121,1.7513,1.7522,1.7535,1.7569,1.7589,1.7589,1.7589,1.7589,1.7609,1.7622,1.7762,1.7795,1.7774,1.7657,1.7401,1.7229,1.684,1.6512,1.582,1.53,1.4986,1.4992,1.5235,1.5596,1.607,1.5833,1.5472,1.4935,1.4212,1.3217,1.2436,1.1658,1.1509,1.1245,1.0903,1.0837,1.0309,0.9655,0.914,0.8625,0.8284,0.7843,0.7327,0.635,0.5033,0.3929,0.3126,0.2623,0.2121,0.1111,0.0,0.0,0.0,0.0,0.0,0.0,0.0,0.0,0.0,0.0,0.0,0.0,0.0,0.0,0.0,0.0,0.0,0.0,0.0,0.0,0.0,0.0,0.0,0.0,0.0,0.0,0.0,0.0,0.0,0.0,-0.1212,-0.1615,-0.2321,-0.3229,-0.4237,-0.5041,-0.562,-0.5654,-0.5577,-0.5291,-0.4906,-0.4254,-0.3443,-0.2871,-0.2513,-0.2602,-0.269,-0.3405,-0.4107,-0.468,-0.5249,-0.5734,-0.5642,-0.5366,-0.5273,-0.5621,-0.5135,-0.4658,-0.446,-0.4595,-0.4854,-0.4986,-0.5329,1.6526,1.6814,1.734,1.7461,1.7255,1.7468,1.7589,1.7589,1.7589,1.7589,1.7589,1.7589,1.7642,1.7675,1.7669,1.7515,1.7239,1.706,1.719,1.7165,1.592,1.5563,1.5187,1.4976,1.5229,1.5467,1.558,1.5343,1.4657,1.3957,1.3517,1.2835,1.1714,1.1109,1.0944,1.056,1.0062,0.9985,0.9655,0.9009,0.8602,0.8323,0.8206,0.7804,0.7321,0.616,0.5035,0.3831,0.3128,0.2624,0.1919,0.101,0.0,0.0,0.0,0.0,0.0,0.0,0.0,0.0,0.0,0.0,0.0,0.0,0.0,0.0,0.0,0.0,0.0,0.0,0.0,0.0,0.0,0.0,0.0,0.0,0.0,0.0,0.0,0.0,0.0,0.0,-0.192,-0.2221,-0.2319,-0.3429,-0.464,-0.5443,-0.5741,-0.5904,-0.6064,-0.5674,-0.5286,-0.462,-0.3784,-0.3156,-0.2782,-0.296,-0.3315,-0.4206,-0.5006,-0.5714,-0.6292,-0.6773,-0.6797,-0.6521,-0.6502,-0.6456,-0.6102,-0.5686,-0.5123,-0.4993,-0.526,-0.5667,-0.6091]}]]